[[{"header":{"parameterUnit":"m.s-1","parameterCategory":1,"la1":30.6,"la2":29.2853,"lo1":-89.7004,"lo2":-87.6739,"dy":0.0162,"dx":0.0183,"nx":112,"ny":82,"refTime":"2026-04-09T12:00:00:Z","depth":0,"parameterNumber":2,"parameterNumberName":"U-component_of_WINDS"},"data":[0.0,0.0,0.0,0.0,0.0,0.0,0.0,0.0,0.0,0.0,0.0,0.0,0.0,0.0,0.0,0.0,0.0,0.0,0.0,0.0,0.0,0.0,0.0,0.0,0.0,0.0,0.0,0.0,0.0,0.0,0.0,0.0,0.0,0.0,0.0,0.0,0.0,0.0,0.0,0.0,0.0,0.0,0.0,0.0,0.0,0.0,0.0,0.0,0.0,0.0,0.0,0.0,0.0,0.0,0.0,0.0,0.0,0.0,0.0,0.0,0.0,0.0,0.0,0.0,0.0,0.0,0.0,0.0,0.0,0.0,0.0,0.0,0.0,0.0,0.0,0.0,0.0,0.0,0.0,0.0,0.0,0.0,0.0,0.0,0.0,0.0,0.0,0.0,0.0,0.0,-4.4428,-4.7923,-5.1782,-5.383,-5.311,-5.2383,-5.0102,-4.5762,0.0,0.0,0.0,0.0,0.0,0.0,0.0,0.0,0.0,0.0,0.0,0.0,0.0,0.0,0.0,0.0,0.0,0.0,0.0,0.0,0.0,0.0,0.0,0.0,0.0,0.0,0.0,0.0,0.0,0.0,0.0,0.0,0.0,0.0,0.0,0.0,0.0,0.0,0.0,0.0,0.0,0.0,0.0,0.0,0.0,0.0,0.0,0.0,0.0,0.0,0.0,0.0,0.0,0.0,0.0,0.0,0.0,0.0,0.0,0.0,0.0,0.0,0.0,0.0,0.0,0.0,0.0,0.0,0.0,0.0,0.0,0.0,0.0,0.0,0.0,0.0,0.0,0.0,0.0,0.0,0.0,0.0,0.0,0.0,0.0,0.0,0.0,0.0,0.0,0.0,0.0,0.0,0.0,0.0,0.0,0.0,0.0,0.0,0.0,0.0,0.0,0.0,0.0,0.0,-4.401,-4.9969,-5.2312,-5.3156,-5.2404,-5.1145,-4.8781,-4.5081,0.0,0.0,0.0,0.0,0.0,0.0,0.0,0.0,0.0,0.0,0.0,0.0,0.0,0.0,0.0,0.0,0.0,0.0,0.0,0.0,0.0,0.0,0.0,0.0,0.0,0.0,0.0,0.0,0.0,0.0,0.0,0.0,0.0,0.0,0.0,0.0,0.0,0.0,0.0,0.0,0.0,0.0,0.0,0.0,0.0,0.0,0.0,0.0,0.0,0.0,0.0,0.0,0.0,0.0,0.0,0.0,0.0,0.0,0.0,0.0,0.0,0.0,0.0,0.0,0.0,0.0,0.0,0.0,0.0,0.0,0.0,0.0,0.0,0.0,0.0,0.0,0.0,0.0,0.0,0.0,0.0,0.0,0.0,0.0,0.0,0.0,0.0,0.0,0.0,0.0,0.0,0.0,0.0,0.0,0.0,0.0,0.0,0.0,0.0,0.0,0.0,0.0,0.0,-4.1956,-4.4606,-4.9781,-5.0965,-5.1218,-5.0862,-4.919,-4.6972,-4.4213,-4.1753,0.0,0.0,0.0,0.0,0.0,0.0,0.0,0.0,0.0,0.0,0.0,0.0,0.0,0.0,0.0,0.0,0.0,0.0,0.0,0.0,0.0,0.0,0.0,0.0,0.0,0.0,0.0,0.0,0.0,0.0,0.0,0.0,0.0,0.0,0.0,0.0,0.0,0.0,0.0,0.0,0.0,0.0,0.0,0.0,0.0,0.0,0.0,0.0,0.0,0.0,0.0,0.0,0.0,0.0,0.0,0.0,0.0,0.0,0.0,0.0,0.0,0.0,0.0,0.0,0.0,0.0,0.0,0.0,0.0,0.0,0.0,0.0,0.0,0.0,0.0,0.0,0.0,0.0,0.0,0.0,0.0,0.0,0.0,0.0,0.0,0.0,0.0,0.0,0.0,0.0,0.0,0.0,0.0,0.0,0.0,0.0,0.0,0.0,0.0,0.0,0.0,0.0,-4.3598,-4.5501,-4.894,-4.9309,-4.9309,-4.9309,-4.7129,-4.5025,-4.331,-3.9725,0.0,0.0,0.0,0.0,0.0,0.0,0.0,0.0,0.0,0.0,0.0,0.0,0.0,0.0,0.0,0.0,0.0,0.0,0.0,0.0,0.0,0.0,0.0,0.0,0.0,0.0,0.0,0.0,0.0,0.0,0.0,0.0,0.0,0.0,0.0,0.0,0.0,0.0,0.0,0.0,0.0,0.0,0.0,0.0,0.0,0.0,0.0,0.0,0.0,0.0,0.0,0.0,0.0,0.0,0.0,0.0,0.0,0.0,0.0,0.0,0.0,0.0,0.0,0.0,0.0,0.0,0.0,0.0,0.0,0.0,0.0,0.0,0.0,0.0,0.0,0.0,0.0,0.0,0.0,0.0,0.0,0.0,0.0,0.0,0.0,0.0,0.0,0.0,0.0,0.0,0.0,0.0,0.0,0.0,0.0,0.0,0.0,0.0,0.0,0.0,0.0,0.0,-4.3594,-4.6437,-4.7958,-4.811,-4.811,-4.811,-4.5099,-4.2954,-4.2346,-3.8002,0.0,0.0,0.0,0.0,0.0,0.0,0.0,0.0,0.0,0.0,0.0,0.0,0.0,0.0,0.0,0.0,0.0,0.0,0.0,0.0,0.0,0.0,0.0,0.0,0.0,0.0,0.0,0.0,0.0,0.0,0.0,0.0,0.0,0.0,0.0,0.0,0.0,0.0,0.0,0.0,0.0,0.0,0.0,0.0,0.0,0.0,0.0,0.0,0.0,0.0,0.0,0.0,0.0,0.0,0.0,0.0,0.0,0.0,0.0,0.0,0.0,0.0,0.0,0.0,0.0,0.0,0.0,0.0,0.0,0.0,0.0,0.0,0.0,0.0,0.0,0.0,0.0,0.0,0.0,0.0,0.0,0.0,0.0,0.0,0.0,0.0,0.0,0.0,0.0,0.0,0.0,0.0,0.0,0.0,0.0,0.0,0.0,0.0,0.0,0.0,0.0,0.0,-4.2409,-4.5071,-4.7733,-4.8007,-4.7824,-4.7429,-4.5454,-4.3275,-4.0969,0.0,0.0,0.0,0.0,0.0,0.0,0.0,0.0,0.0,0.0,0.0,0.0,0.0,0.0,0.0,0.0,0.0,0.0,0.0,0.0,0.0,0.0,0.0,0.0,0.0,0.0,0.0,0.0,0.0,0.0,0.0,0.0,0.0,0.0,0.0,0.0,0.0,0.0,0.0,0.0,0.0,0.0,0.0,0.0,0.0,0.0,0.0,0.0,0.0,0.0,0.0,0.0,0.0,0.0,0.0,0.0,0.0,0.0,0.0,0.0,0.0,0.0,0.0,0.0,0.0,0.0,0.0,0.0,0.0,0.0,0.0,0.0,0.0,0.0,0.0,0.0,0.0,0.0,0.0,0.0,0.0,0.0,0.0,0.0,0.0,0.0,0.0,0.0,0.0,0.0,0.0,0.0,0.0,0.0,0.0,0.0,0.0,0.0,0.0,0.0,0.0,0.0,-3.9541,-4.21,-4.472,-4.748,-4.7752,-4.757,-4.7117,-4.5314,-4.3015,-4.0364,0.0,0.0,0.0,0.0,0.0,0.0,0.0,0.0,0.0,0.0,0.0,0.0,0.0,0.0,0.0,0.0,0.0,0.0,0.0,0.0,0.0,0.0,0.0,0.0,0.0,0.0,0.0,0.0,0.0,0.0,0.0,0.0,0.0,0.0,0.0,0.0,0.0,0.0,0.0,0.0,0.0,0.0,0.0,0.0,0.0,0.0,0.0,0.0,0.0,0.0,0.0,0.0,0.0,0.0,0.0,0.0,0.0,0.0,0.0,0.0,0.0,0.0,0.0,0.0,0.0,0.0,0.0,0.0,0.0,0.0,0.0,0.0,0.0,0.0,0.0,0.0,0.0,0.0,0.0,0.0,0.0,0.0,0.0,0.0,0.0,0.0,0.0,0.0,0.0,0.0,0.0,0.0,0.0,0.0,0.0,0.0,0.0,0.0,0.0,0.0,0.0,0.0,-3.9444,-4.2929,-4.5813,-4.716,-4.7309,-4.7309,-4.7309,-4.4327,-4.188,0.0,0.0,0.0,0.0,0.0,0.0,0.0,0.0,0.0,0.0,0.0,0.0,0.0,0.0,0.0,0.0,0.0,0.0,0.0,0.0,0.0,0.0,0.0,0.0,0.0,0.0,0.0,0.0,0.0,0.0,0.0,0.0,0.0,0.0,0.0,0.0,0.0,0.0,0.0,0.0,0.0,0.0,0.0,0.0,0.0,0.0,0.0,0.0,0.0,0.0,0.0,0.0,0.0,0.0,0.0,0.0,0.0,0.0,0.0,0.0,0.0,0.0,0.0,0.0,0.0,0.0,0.0,0.0,0.0,0.0,0.0,0.0,0.0,0.0,0.0,0.0,0.0,0.0,0.0,0.0,0.0,0.0,0.0,0.0,0.0,0.0,0.0,0.0,0.0,0.0,0.0,0.0,0.0,0.0,0.0,0.0,0.0,0.0,0.0,0.0,0.0,0.0,0.0,-3.9134,-4.2277,-4.5076,-4.7073,-4.7309,-4.713,-4.6651,-4.4855,-4.2231,-3.8582,0.0,0.0,0.0,0.0,0.0,0.0,0.0,0.0,0.0,0.0,0.0,0.0,0.0,0.0,0.0,0.0,0.0,0.0,0.0,0.0,0.0,0.0,0.0,0.0,0.0,0.0,0.0,0.0,0.0,0.0,0.0,0.0,0.0,0.0,0.0,0.0,0.0,0.0,0.0,0.0,0.0,0.0,0.0,0.0,0.0,0.0,0.0,0.0,0.0,0.0,0.0,0.0,0.0,0.0,0.0,0.0,0.0,0.0,0.0,0.0,0.0,0.0,0.0,0.0,0.0,0.0,0.0,0.0,0.0,0.0,0.0,0.0,0.0,0.0,0.0,0.0,0.0,0.0,0.0,0.0,0.0,0.0,0.0,0.0,0.0,0.0,0.0,0.0,0.0,0.0,0.0,0.0,0.0,0.0,0.0,0.0,0.0,0.0,0.0,0.0,0.0,0.0,-3.8098,-4.1278,-4.405,-4.5915,-4.6077,-4.5814,-4.5215,-4.4179,-4.1755,-3.7463,0.0,0.0,0.0,0.0,0.0,0.0,0.0,0.0,0.0,0.0,0.0,0.0,0.0,0.0,0.0,0.0,0.0,0.0,0.0,0.0,0.0,0.0,0.0,0.0,0.0,0.0,0.0,0.0,0.0,0.0,0.0,0.0,0.0,0.0,0.0,0.0,0.0,0.0,0.0,0.0,0.0,0.0,0.0,0.0,0.0,0.0,0.0,0.0,0.0,0.0,0.0,0.0,0.0,0.0,0.0,0.0,0.0,0.0,0.0,0.0,0.0,0.0,0.0,0.0,0.0,0.0,0.0,0.0,0.0,0.0,0.0,0.0,0.0,0.0,0.0,0.0,0.0,0.0,0.0,0.0,0.0,0.0,0.0,0.0,0.0,0.0,0.0,0.0,0.0,0.0,0.0,0.0,0.0,0.0,0.0,0.0,0.0,0.0,0.0,0.0,0.0,0.0,-3.6641,-4.0069,-4.2845,-4.4172,-4.4312,-4.4059,-4.3459,-4.2823,-4.0841,-3.708,0.0,0.0,0.0,0.0,0.0,0.0,0.0,0.0,0.0,0.0,0.0,0.0,0.0,0.0,0.0,0.0,0.0,0.0,0.0,0.0,0.0,0.0,0.0,0.0,0.0,0.0,0.0,0.0,0.0,0.0,0.0,0.0,0.0,0.0,0.0,0.0,0.0,0.0,0.0,0.0,0.0,0.0,0.0,0.0,0.0,0.0,0.0,0.0,0.0,0.0,0.0,0.0,0.0,0.0,0.0,0.0,0.0,0.0,0.0,0.0,-3.6274,-3.4863,0.0,0.0,0.0,0.0,0.0,0.0,0.0,0.0,0.0,0.0,0.0,0.0,0.0,0.0,0.0,0.0,0.0,0.0,0.0,0.0,0.0,0.0,0.0,0.0,0.0,0.0,0.0,0.0,0.0,0.0,0.0,0.0,0.0,0.0,0.0,0.0,0.0,0.0,0.0,0.0,-3.6469,-3.9357,-4.1901,-4.4079,-4.4312,-4.3985,-4.3202,-4.2541,-4.0482,-3.6528,-3.4677,0.0,0.0,0.0,0.0,0.0,0.0,0.0,0.0,0.0,0.0,0.0,0.0,0.0,0.0,0.0,0.0,0.0,0.0,0.0,0.0,0.0,0.0,0.0,0.0,0.0,0.0,0.0,0.0,0.0,0.0,0.0,0.0,0.0,0.0,0.0,0.0,0.0,0.0,0.0,0.0,0.0,0.0,0.0,0.0,0.0,0.0,0.0,0.0,0.0,0.0,0.0,0.0,0.0,0.0,0.0,0.0,0.0,0.0,0.0,-3.8634,-3.7147,0.0,0.0,0.0,0.0,0.0,0.0,0.0,0.0,0.0,0.0,0.0,0.0,0.0,0.0,0.0,0.0,0.0,0.0,0.0,0.0,0.0,0.0,0.0,0.0,0.0,0.0,0.0,0.0,0.0,0.0,0.0,0.0,0.0,0.0,0.0,0.0,0.0,0.0,0.0,0.0,-3.5413,-3.8121,-4.0468,-4.2269,-4.2452,-4.2102,-4.1093,-4.0696,-3.9157,-3.5934,-3.4379,0.0,0.0,0.0,0.0,0.0,0.0,0.0,0.0,0.0,0.0,0.0,0.0,0.0,0.0,0.0,0.0,0.0,0.0,0.0,0.0,0.0,0.0,0.0,0.0,0.0,0.0,0.0,0.0,0.0,0.0,0.0,0.0,0.0,0.0,0.0,0.0,0.0,0.0,0.0,0.0,0.0,0.0,0.0,0.0,0.0,0.0,0.0,0.0,0.0,0.0,0.0,0.0,0.0,-4.2454,-4.3162,-4.4116,-4.3915,-4.389,-4.3897,-4.1729,-4.0363,-3.9474,-3.8201,0.0,0.0,0.0,0.0,0.0,0.0,0.0,0.0,0.0,0.0,0.0,0.0,0.0,0.0,0.0,0.0,0.0,0.0,0.0,0.0,0.0,0.0,-3.4048,-3.45,-3.5228,-3.5123,-3.2692,0.0,0.0,0.0,0.0,0.0,0.0,0.0,0.0,0.0,0.0,0.0,-3.411,-3.6934,-3.9109,-4.0107,-4.0312,-3.9902,-3.87,-3.8597,-3.768,-3.5519,-3.4331,-3.3024,0.0,0.0,0.0,0.0,0.0,0.0,0.0,0.0,0.0,0.0,0.0,0.0,0.0,0.0,0.0,0.0,0.0,0.0,0.0,0.0,0.0,0.0,0.0,0.0,0.0,0.0,0.0,0.0,0.0,0.0,0.0,0.0,-3.7928,-3.8444,0.0,0.0,0.0,0.0,0.0,0.0,0.0,0.0,0.0,0.0,0.0,0.0,0.0,-4.1433,-4.2489,-4.3998,-4.5104,-4.5673,-4.7104,-4.8109,-4.8686,-4.7707,-4.7531,-4.7933,-4.6663,0.0,-4.0953,-4.0302,0.0,0.0,0.0,0.0,0.0,0.0,0.0,0.0,0.0,0.0,0.0,0.0,0.0,0.0,0.0,0.0,0.0,0.0,0.0,0.0,0.0,0.0,-3.7362,-3.7437,-3.7211,-3.6883,-3.6502,-3.3758,-3.1029,-2.9909,-2.8985,-2.7982,0.0,0.0,0.0,0.0,0.0,0.0,-3.3555,-3.6518,-3.8607,-3.9005,-3.9466,-3.9263,-3.7871,-3.7746,-3.7118,-3.555,-3.4457,-3.3401,-3.2352,-3.0279,0.0,0.0,0.0,0.0,0.0,0.0,0.0,0.0,0.0,0.0,0.0,0.0,0.0,0.0,0.0,0.0,0.0,0.0,0.0,0.0,0.0,0.0,0.0,0.0,0.0,0.0,0.0,0.0,0.0,-3.7571,-3.8741,-3.8336,-3.8918,-3.8741,0.0,0.0,0.0,0.0,0.0,0.0,0.0,0.0,0.0,-4.3589,-4.3966,-4.4552,-4.545,-4.6523,-4.7109,-4.7084,-4.7866,-4.8635,-4.9388,-4.866,-4.8586,-4.9057,-4.8288,-4.6588,-4.4333,-4.2943,-4.1379,-3.9722,0.0,0.0,0.0,0.0,-3.6447,-3.6127,-3.6569,-3.6218,-3.5469,-3.4654,0.0,0.0,0.0,0.0,0.0,0.0,0.0,-3.1832,-3.319,-3.5004,-3.6783,-3.7625,-3.8218,-3.846,-3.8138,-3.6424,-3.4345,-3.2533,-3.1559,-3.0349,-2.838,-2.7652,0.0,0.0,0.0,-3.2025,-3.3983,-3.6315,-3.7859,-3.8309,-3.8588,-3.8361,-3.7455,-3.7379,-3.7003,-3.6056,-3.5253,-3.4474,-3.3758,-3.187,-3.0161,0.0,0.0,0.0,0.0,0.0,0.0,0.0,0.0,0.0,0.0,0.0,0.0,0.0,0.0,0.0,0.0,0.0,0.0,0.0,0.0,0.0,0.0,0.0,0.0,0.0,0.0,0.0,0.0,-3.8894,-4.0124,-3.8994,-4.0134,-4.0099,0.0,0.0,0.0,0.0,0.0,0.0,-4.1704,-4.202,-4.3114,-4.5194,-4.5632,-4.6163,-4.6916,-4.7743,-4.8101,-4.796,-4.8379,-4.8927,-4.9688,-4.8816,-4.8561,-4.8713,-4.7823,-4.6951,-4.6078,-4.4724,-4.3255,-4.1733,-4.014,-3.8935,-3.8157,-3.8368,-3.8105,-3.7681,-3.7799,-3.7501,-3.6805,-3.539,-3.4149,-3.2834,-3.0762,0.0,0.0,0.0,0.0,-3.1213,-3.2944,-3.4396,-3.5885,-3.7489,-3.8366,-3.8846,-3.9002,-3.8197,-3.6849,-3.4998,-3.4028,-3.2792,-3.0583,-2.968,0.0,-2.9704,-3.1206,-3.2861,-3.45,-3.6157,-3.7287,-3.7563,-3.7713,-3.7563,-3.701,-3.7033,-3.6857,-3.643,-3.5981,-3.5458,-3.4906,-3.3596,-3.2014,-3.0231,0.0,0.0,0.0,0.0,0.0,0.0,0.0,0.0,0.0,0.0,0.0,0.0,0.0,0.0,0.0,0.0,0.0,0.0,0.0,0.0,0.0,0.0,0.0,0.0,0.0,0.0,0.0,0.0,0.0,-4.125,-4.1932,0.0,0.0,0.0,0.0,-3.7421,-3.8709,-3.9842,-4.0615,-4.1614,-4.2884,-4.4564,-4.4631,-4.497,-4.5486,-4.7028,-4.8074,-4.8568,-5.0101,-5.0862,-5.0862,-4.8813,-4.7695,-4.7179,-4.5165,-4.4277,-4.4301,-4.4918,-4.4544,-4.3389,-4.1742,-4.0016,-3.8515,-3.8483,-3.7298,-3.5758,-3.6451,-3.6181,-3.5779,-3.6863,-3.6115,-3.4659,-3.4006,-3.3082,0.0,0.0,-3.3466,-3.4171,-3.5246,-3.5647,-3.614,-3.8022,-3.7575,-3.7269,-3.9164,-3.8155,-3.6901,-3.6678,-3.5569,-3.4424,-3.3771,0.0,-3.2014,-3.2039,-3.3043,-3.3997,-3.465,-3.6157,-3.6985,-3.6556,-3.6958,-3.701,-3.6505,-3.6455,-3.643,-3.6405,-3.638,-3.6081,-3.5483,-3.4881,-3.3571,-3.1361,-2.9679,0.0,0.0,0.0,0.0,0.0,0.0,0.0,0.0,0.0,0.0,0.0,0.0,0.0,0.0,0.0,0.0,0.0,0.0,0.0,0.0,0.0,0.0,0.0,0.0,0.0,0.0,0.0,0.0,-4.1986,-4.3241,0.0,-4.0366,-4.0439,-4.0361,-3.945,-4.0918,-4.2082,-4.2682,-4.3638,-4.4642,-4.5609,-4.5631,-4.5649,-4.5634,-4.6137,-4.6213,-4.5864,-4.6433,-4.6717,-4.6765,-4.5701,-4.5105,-4.4973,-4.3855,-4.3753,-4.4277,-4.3319,-4.2734,-4.2355,-4.1091,-4.0006,-3.9129,-3.889,-3.8618,-3.8099,-3.701,-3.6553,-3.6114,-3.4859,-3.3672,-3.2711,-3.2489,-3.1962,-3.1539,-3.1987,-3.2268,-3.2653,-3.3612,-3.4414,-3.529,-3.6237,-3.6544,-3.6661,-3.7088,-3.6589,-3.5899,-3.5649,-3.5659,-3.5437,-3.4379,-3.3806,-3.3352,-3.2867,-3.3721,-3.4625,-3.5132,-3.6081,-3.6631,-3.643,-3.6581,-3.6631,-3.643,-3.6031,-3.583,-3.583,-3.583,-3.5579,-3.4981,-3.4781,-3.4022,-3.2491,-3.1185,-2.9151,0.0,0.0,0.0,0.0,0.0,0.0,0.0,0.0,0.0,0.0,0.0,0.0,0.0,0.0,0.0,0.0,0.0,0.0,0.0,0.0,0.0,0.0,0.0,0.0,0.0,-4.0445,-4.1882,-4.2113,-4.3421,-4.3307,-4.0612,-4.1256,-4.1395,-4.0123,-4.1512,-4.2557,-4.2735,-4.3555,-4.4132,-4.4506,-4.4527,-4.4379,-4.4177,-4.4697,-4.4672,-4.4078,-4.459,-4.4707,-4.4451,-4.3573,-4.3035,-4.2713,-4.1919,-4.1882,-4.2391,-4.0784,-4.0202,-4.0268,-4.0057,-3.9484,-3.8758,-3.8332,-3.8273,-3.8101,-3.6565,-3.5997,-3.5564,-3.3635,-3.2617,-3.2148,-3.2148,-3.1973,-3.1797,-3.209,-3.2148,-3.2285,-3.2851,-3.361,-3.4452,-3.5232,-3.5434,-3.5519,-3.5845,-3.5374,-3.4905,-3.478,-3.5297,-3.5411,-3.4485,-3.4174,-3.4005,-3.378,-3.4271,-3.4905,-3.5572,-3.6016,-3.6288,-3.6288,-3.6358,-3.6405,-3.6405,-3.5855,-3.5508,-3.5508,-3.5157,-3.4781,-3.4449,-3.4274,-3.3721,-3.2792,-3.1311,-2.9377,-2.7027,0.0,0.0,0.0,0.0,0.0,0.0,0.0,0.0,0.0,0.0,0.0,0.0,0.0,0.0,0.0,0.0,0.0,0.0,0.0,0.0,0.0,0.0,0.0,-3.6599,-3.9764,-4.2016,-4.1806,-4.2696,-4.2689,-4.0968,-4.0565,-4.0018,-3.9235,-4.0385,-4.089,-4.0527,-4.0937,-4.1172,-4.1172,-4.1172,-4.1172,-4.1172,-4.2657,-4.3456,-4.3456,-4.5041,-4.5265,-4.4329,-4.2826,-4.1617,-4.0657,-3.9208,-3.8647,-3.8588,-3.7656,-3.7305,-3.7499,-3.8756,-3.8551,-3.7405,-3.6885,-3.6118,-3.5332,-3.4863,-3.4434,-3.4004,-3.3555,-3.3418,-3.3418,-3.3418,-3.3418,-3.3418,-3.3418,-3.3418,-3.3418,-3.3418,-3.3418,-3.3733,-3.5005,-3.434,-3.3851,-3.5441,-3.4778,-3.3917,-3.4229,-3.4307,-3.4333,-3.4365,-3.3964,-3.3914,-3.4839,-3.4769,0.0,-3.5863,-3.5932,-3.5932,-3.5955,-3.6193,-3.6358,-3.6358,-3.5809,-3.5458,-3.5458,-3.443,-3.3872,-3.3847,-3.3345,-3.2817,-3.2173,-3.0016,-2.811,-2.654,0.0,0.0,0.0,0.0,0.0,0.0,0.0,0.0,0.0,0.0,0.0,0.0,0.0,0.0,0.0,0.0,0.0,0.0,0.0,0.0,0.0,-3.5461,-3.741,-3.8814,-3.9895,-4.1018,-4.2111,-4.2814,-4.2761,-4.1612,-4.1739,-4.1424,-4.0182,-4.044,-4.0604,-4.0527,-4.0937,-4.1172,-4.1172,-4.1172,-4.1172,-4.1172,-4.1618,-4.185,-4.185,-4.2293,-4.2059,-4.1191,-4.0764,-4.0062,-3.9208,-3.8793,-3.9208,-4.0065,-3.8398,-3.8175,-3.8751,-3.7483,-3.6696,-3.6428,-3.6222,-3.5862,-3.5332,-3.4863,-3.4434,-3.4004,-3.3555,-3.3418,-3.3418,-3.3418,-3.3418,-3.3418,-3.3418,-3.3418,-3.3418,-3.3418,-3.3418,-3.3481,-3.3839,-3.367,-3.3371,-3.3236,-3.2915,-3.2495,-3.1948,-3.1839,-3.2354,-3.3835,-3.3984,-3.3901,-3.3989,-3.3921,-3.4154,-3.4904,-3.4333,-3.4393,-3.5861,-3.5379,-3.5283,-3.6051,-3.5226,-3.4438,-3.386,-3.3187,-3.2618,-3.2247,-3.2445,-3.2321,-3.1801,-2.9584,-2.8249,0.0,0.0,0.0,0.0,0.0,0.0,0.0,0.0,0.0,0.0,0.0,0.0,0.0,0.0,0.0,0.0,0.0,0.0,0.0,0.0,0.0,0.0,-3.581,-3.7559,-3.9292,-3.9757,-4.034,-4.17,-4.2113,-4.2079,-4.1479,-4.1776,-4.156,-4.0515,-4.0623,-4.0801,-4.0801,-4.1035,-4.1172,-4.1172,-4.1172,-4.1172,-4.1172,-4.1172,-4.1172,-4.1172,-4.0996,-4.0547,-3.9883,-3.9687,-3.9238,-3.8574,-3.8574,-3.9063,-3.9798,-3.8445,-3.8153,-3.8445,0.0,0.0,0.0,0.0,-3.5859,-3.5586,-3.5137,-3.4707,-3.4258,-3.3828,-3.3574,-3.3418,-3.3418,-3.3418,-3.3418,-3.3418,-3.3418,-3.3418,-3.3418,-3.3418,-3.3418,-3.3418,-3.3418,-3.3184,-3.2344,-3.2229,-3.1914,-3.1055,-3.0898,0.0,-3.2517,-3.2679,-3.2789,-3.2987,-3.2944,-3.3146,-3.3918,-3.3308,-3.3288,-3.4445,-3.3939,-3.3773,-3.4434,-3.3529,0.0,0.0,0.0,-3.1277,-3.0883,-3.1171,0.0,0.0,0.0,0.0,0.0,0.0,0.0,0.0,-2.7188,-2.72,0.0,0.0,0.0,0.0,0.0,0.0,0.0,0.0,0.0,0.0,0.0,0.0,0.0,0.0,0.0,0.0,-3.6571,-3.7228,-3.8806,-3.944,-4.0111,-4.0967,-4.1072,-4.1121,-4.1121,-4.1169,-4.1016,-4.0625,-4.0957,-4.1172,-4.1172,-4.1172,0.0,0.0,0.0,-4.1172,-4.1172,-4.1172,-4.1152,-4.1094,-4.0703,-4.0273,-3.9805,-3.9394,-3.8965,-3.8574,-3.8574,-3.8574,-3.8555,-3.8164,-3.7715,-3.7246,-3.6777,-3.6367,-3.6016,-3.6016,-3.6016,-3.5957,-3.5547,0.0,0.0,-3.4219,-3.3848,-3.3555,-3.3516,-3.3496,-3.3496,-3.3496,-3.3457,-3.3418,-3.3418,-3.3418,-3.3418,-3.3418,-3.3418,-3.3184,-3.2344,-3.2229,-3.1914,-3.1055,-3.0898,-3.0898,-3.0898,-3.0898,-3.1128,-3.1917,-3.1932,-3.2079,-3.2867,-3.2603,-3.235,-3.2509,-3.231,0.0,-3.2252,-3.1453,-3.1301,-3.2065,-3.0716,-2.9895,-2.9745,-2.9813,-2.9829,-2.9829,-2.9951,-3.0196,-3.0535,-3.0734,-3.0681,-3.0387,-2.8173,-2.7935,0.0,0.0,0.0,0.0,0.0,0.0,0.0,0.0,0.0,0.0,0.0,0.0,0.0,0.0,0.0,-3.5887,-3.7183,-3.8321,-3.8661,-3.9641,-4.0442,-4.06,-4.0935,-4.119,-4.119,-4.121,-4.1133,-4.1055,-4.1133,-4.1172,-4.1172,-4.1172,-4.1172,-4.1172,-4.1172,-4.1172,-4.1172,-4.1172,-4.0996,-4.0644,-4.0566,0.0,-3.9336,-3.9238,-3.8965,-3.8574,-3.8574,-3.8574,-3.8574,-3.8476,-3.7988,-3.7226,-3.6445,-3.6094,-3.6016,-3.6016,-3.6016,-3.5957,-3.5547,-3.5332,-3.5137,-3.4336,-3.4238,-3.4394,-3.4043,-3.3945,0.0,-3.3945,-3.3691,-3.3418,-3.3418,-3.3418,-3.3418,-3.3418,-3.3418,-3.3184,-3.2344,-3.2229,-3.1914,-3.1055,-3.0898,-3.0898,-3.0898,-3.0898,-3.0976,-3.111,-3.109,-3.1174,-3.1545,-3.1029,-3.1059,-3.2031,-3.1594,-3.146,-3.1993,-3.149,-3.0931,-3.0506,-2.9399,-2.8807,-2.8744,-2.9232,-2.9529,-2.9529,-3.0286,-3.0291,-2.9471,-3.0858,-3.1243,-3.072,-3.0419,-3.0469,0.0,0.0,0.0,0.0,0.0,0.0,0.0,0.0,0.0,0.0,0.0,-3.4188,-3.4677,0.0,-3.6349,-3.6809,-3.7806,-3.873,-3.918,-3.998,-4.0527,-4.0527,-4.0898,-4.1172,-4.1172,-4.1172,-4.1172,-4.1172,-4.1172,-4.1172,-4.1172,-4.1172,-4.1172,-4.1172,-4.1172,-4.1074,-4.084,-4.084,-4.0625,-4.0195,-3.998,-3.9629,-3.9199,-3.8984,-3.8769,-3.8574,-3.8574,-3.8574,-3.8535,-3.8105,-3.7676,-3.7207,-3.6348,-3.6016,-3.6016,-3.6016,-3.6016,-3.5996,-3.5781,-3.5566,-3.5293,-3.4609,-3.4394,-3.4336,-3.4141,-3.3926,-3.3789,-3.4004,-3.375,-3.3418,-3.3418,-3.3418,-3.3418,-3.3418,-3.3418,-3.3184,-3.2344,-3.2229,-3.1914,-3.1055,-3.0898,-3.0898,-3.0898,-3.0898,-3.0898,-3.0898,-3.0703,-3.06,-3.069,-3.0023,-2.9794,-3.0378,-2.9946,-2.9758,-3.0109,-3.0164,-2.9899,-2.9303,-2.9252,-2.9102,-2.8864,-2.9159,-2.9303,-2.9303,-3.0329,-3.0444,-2.9613,-3.0951,-3.1228,-3.0418,-3.0832,-3.1434,0.0,0.0,0.0,0.0,0.0,0.0,0.0,-3.3,-3.3485,-3.3577,-3.399,-3.466,-3.589,-3.6434,-3.7035,-3.7871,-3.8496,-3.9043,-3.9668,-4.0195,-4.0488,-4.041,-4.0781,-4.1055,-4.1055,-4.1055,-4.1074,-4.1172,-4.1172,-4.1172,-4.1172,-4.1172,-4.1133,-4.1055,-4.1055,-4.084,-4.041,-4.041,-4.0176,-3.9766,-3.9375,-3.916,-3.9062,-3.873,-3.8574,-3.8574,-3.8574,-3.8535,-3.8379,-3.7617,-3.7246,-3.709,-3.6328,-3.6016,-3.6016,-3.6016,-3.6016,-3.6016,-3.6016,-3.5801,-3.543,-3.498,-3.4609,-3.4316,-3.4219,-3.3887,-3.3613,-3.3965,-3.375,-3.3418,-3.3418,-3.3418,-3.3418,-3.3418,-3.3418,-3.3184,-3.2344,-3.2229,-3.1914,-3.1055,-3.0898,-3.0898,-3.0898,-3.0898,-3.0898,-3.0898,-3.0488,-3.0176,-3.0078,-2.9473,-2.8984,-2.8809,-2.8574,-2.8379,-2.8301,-2.8685,-2.8819,-2.8472,-2.9153,-2.9338,-2.8907,-2.8994,-2.9048,-2.9048,-3.0189,-3.0481,-2.9854,-3.102,-3.1065,-2.9984,-3.0708,-3.1686,-3.917,-3.8076,-3.74,-3.6411,-3.5518,-3.5011,0.0,-3.5681,-3.5514,-3.5603,-3.6299,-3.6925,-3.7121,-3.7492,-3.7891,-3.8418,-3.9199,-3.9629,-3.9316,-4.0,-4.0391,-4.0019,-4.0332,-4.0586,-4.0586,-4.0586,-4.0762,-4.1152,-4.1172,-4.1172,-4.1172,-4.1172,-4.0996,-4.0605,-4.0586,-4.0391,-3.9961,-3.9961,-3.9726,-3.9277,-3.9219,-3.9004,-3.8652,-3.8594,-3.8574,-3.8574,-3.8574,-3.8359,-3.7969,-3.75,-3.707,-3.6699,-3.6211,-3.6016,-3.6016,-3.6016,-3.6016,-3.6016,-3.6016,-3.5996,-3.5879,-3.5449,-3.5293,-3.5176,-3.4746,-3.4336,-3.4004,-3.4062,-3.375,-3.3418,-3.3418,-3.3418,-3.3418,-3.3418,-3.3418,-3.3184,-3.2344,-3.2229,-3.1914,-3.1055,-3.0898,-3.0898,-3.0898,-3.0898,-3.0898,-3.0898,-3.0488,-3.0059,-2.9687,-2.9551,-2.9219,-2.8437,-2.8652,-2.8691,-2.832,-2.8349,-2.8363,-2.8304,-2.8107,-2.7922,-2.7883,-2.8329,-2.8554,-2.8554,-3.0048,-3.0263,-2.9217,-3.0809,-3.1003,-2.9943,-3.1374,-3.1702,-3.9609,-3.8774,-3.8229,-3.7357,-3.7023,-3.7068,-3.7827,-3.7619,-3.74,-3.7806,-3.8164,-3.8398,-3.8398,-3.8555,-3.8652,-3.8594,-3.9082,-3.9414,-3.9238,-3.9746,-4.0,-3.9551,-3.9648,-3.9863,-4.0137,-4.0156,-4.0234,-4.041,-4.043,-4.043,-4.043,-4.043,-4.0351,-4.0156,-4.0156,-3.9941,-3.9492,-3.9492,-3.9277,-3.8828,-3.8828,-3.875,-3.8574,-3.8574,-3.8574,-3.8574,-3.8574,-3.832,-3.7891,-3.7461,-3.7051,-3.6621,-3.6191,-3.6016,-3.6016,-3.6016,-3.6016,-3.6016,-3.6016,-3.6016,-3.5957,-3.5527,-3.5215,-3.4961,-3.4766,-3.4238,-3.375,-3.4004,-3.375,-3.3418,-3.3418,-3.3418,-3.3418,-3.3418,-3.3418,-3.3184,-3.2344,-3.2229,-3.1914,-3.1055,-3.0898,-3.0898,-3.0898,-3.0898,-3.0898,-3.0898,-3.0488,-3.0137,-2.9961,-2.9726,-2.9336,-2.873,-2.8594,-2.8476,-2.8301,-2.8301,-2.8301,-2.8301,-2.8125,-2.8027,-2.8027,-2.8252,-2.8361,-2.8361,-2.9663,-2.9746,-2.864,-3.0255,-3.0431,-2.9333,-3.0262,-3.0478,-4.0245,-3.9954,-4.0074,-3.9511,-3.9616,-4.004,-4.0625,-3.9963,-3.9358,-3.9778,-3.9397,-3.9023,-3.9023,-3.9023,-3.8965,-3.8769,-3.9121,-3.9355,-3.9219,-3.9609,-3.9629,-3.8926,-3.8848,-3.8984,-3.9316,-3.957,-3.9766,-3.9883,-3.9902,-3.9902,-3.9902,-3.9902,-3.9844,-3.9707,-3.9707,-3.9492,-3.9023,-3.9023,-3.8887,-3.8574,-3.8574,-3.8574,-3.8574,-3.8574,-3.8574,-3.8574,-3.8437,-3.8144,-3.7715,-3.7305,-3.6875,-3.6465,-3.6152,-3.6016,-3.6016,-3.6016,-3.6016,-3.6016,-3.6016,-3.6016,-3.5976,-3.5664,-3.5254,-3.4863,-3.4746,-3.418,-3.3633,-3.3828,-3.3672,-3.3418,-3.3418,-3.3418,-3.3418,-3.3418,-3.3418,-3.3184,-3.2344,-3.2229,-3.1914,-3.1055,-3.0898,-3.0898,-3.0898,-3.0898,-3.0898,-3.0898,-3.0605,-3.0351,-3.0215,-2.9726,-2.9277,-2.8945,-2.8535,-2.8301,-2.8301,-2.8301,-2.8301,-2.8301,-2.8301,-2.8301,-2.8301,-2.8301,-2.834,-2.8457,-2.924,-2.93,-2.8652,-2.9796,-2.9902,-2.9101,-2.9551,-2.9951,-4.1572,-4.2291,-4.3553,-4.3959,-4.4151,-4.4366,-4.4813,-4.3142,-4.1514,-4.1555,-4.0016,-3.8594,-3.8594,-3.8594,-3.873,-3.9121,-3.957,-3.9726,-3.9258,-3.9609,-3.9414,-3.8125,-3.7969,-3.7969,-3.7988,-3.873,-3.9414,-3.9863,-3.9902,-3.9902,-3.9902,-3.9902,-3.9687,-3.9238,-3.9219,-3.9023,-3.8594,-3.8594,-3.8594,-3.8574,-3.8574,-3.8574,-3.8574,-3.8574,-3.8574,-3.8555,-3.8125,-3.7695,-3.7285,-3.6855,-3.6426,-3.6035,-3.6035,-3.6016,-3.6016,-3.6016,-3.6016,-3.6016,-3.6016,-3.6016,-3.6016,-3.5996,-3.5723,-3.5293,-3.4844,-3.4394,-3.3965,-3.3555,-3.3437,-3.3418,-3.3418,-3.3418,-3.3418,-3.3418,-3.3418,-3.3184,-3.2344,-3.2229,-3.1914,-3.1055,-3.0898,-3.0898,-3.0898,-3.0898,-3.0898,-3.0898,-3.0879,-3.0703,-3.0254,-2.9453,-2.8926,-2.8926,-2.8535,-2.8301,-2.8301,-2.8301,-2.8301,-2.8301,-2.8301,-2.8301,-2.8301,-2.8301,-2.8476,-2.8887,-2.8887,-2.9156,-2.9587,-2.9607,-2.9607,-2.9607,-2.998,-3.0837,-4.2864,-4.3941,-4.5143,-4.5512,-4.484,-4.4243,-4.472,-4.277,-4.0788,-4.0509,-3.9431,-3.8398,-3.7832,-3.7734,-3.7773,-3.791,-3.8555,-3.8965,-3.8809,-3.9434,-3.9394,-3.8086,-3.8418,-3.8555,-3.7969,-3.8184,-3.8535,-3.8984,-3.9023,-3.9023,-3.9023,-3.9023,-3.8945,-3.8789,-3.8789,-3.8711,-3.8574,-3.8574,-3.8574,-3.8574,-3.8574,-3.8418,-3.8144,-3.8144,-3.7988,-3.7715,-3.7578,-3.7266,-3.6875,-3.6738,-3.6406,-3.6016,-3.6016,-3.6016,-3.6016,-3.6016,-3.6016,-3.6016,-3.6016,-3.6016,-3.6016,-3.6016,-3.5742,-3.5312,-3.4844,-3.4394,-3.3984,-3.3535,-3.3418,-3.3418,-3.3418,-3.3418,-3.3418,-3.3418,-3.3418,-3.3184,-3.2344,-3.2229,-3.1914,-3.1055,-3.0898,-3.0898,-3.0898,-3.0898,-3.0898,-3.0898,-3.0898,-3.084,-3.0684,-2.9883,-2.9355,-2.9355,-2.8711,-2.8301,-2.8301,-2.8301,-2.8301,-2.8301,-2.8301,-2.8418,-2.8691,-2.8711,-2.8906,-2.9355,-2.9355,-2.9414,-2.9626,-2.9844,-2.998,-3.0,-3.0449,-3.0876,-4.4962,-4.626,-4.7564,-4.8028,-4.7443,-4.6648,-4.6051,-4.3753,-4.1414,-4.0312,-3.8793,-3.7441,-3.6738,-3.6484,-3.6562,-3.7187,-3.7891,-3.8516,-3.8984,-3.9531,-3.9453,-3.8301,-3.8516,-3.8476,-3.7773,-3.7695,-3.7949,-3.8535,-3.8437,-3.8418,-3.8574,-3.8574,-3.8574,-3.8574,-3.8574,-3.8574,-3.8574,-3.8574,-3.8496,-3.834,-3.834,-3.8125,-3.7695,-3.7695,-3.7559,-3.7285,-3.7148,-3.6914,-3.666,-3.6504,-3.6269,-3.6016,-3.6016,-3.6016,-3.6016,-3.6016,-3.6016,-3.6016,-3.6016,-3.6016,-3.6016,-3.6016,-3.584,-3.5508,-3.4883,-3.4512,-3.418,-3.3594,-3.3418,-3.3418,-3.3418,-3.3418,-3.3418,-3.3418,-3.3418,-3.3184,-3.2344,-3.2229,-3.1914,-3.1055,-3.0898,-3.0898,-3.0898,-3.0898,-3.0898,-3.0898,-3.0898,-3.0898,-3.0898,-3.0254,-2.9726,-2.9646,-2.8945,-2.8457,-2.8301,-2.8437,-2.8516,-2.8516,-2.8672,-2.8867,-2.9141,-2.9141,-2.9355,-2.9785,-2.9785,-2.9883,-3.0039,-3.0312,-3.0449,-3.0449,-3.0762,-3.0898,-4.7732,-4.9238,-5.0638,-5.1352,-5.161,-5.0971,-4.8592,-4.5881,-4.3122,-4.0689,-3.7863,-3.5762,-3.5379,-3.4968,-3.5195,-3.6894,-3.7617,-3.8398,-3.9687,-3.9902,-3.959,-3.8691,-3.8223,-3.7812,-3.7363,-3.7305,-3.7656,-3.8516,-3.8164,-3.8105,-3.8555,-3.8574,-3.8574,-3.8574,-3.8555,-3.8535,-3.8535,-3.8516,-3.8301,-3.7891,-3.7891,-3.7676,-3.7266,-3.7266,-3.7246,-3.7207,-3.6816,-3.6641,-3.6601,-3.6191,-3.6016,-3.6016,-3.6016,-3.6016,-3.6016,-3.6016,-3.6016,-3.6016,-3.6016,-3.6016,-3.6016,-3.6016,-3.6016,-3.5859,-3.5,-3.4726,-3.4531,-3.3691,-3.3437,-3.3418,-3.3418,-3.3418,-3.3418,-3.3418,-3.3418,-3.3184,-3.2344,-3.2229,-3.1914,-3.1055,-3.0898,-3.0898,-3.0898,-3.0898,-3.0898,-3.0898,-3.0898,-3.0898,-3.0898,-3.0488,-3.0039,-2.9648,-2.9219,-2.8789,-2.8398,-2.873,-2.8945,-2.8945,-2.9336,-2.9646,-2.9646,-2.9609,-2.9805,-3.0234,-3.0234,-3.0449,-3.0898,-3.0898,-3.0898,-3.0898,-3.0898,-3.0898,-4.9364,-5.0497,-5.1327,-5.2048,-5.0565,-4.8521,-4.6408,-4.348,-4.0675,-3.8807,-3.6102,-3.4103,-3.4246,-3.4007,-3.4101,-3.5176,-3.707,-3.8633,-3.9297,-3.9941,-3.9922,-3.8711,-3.875,-3.8574,-3.7832,-3.748,-3.7656,-3.8516,-3.8164,-3.8105,-3.8555,-3.8574,-3.8574,-3.8574,-3.8262,-3.8086,-3.8086,-3.7773,-3.7578,-3.7461,-3.7461,-3.7226,-3.6836,-3.6836,-3.666,-3.6348,-3.623,-3.6191,-3.6172,-3.6074,-3.6016,-3.6016,-3.6016,-3.6016,-3.6016,-3.6016,-3.6016,-3.6016,-3.6016,-3.6016,-3.6016,-3.6016,-3.6016,-3.5918,-3.5371,-3.498,-3.459,-3.4062,-3.3672,-3.3418,-3.3418,-3.3418,-3.3418,-3.3418,-3.3418,-3.3184,-3.2344,-3.2229,-3.1914,-3.1055,-3.0898,-3.0898,-3.0898,-3.0898,-3.0898,-3.0898,-3.0898,-3.0898,-3.0898,-3.0488,-3.0156,-3.0059,-2.9648,-2.9355,-2.9258,-2.9336,-2.9394,-2.9394,-2.9512,-2.9707,-3.0019,-3.0039,-3.0254,-3.0703,-3.0703,-3.0781,-3.0898,-3.0898,-3.0898,-3.0898,-3.0898,-3.0898,-5.0845,-5.1505,-5.1955,-5.2094,-5.0145,-4.7419,-4.469,-4.2007,-3.9403,-3.6841,-3.4529,-3.3035,-3.3012,-3.2755,-3.293,-3.3965,-3.6172,-3.8086,-3.9062,-3.9629,-3.9746,-3.9219,-3.9023,-3.8652,-3.7988,-3.7715,-3.7773,-3.8262,-3.7891,-3.793,-3.8535,-3.8574,-3.8496,-3.8301,-3.8047,-3.7832,-3.7656,-3.7422,-3.7207,-3.7031,-3.7031,-3.6797,-3.6387,-3.6387,-3.625,-3.6016,-3.6016,-3.6016,-3.6016,-3.6016,-3.6016,-3.6016,-3.6016,-3.6016,-3.6016,-3.6016,-3.6016,-3.6016,-3.6016,-3.6016,-3.6016,-3.6016,-3.6016,-3.5937,-3.5527,-3.5215,-3.4883,-3.4258,-3.3887,-3.3672,-3.3476,-3.3418,-3.3418,-3.3418,-3.3418,-3.3242,-3.2578,-3.2305,-3.1914,-3.1055,-3.0898,-3.0898,-3.0898,-3.0898,-3.0898,-3.0898,-3.0898,-3.0898,-3.0898,-3.0664,-3.043,-3.0215,-2.998,-2.9766,-2.9646,-2.9746,-2.9844,-2.9844,-3.0039,-3.0254,-3.0488,-3.0508,-3.0625,-3.0879,-3.0898,-3.0898,-3.0898,-3.0898,-3.0898,-3.0898,-3.0898,-3.0898,-5.2108,-5.231,-5.2337,-5.1919,-4.9934,-4.7073,-4.3554,-4.1221,-3.8786,-3.5143,-3.3231,-3.2158,-3.1802,-3.1532,-3.1777,-3.3125,-3.5156,-3.7148,-3.8809,-3.9082,-3.9258,-3.9668,-3.9043,-3.8418,-3.8047,-3.7969,-3.7949,-3.8008,-3.7617,-3.7734,-3.8535,-3.8516,-3.8262,-3.7773,-3.7754,-3.7559,-3.7129,-3.7129,-3.6953,-3.6582,-3.6582,-3.6387,-3.6016,-3.6016,-3.6016,-3.6016,-3.6016,-3.6016,-3.6016,-3.6016,-3.6016,-3.6016,-3.6016,-3.6016,-3.6016,-3.6016,-3.6016,-3.6016,-3.6016,-3.6016,-3.6016,-3.6016,-3.6016,-3.5957,-3.5586,-3.543,-3.5215,-3.4394,-3.4121,-3.3965,-3.3535,-3.3418,-3.3418,-3.3418,-3.3418,-3.3301,-3.2891,-3.2461,-3.1934,-3.1133,-3.0976,-3.0957,-3.0898,-3.0898,-3.0898,-3.0898,-3.0898,-3.0898,-3.0898,-3.0898,-3.0742,-3.0332,-3.0293,-3.0137,-2.9785,-3.0078,-3.0293,-3.0293,-3.0664,-3.0898,-3.0898,-3.0898,-3.0898,-3.0898,-3.0898,-3.0898,-3.0898,-3.0898,-3.0898,-3.0898,-3.0937,-3.0976,-5.2864,-5.2713,-5.2435,-5.2081,-4.9511,-4.6404,-4.3656,-4.0877,-3.7997,-3.4949,-3.253,-3.0946,-3.0897,-3.0665,-3.0976,-3.2637,-3.4726,-3.6601,-3.7949,-3.8457,-3.8711,-3.8789,-3.8672,-3.8555,-3.8476,-3.8144,-3.8066,-3.8437,-3.8066,-3.8047,-3.8555,-3.8223,-3.7676,-3.6914,-3.6894,-3.668,-3.625,-3.625,-3.6211,-3.6133,-3.6133,-3.6094,-3.6016,-3.6016,-3.6016,-3.6016,-3.6016,-3.6016,-3.6016,-3.6016,-3.6016,-3.6016,-3.6016,-3.6016,-3.6016,-3.6016,-3.6016,-3.6016,-3.6016,-3.6016,-3.6016,-3.6016,-3.6016,-3.6016,-3.5937,-3.5664,-3.5293,-3.4746,-3.4336,-3.3965,-3.3535,-3.3418,-3.3418,-3.3418,-3.3418,-3.3301,-3.2891,-3.2461,-3.2012,-3.1504,-3.1406,-3.1309,-3.0957,-3.0898,-3.0898,-3.0898,-3.0898,-3.0898,-3.0898,-3.0898,-3.0859,-3.0781,-3.0762,-3.0742,-3.0664,-3.0723,-3.0762,-3.0762,-3.084,-3.0898,-3.0898,-3.0898,-3.0898,-3.0898,-3.0898,-3.0898,-3.0898,-3.0898,-3.0898,-3.0898,-3.125,-3.1406,-5.3348,-5.2982,-5.2583,-5.237,-4.9344,-4.5599,-4.2263,-3.9264,-3.6376,-3.3389,-3.1063,-2.9745,-3.0308,-3.0086,-3.0137,-3.0976,-3.293,-3.4941,-3.6699,-3.7109,-3.7656,-3.8769,-3.8711,-3.8574,-3.8574,-3.8184,-3.8008,-3.8223,-3.7832,-3.7891,-3.8535,-3.7949,-3.7402,-3.7012,-3.6562,-3.623,-3.6016,-3.6016,-3.6016,-3.6016,-3.6016,-3.6016,-3.6016,-3.6016,-3.6016,-3.6016,-3.6016,-3.6016,-3.6016,-3.6016,-3.6016,-3.6016,-3.6016,-3.6016,-3.6016,-3.6016,-3.6016,-3.5947,-3.5811,-3.5743,-3.5743,-3.5743,-3.5879,-3.6016,-3.6016,-3.5879,-3.5625,-3.5176,-3.4922,-3.4609,-3.3926,-3.375,-3.3711,-3.3476,-3.3418,-3.3301,-3.2891,-3.2637,-3.2363,-3.1934,-3.168,-3.1445,-3.125,-3.1035,-3.0898,-3.0898,-3.0898,-3.0898,-3.0898,-3.0898,-3.0898,-3.0898,-3.0898,-3.0898,-3.0898,-3.0898,-3.0898,-3.0898,-3.0898,-3.0898,-3.0898,-3.0898,-3.0898,-3.0898,-3.0898,-3.0898,-3.0898,-3.1113,-3.1211,-3.123,-3.166,-3.1855,-5.3393,-5.2841,-5.2083,-5.2294,-4.8919,-4.4619,-4.0994,-3.7923,-3.498,-3.1607,-2.9648,-2.8661,-2.9338,-2.9225,-2.9196,-2.9567,-3.1152,-3.3144,-3.5293,-3.584,-3.6699,-3.8574,-3.8672,-3.8574,-3.8574,-3.8184,-3.793,-3.793,-3.7539,-3.7559,-3.8144,-3.7519,-3.7129,-3.7031,-3.6367,-3.6016,-3.6016,-3.6016,-3.6016,-3.6016,-3.6016,-3.6016,-3.6016,-3.6016,-3.6016,-3.6016,-3.6016,-3.6016,-3.6016,-3.6016,-3.6016,-3.6016,-3.6016,-3.6016,-3.6016,-3.6016,-3.5947,-3.5879,-3.5626,-3.5489,-3.5489,-3.5489,-3.5675,-3.5879,-3.5947,-3.6016,-3.5937,-3.5508,-3.5391,-3.5195,-3.4297,-3.4082,-3.3965,-3.3535,-3.3418,-3.332,-3.3008,-3.293,-3.2812,-3.2383,-3.2031,-3.1758,-3.168,-3.1309,-3.1035,-3.1035,-3.0957,-3.0898,-3.0898,-3.0898,-3.0898,-3.0898,-3.0898,-3.0898,-3.0898,-3.0898,-3.0898,-3.0898,-3.0898,-3.0898,-3.0898,-3.0898,-3.0898,-3.0898,-3.0976,-3.1035,-3.1035,-3.1445,-3.166,-3.166,-3.2109,-3.2305,-5.3014,-5.1798,-5.0579,-5.117,-4.7584,-4.3252,-4.0822,-3.7991,-3.4666,-3.0391,-2.8736,-2.7893,-2.739,-2.7231,-2.7754,-2.9316,-3.041,-3.1816,-3.3945,-3.5273,-3.6387,-3.7363,-3.8125,-3.8574,-3.8574,-3.8184,-3.793,-3.793,-3.7539,-3.7168,-3.6855,-3.6777,-3.6543,-3.6152,-3.6055,-3.6016,-3.6016,-3.6016,-3.6016,-3.6016,-3.6016,-3.6016,-3.6016,-3.6016,-3.6016,-3.6016,-3.6016,-3.6016,-3.6016,-3.6016,-3.6016,-3.6016,-3.6016,-3.6016,-3.6016,-3.6016,-3.5811,-3.5557,-3.547,-3.5489,-3.5489,-3.5489,-3.5557,-3.5606,-3.5879,-3.6016,-3.5937,-3.5508,-3.5391,-3.5195,-3.4297,-3.4082,-3.3965,-3.3535,-3.3418,-3.3418,-3.3379,-3.3359,-3.3242,-3.2812,-3.2695,-3.2559,-3.2168,-3.1758,-3.1465,-3.1465,-3.1133,-3.0898,-3.0898,-3.0898,-3.0898,-3.0898,-3.0898,-3.0898,-3.0898,-3.0898,-3.0898,-3.0898,-3.0898,-3.0898,-3.0898,-3.0898,-3.0898,-3.0898,-3.1269,-3.1465,-3.1465,-3.1894,-3.2109,-3.2129,-3.2539,-3.2734,-5.2548,-5.1627,-5.017,-5.0199,-4.7144,-4.2973,-3.896,-3.6414,-3.3715,-2.965,-2.7659,-2.6701,-2.7057,-2.6874,-2.6953,-2.7871,-2.8555,-2.9785,-3.2187,-3.2988,-3.4101,-3.6269,-3.6836,-3.7246,-3.7754,-3.7422,-3.7051,-3.6797,-3.6621,-3.6465,-3.6289,-3.6523,-3.6601,-3.6426,-3.6152,-3.6016,-3.6016,-3.6016,-3.6016,-3.6016,-3.6016,-3.6016,-3.6016,-3.6016,-3.6016,-3.6016,-3.6016,-3.6016,-3.6016,-3.6016,-3.5879,-3.5675,-3.5675,-3.5675,-3.5675,-3.5675,-3.5743,-3.5743,-3.5264,-3.5127,-3.5127,-3.4921,-3.4853,-3.4921,-3.5538,-3.5675,-3.5655,-3.5481,-3.5646,-3.5625,-3.5019,-3.4473,-3.3965,-3.3535,-3.3418,-3.3418,-3.3418,-3.3418,-3.3379,-3.3203,-3.2969,-3.2734,-3.2578,-3.2187,-3.1914,-3.1914,-3.1543,-3.1269,-3.1269,-3.1055,-3.0898,-3.0898,-3.0898,-3.0898,-3.0898,-3.0898,-3.0898,-3.0898,-3.0898,-3.0898,-3.0898,-3.0898,-3.0898,-3.0898,-3.1309,-3.1523,-3.1523,-3.2207,-3.2539,-3.2559,-3.2969,-3.3164,-5.1389,-5.0874,-4.9532,-4.8874,-4.6127,-4.2303,-3.736,-3.4917,-3.2642,-2.9024,-2.7003,-2.6114,-2.6851,-2.6645,-2.6523,-2.6953,-2.7578,-2.8809,-3.1016,-3.166,-3.2773,-3.5156,-3.5547,-3.5976,-3.6836,-3.6777,-3.6484,-3.6055,-3.6016,-3.6016,-3.6016,-3.6309,-3.6484,-3.6484,-3.6172,-3.6016,-3.6016,-3.6016,-3.6016,-3.6016,-3.6016,-3.6016,-3.6016,-3.6016,-3.6016,-3.6016,-3.6016,-3.6016,-3.6016,-3.6016,-3.5879,-3.5675,-3.5675,-3.5675,-3.5626,-3.5557,-3.5538,-3.5606,-3.499,-3.4784,-3.4715,-3.4508,-3.437,-3.4508,-3.499,-3.5264,-3.5333,-3.5333,-3.5461,-3.5607,-3.5293,-3.4629,-3.3965,-3.3535,-3.3418,-3.3418,-3.3418,-3.3418,-3.3418,-3.3418,-3.3184,-3.2988,-3.2988,-3.2637,-3.2363,-3.2363,-3.1992,-3.1719,-3.1719,-3.1348,-3.1074,-3.1074,-3.0957,-3.0898,-3.0898,-3.0898,-3.0898,-3.0898,-3.0898,-3.0898,-3.0898,-3.0898,-3.0957,-3.1074,-3.1484,-3.1777,-3.1894,-3.2617,-3.2988,-3.2988,-3.3281,-3.3418,-4.9302,-4.9286,-4.8287,-4.698,-4.4211,-4.0737,-3.6623,-3.3947,-3.1443,-2.8377,-2.7024,-2.6387,-2.6436,-2.6387,-2.6523,-2.6953,-2.8086,-2.9375,-3.0703,-3.1992,-3.3105,-3.3984,-3.4453,-3.5059,-3.5937,-3.6426,-3.6484,-3.6055,-3.6016,-3.6016,-3.6016,-3.6016,-3.6035,-3.6035,-3.6016,-3.6016,-3.6016,-3.6016,-3.6016,-3.6016,-3.6016,-3.6016,-3.6016,-3.6016,-3.6016,-3.6016,-3.6016,-3.6016,-3.6016,-3.6016,-3.6016,-3.6016,-3.6016,-3.6016,-3.5947,-3.5606,-3.5264,-3.4853,-3.4508,-3.437,-3.437,-3.437,-3.437,-3.437,-3.437,-3.4646,-3.4921,-3.4921,-3.4823,-3.4806,-3.4758,-3.4394,-3.3965,-3.3535,-3.3418,-3.3418,-3.3418,-3.3418,-3.3418,-3.3418,-3.3418,-3.3418,-3.3418,-3.3066,-3.2793,-3.2793,-3.2422,-3.2168,-3.2168,-3.1777,-3.1504,-3.1504,-3.1133,-3.0898,-3.0898,-3.0898,-3.0898,-3.0898,-3.0898,-3.0898,-3.0898,-3.0898,-3.1094,-3.1504,-3.1934,-3.2363,-3.2793,-3.3203,-3.3418,-3.3418,-3.3418,-3.3418,-4.4973,-4.3739,-4.1749,-4.0738,-3.8722,-3.6164,-3.3134,-3.1855,-3.0562,-2.7811,-2.6777,-2.6289,-2.5996,-2.5937,-2.6269,-2.7305,-2.7793,-2.8613,-3.0195,-3.1035,-3.1914,-3.3066,-3.4375,-3.5391,-3.5957,-3.6152,-3.6172,-3.6035,-3.6016,-3.6016,-3.6016,-3.6016,-3.6016,-3.6016,-3.6016,-3.6016,-3.6016,-3.6016,-3.6016,-3.6016,-3.6016,-3.6016,-3.6016,-3.6016,-3.6016,-3.6016,-3.6016,-3.6016,-3.6016,-3.6016,-3.5879,-3.5694,-3.5694,-3.547,-3.5264,-3.5127,-3.499,-3.4853,-3.4508,-3.437,-3.437,-3.4094,-3.3955,-3.3955,-3.3955,-3.4232,-3.4577,-3.4853,-3.51,-3.5104,-3.4506,-3.4413,-3.4316,-3.3594,-3.3418,-3.3418,-3.3418,-3.3418,-3.3418,-3.3418,-3.3418,-3.3418,-3.3418,-3.332,-3.3223,-3.3223,-3.2871,-3.2598,-3.2598,-3.2226,-3.1953,-3.1953,-3.1836,-3.1523,-3.0937,-3.0898,-3.0898,-3.0898,-3.0898,-3.1016,-3.1309,-3.1328,-3.1523,-3.1953,-3.2383,-3.2656,-3.2793,-3.3223,-3.3418,-3.3418,-3.3418,-3.3418,-4.0818,-4.0197,-3.8699,-3.7254,-3.5806,-3.3955,-3.1485,-3.0398,-2.9391,-2.7597,-2.6797,-2.6309,-2.6035,-2.5977,-2.625,-2.7051,-2.7578,-2.832,-2.9551,-3.0391,-3.1367,-3.2637,-3.418,-3.5234,-3.5508,-3.582,-3.6016,-3.6016,-3.6016,-3.6016,-3.6016,-3.6016,-3.6016,-3.6016,-3.6016,-3.6016,-3.6016,-3.6016,-3.6016,-3.6016,-3.6016,-3.6016,-3.6016,-3.6016,-3.6016,-3.6016,-3.6016,-3.6016,0.0,-3.6016,-3.5811,-3.5489,-3.5489,-3.5264,-3.4853,-3.4784,-3.4715,-3.4646,-3.4301,-3.4163,-3.4163,-3.3886,-3.3817,-3.3817,-3.3817,-3.3955,-3.4301,-3.4784,-3.5059,-3.5141,-3.4544,-3.4576,-3.4492,-3.3633,-3.3418,-3.3418,-3.3418,-3.3418,-3.3418,-3.3418,-3.3418,-3.3418,-3.3418,-3.3418,-3.3418,-3.3418,-3.3203,-3.3027,-3.3027,-3.2656,-3.2402,-3.2402,-3.2266,-3.1953,-3.1426,-3.1367,-3.1367,-3.1367,-3.1367,-3.1484,-3.1758,-3.1758,-3.1973,-3.2402,-3.2656,-3.2871,-3.3027,-3.3301,-3.3418,-3.3418,-3.3418,-3.3516,0.0,-3.8045,-3.8011,-3.5739,-3.4601,-3.3455,-3.1228,-2.9434,0.0,-2.7695,-2.6953,-2.6387,-2.6387,-2.6367,-2.6367,-2.6465,-2.75,-2.8457,-2.8906,-3.0156,-3.1523,-3.2832,-3.4023,-3.4766,-3.4785,-3.5527,-3.6016,-3.6016,-3.6016,-3.6016,-3.6016,-3.6016,-3.6016,-3.6016,-3.6016,-3.6016,-3.6016,-3.6016,-3.6016,-3.6016,-3.6016,-3.6016,-3.6016,-3.6016,-3.6016,-3.6016,-3.6016,-3.6016,-3.6016,-3.5947,-3.5743,-3.5489,-3.5489,-3.5196,-3.4853,-3.4508,-3.437,-3.4301,-3.3955,-3.3817,-3.3817,-3.3817,-3.3817,-3.3817,-3.3817,-3.3817,-3.3955,-3.4646,-3.4853,-3.485,-3.4724,-3.4707,-3.4492,-3.3633,-3.3418,-3.3418,-3.3418,-3.3418,-3.3418,-3.3418,-3.3418,-3.3418,-3.3418,-3.3418,-3.3418,-3.3418,-3.3418,-3.3418,-3.3418,-3.3086,-3.2832,-3.2832,-3.25,-3.2266,-3.2266,-3.2207,-3.2229,-3.2229,-3.2229,-3.2187,-3.2207,-3.2207,-3.2422,-3.2832,-3.2832,-3.3027,-3.3418,-3.3457,-3.3476,-3.3476,-3.3496,-3.373,-3.0878,0.0,-3.1633,-3.0737,-3.0127,-2.9615,0.0,-2.834,-2.7695,-2.7266,-2.6758,-2.6387,-2.6387,-2.6113,-2.6211,-2.7207,-2.7891,-2.8555,-2.9316,-3.1113,-3.2949,-3.459,-3.5039,-3.5351,-3.5684,-3.5898,-3.6016,-3.6016,-3.6016,-3.6016,-3.6016,-3.6016,-3.6016,-3.6016,-3.6016,-3.6016,-3.6016,-3.6016,-3.6016,-3.6016,-3.6016,-3.6016,-3.6016,-3.6016,-3.6016,-3.6016,-3.6016,-3.6016,-3.5947,-3.5743,-3.5557,-3.5489,-3.5127,-3.4853,-3.4508,-3.4439,-3.4232,-3.3955,-3.3817,-3.3817,-3.3817,-3.3817,-3.3817,-3.3817,-3.3817,-3.3817,-3.3886,-3.437,-3.4715,-3.4781,-3.4393,-3.451,-3.4492,-3.3633,-3.3418,-3.3418,-3.3418,-3.3418,-3.3418,-3.3418,-3.3418,-3.3418,-3.3418,-3.3418,-3.3418,-3.3418,-3.3418,-3.3418,-3.3418,-3.334,-3.3281,-3.3281,-3.3184,-3.3125,-3.3125,-3.2539,-3.2229,-3.2229,-3.2229,-3.2305,-3.2637,-3.2656,-3.2851,-3.3262,-3.3281,-3.332,-3.3418,-3.375,-3.3926,-3.3926,-3.4258,-3.4453,-2.8682,-2.8945,-2.9219,-2.8984,-2.875,-2.8535,-2.834,-2.7812,-2.7246,-2.6816,-2.6387,-2.6094,-2.6094,-2.6055,-2.6328,-2.7226,-2.7891,-2.8867,-3.0585,-3.2109,-3.3652,-3.5215,-3.5566,-3.5762,-3.5996,-3.6016,-3.6016,-3.6016,-3.6016,-3.6016,-3.6016,-3.6016,-3.6016,-3.6016,-3.6016,-3.6016,-3.6016,-3.6016,-3.6016,-3.6016,-3.6016,-3.6016,-3.6016,-3.6016,-3.6016,-3.6016,-3.6016,-3.6016,-3.6016,-3.5811,-3.5538,-3.5196,-3.499,-3.4577,-3.4094,-3.4094,-3.3955,-3.3817,-3.3817,-3.3817,-3.3817,-3.3817,-3.3817,-3.3817,-3.3817,-3.3817,-3.3886,-3.4301,-3.4508,-3.4633,-3.4528,-3.4622,-3.4522,-3.3669,-3.3475,-3.3417,-3.3033,-3.2931,-3.2994,-3.3102,-3.3165,-3.3306,-3.3691,-3.3555,-3.3496,-3.3691,-3.3555,-3.3418,-3.3418,-3.3418,-3.3418,-3.3418,-3.3418,-3.3418,-3.3418,-3.3008,-3.2734,-3.2734,-3.2734,-3.2851,-3.3066,-3.3086,-3.3184,-3.3418,-3.3418,-3.3516,-3.373,-3.3965,-3.416,-3.4355,-3.459,-3.4824,-2.8432,-2.8691,-2.8984,-2.8848,-2.8867,-2.8809,-2.8398,-2.7676,-2.6992,-2.6562,-2.6133,-2.581,-2.5869,-2.623,-2.666,-2.7207,-2.8086,-2.957,-3.2109,-3.3066,-3.4004,-3.5332,-3.5801,-3.6016,-3.6016,-3.6016,-3.6016,-3.6016,-3.6016,-3.6016,-3.6016,-3.6016,-3.6016,-3.6016,-3.6016,-3.6016,-3.6016,-3.6016,-3.6016,-3.6016,-3.6016,-3.6016,-3.6016,-3.6016,-3.6016,-3.6016,-3.6016,-3.6016,-3.6016,-3.5947,-3.5538,-3.4921,-3.4853,-3.4439,-3.3817,-3.3817,-3.3817,-3.3817,-3.3817,-3.3817,-3.3817,-3.3817,-3.3817,-3.3817,-3.3817,-3.3817,-3.3886,-3.4232,-3.437,-3.4415,-3.4681,-3.4768,-3.4576,-3.3789,-3.3662,-3.3501,-3.2751,-3.2611,-3.2675,-3.3059,-3.3123,-3.3347,-3.4037,-3.3867,-3.375,-3.4101,-3.3848,-3.3613,-3.3613,-3.3613,-3.3613,-3.3613,-3.3613,-3.3613,-3.3613,-3.3613,-3.3613,-3.3613,-3.3496,-3.3418,-3.3418,-3.3418,-3.3457,-3.3516,-3.3516,-3.373,-3.416,-3.4238,-3.4453,-3.4805,-3.4863,-3.5117,-2.8785,-2.9141,-2.9297,-2.8574,-2.8652,-2.8809,-2.8398,-2.791,-2.7441,-2.7012,-2.6582,-2.6406,-2.6758,-2.6875,-2.7285,-2.8437,-2.9668,-3.1269,-3.3476,-3.3887,-3.4453,-3.5762,-3.5976,-3.6016,-3.6016,-3.6016,-3.6016,-3.6016,-3.6016,-3.6016,-3.6016,-3.6016,-3.6016,-3.6016,-3.6016,-3.6016,-3.6016,-3.6016,-3.6016,-3.6016,-3.6016,-3.6016,-3.6016,-3.6016,-3.6016,-3.6016,-3.6016,-3.6016,-3.5947,-3.5675,-3.5333,-3.4853,-3.4577,-3.4232,-3.3817,-3.3817,-3.3817,-3.3817,-3.3817,-3.3817,-3.3817,-3.3817,-3.3817,-3.3817,-3.3817,-3.3817,-3.3817,-3.3886,-3.4163,-3.4415,-3.4342,-3.4566,-3.4586,-3.3757,-3.3841,-3.4,-3.3501,-3.3416,-3.3548,-3.3896,-3.4008,-3.4139,-3.4524,-3.4551,-3.4531,-3.459,-3.4551,-3.4492,-3.4492,-3.4492,-3.4492,-3.4492,-3.4492,-3.4492,-3.4492,-3.4492,-3.4492,-3.4492,-3.3828,-3.3418,-3.3418,-3.3418,-3.3594,-3.3965,-3.3965,-3.418,-3.4609,-3.5,-3.5234,-3.5293,-3.5644,-3.5859,-2.8237,-2.8555,-2.8828,-2.8672,-2.9121,-2.9492,-2.9082,-2.8652,-2.8164,-2.75,-2.7207,-2.7129,-2.7324,-2.7734,-2.8613,-3.0391,-3.1562,-3.2754,-3.4199,-3.4414,-3.4805,-3.5898,-3.6016,-3.6016,-3.6016,-3.6016,-3.6016,-3.6016,-3.6016,-3.6016,-3.6016,-3.6016,-3.6016,-3.6016,-3.6016,-3.6016,-3.6016,-3.6016,-3.6016,-3.6016,-3.6016,-3.6016,-3.6016,-3.6016,-3.6016,-3.6016,-3.6016,-3.6016,-3.6016,-3.5811,-3.5401,-3.4853,-3.4715,-3.4301,-3.3817,-3.3817,-3.3817,-3.3817,-3.3817,-3.3817,-3.3817,-3.3817,-3.3817,-3.3817,-3.3817,-3.3817,-3.3817,-3.3817,-3.3955,-3.4126,-3.4284,-3.4433,-3.4475,-3.3857,-3.3878,-3.3822,-3.3177,-3.3073,-3.3207,-3.3539,-3.3785,-3.4126,-3.4688,-3.4731,-3.4785,-3.5039,-3.4863,-3.4707,-3.4707,-3.4707,-3.4707,-3.4707,-3.4707,-3.4707,-3.4707,-3.4707,-3.4707,-3.4707,-3.4336,-3.4121,-3.4121,-3.4121,-3.4199,-3.4414,-3.4414,-3.4629,-3.5078,-3.5293,-3.5508,-3.5742,-3.5937,-3.6016,-2.7793,-2.8047,-2.8379,-2.8691,-2.9258,-2.9805,-2.998,-2.9531,-2.8984,-2.8633,-2.8452,-2.8315,-2.8315,-2.9043,-3.0254,-3.2031,-3.3105,-3.3984,-3.4746,-3.4863,-3.5156,-3.5937,-3.6016,-3.6016,-3.6016,-3.6016,-3.6016,-3.6016,-3.6016,-3.6016,-3.6016,-3.6016,-3.6016,-3.6016,-3.6016,-3.6016,-3.6016,-3.6016,-3.6016,-3.6016,-3.6016,-3.6016,-3.6016,-3.6016,-3.6016,-3.6016,-3.6016,-3.6016,-3.6016,-3.6016,-3.5538,-3.4921,-3.4921,-3.4439,-3.3817,-3.3817,-3.3817,-3.3817,-3.3817,-3.3817,-3.3817,-3.3817,-3.3817,-3.3817,-3.3817,-3.3817,-3.3817,-3.3817,-3.3817,-3.3886,-3.4163,-3.4301,-3.4296,-3.3929,-3.3855,-3.3762,-3.3022,-3.2881,-3.3016,-3.3353,-3.3755,-3.4136,-3.4729,-3.4901,-3.5137,-3.5354,-3.5168,-3.5,-3.5,-3.5,-3.5,-3.5,-3.5,-3.5,-3.5,-3.5,-3.5,-3.5,-3.4805,-3.4707,-3.4707,-3.4707,-3.4746,-3.4863,-3.4863,-3.5078,-3.5547,-3.5547,-3.5703,-3.6016,-3.6016,-3.6016,-2.8144,-2.8262,-2.8301,-2.834,-2.8379,-2.8945,-3.0918,-3.041,-2.9844,-3.0996,-3.0586,-3.0019,-3.0019,-3.1074,-3.2109,-3.2656,-3.3789,-3.4785,-3.5273,-3.5351,-3.5508,-3.5976,-3.6016,-3.6016,-3.6016,-3.6016,-3.6016,-3.6016,-3.6016,-3.6016,-3.6016,-3.6016,-3.6016,-3.6016,-3.6016,-3.6016,-3.6016,-3.6016,-3.6016,-3.6016,-3.6016,-3.6016,-3.6016,-3.6016,-3.6016,-3.6016,-3.6016,-3.6016,-3.6016,-3.6016,-3.5538,-3.4921,-3.4921,-3.4439,-3.3817,-3.3817,-3.3817,-3.3817,-3.3817,-3.3817,-3.3817,-3.3817,-3.3817,-3.3817,-3.3817,-3.3817,-3.3817,-3.3817,-3.3817,-3.3817,-3.3817,-3.4094,-3.4301,-3.3918,-3.4126,-3.4245,-3.3794,-3.3725,-3.3863,-3.4208,-3.4552,-3.4846,-3.4865,-3.5461,-3.5802,-3.5568,-3.5753,-3.5918,-3.5918,-3.5918,-3.5918,-3.5918,-3.5918,-3.5918,-3.5918,-3.5918,-3.5918,-3.5918,-3.5156,-3.4707,-3.4707,-3.4707,-3.4902,-3.5332,-3.5351,-3.5547,-3.5976,-3.5976,-3.5996,-3.6016,-3.6016,-3.6016,-2.7461,-2.7695,-2.8027,-2.8555,-2.8672,-2.9121,-3.0762,-3.1152,-3.1465,-3.25,-3.2226,-3.1738,-3.1465,-3.2266,-3.3086,-3.3516,-3.4668,-3.5586,-3.5762,-3.5781,-3.584,-3.5996,-3.6016,-3.6016,-3.6016,-3.6016,-3.6016,-3.6016,-3.6016,-3.5898,-3.5644,-3.5625,-3.5508,-3.5215,-3.5195,-3.5195,-3.5195,-3.5195,-3.5195,-3.5215,-3.5762,-3.6016,-3.6016,-3.5742,-3.5781,-3.5996,-3.5449,-3.5371,-3.5625,-3.5625,-3.522,-3.4494,-3.4277,-3.4024,-3.3817,-3.3817,-3.3817,-3.3817,-3.3817,-3.3817,-3.3817,-3.3817,-3.3817,-3.3817,-3.3817,-3.3817,-3.3817,-3.3817,-3.3817,-3.3817,-3.3817,-3.3886,-3.3955,-3.3817,-3.3955,-3.3955,-3.3817,-3.3817,-3.3817,-3.4024,-3.4301,-3.4577,-3.4577,-3.499,-3.5333,-3.5489,-3.5626,-3.5743,-3.5947,-3.6016,-3.6016,-3.6016,-3.6016,-3.6016,-3.6016,-3.6016,-3.6016,-3.6016,-3.5703,-3.5527,-3.5527,-3.5527,-3.5605,-3.5781,-3.5781,-3.5859,-3.6016,-3.6016,-3.6016,-3.6016,-3.6016,-3.6016,-2.7051,-2.7226,-2.7637,-2.834,-2.8828,-2.9512,-3.0957,-3.1758,-3.2559,-3.3945,-3.3691,-3.3066,-3.2637,-3.3027,-3.3555,-3.4004,-3.5059,-3.5859,-3.5996,-3.6016,-3.6016,-3.6016,-3.6016,-3.6016,-3.6016,-3.6016,-3.6016,-3.6016,-3.5898,-3.5703,-3.541,-3.5254,-3.5019,-3.4707,-3.4707,-3.4707,-3.4707,-3.4707,-3.4707,-3.4707,-3.5312,-3.5605,-3.5586,-3.5312,-3.5332,-3.5566,-3.4961,-3.4883,-3.5176,-3.5043,-3.4653,-3.415,-3.3858,-3.3817,-3.3817,-3.3817,-3.3817,-3.3817,-3.3817,-3.3817,-3.3817,-3.3817,-3.3817,-3.3817,-3.3817,-3.3817,-3.3817,-3.3817,-3.3817,-3.3817,-3.3817,-3.3817,-3.3817,-3.3817,-3.3817,-3.3817,-3.3817,-3.3817,-3.3817,-3.3817,-3.4094,-3.437,-3.4232,-3.4577,-3.499,-3.5127,-3.5264,-3.5401,-3.5606,-3.5675,-3.5675,-3.5811,-3.5811,-3.5879,-3.6016,-3.6016,-3.6016,-3.6016,-3.6016,-3.6016,-3.6016,-3.6016,-3.6016,-3.6016,-3.6016,-3.6016,-3.6016,-3.6016,-3.6094,-3.623,-3.623,-3.6289,-2.7129,-2.7012,-2.7129,-2.7578,-2.8706,-3.0115,-3.1857,-3.2187,-3.291,-3.5488,-3.5,-3.3945,-3.3516,-3.3437,-3.3574,-3.4004,-3.4805,-3.5547,-3.5957,-3.6016,-3.6016,-3.6016,-3.6016,-3.6016,-3.6016,-3.6016,-3.6016,-3.6016,-3.5625,-3.5391,-3.5391,-3.4941,-3.4687,-3.4687,-3.4687,-3.4687,-3.4687,-3.4687,-3.4687,-3.4687,-3.4687,-3.4687,-3.4707,-3.4687,-3.4687,-3.4707,-3.4687,-3.4687,-3.4687,-3.4313,-3.4032,-3.3811,-3.3789,-3.3798,-3.3798,-3.3798,-3.3798,-3.3798,-3.3817,-3.3817,-3.3817,-3.3817,-3.3817,-3.3817,-3.3817,-3.3817,-3.3817,-3.3817,-3.3817,-3.3817,-3.3817,-3.3817,-3.3817,-3.3817,-3.3817,-3.3817,-3.3817,-3.3817,-3.3817,-3.3817,-3.4094,-3.4232,-3.3886,-3.4439,-3.4784,-3.4439,-3.4715,-3.4921,-3.4921,-3.4921,-3.5059,-3.547,-3.547,-3.5606,-3.5947,-3.6016,-3.6016,-3.6016,-3.6016,-3.6016,-3.6016,-3.6016,-3.6016,-3.6016,-3.6016,-3.6016,-3.6016,-3.6016,-3.625,-3.668,-3.668,-3.6894,-2.6699,-2.7226,-2.8008,-2.8437,-2.998,-3.1836,-3.3555,-3.3711,-3.4082,-3.6074,-3.5684,-3.4863,-3.4394,-3.4082,-3.3926,-3.4043,-3.4805,-3.5547,-3.5957,-3.6016,-3.6016,-3.6016,-3.6016,-3.6016,-3.6016,-3.5742,-3.5586,-3.5586,-3.5156,-3.4766,-3.4473,-3.4336,-3.4121,-3.3809,-3.3809,-3.3809,-3.3809,-3.3809,-3.3809,-3.3809,-3.3809,-3.4121,-3.4687,-3.4394,-3.4414,-3.4668,-3.4062,-3.3984,-3.4258,-3.3608,-3.3331,-3.3345,-3.3053,-3.2955,-3.2991,-3.3285,-3.3395,-3.3431,-3.3725,-3.3817,-3.3817,-3.3817,-3.3817,-3.3762,-3.3486,-3.3596,-3.3762,-3.3468,-3.3596,-3.3817,-3.3817,-3.3817,-3.3817,-3.3817,-3.3817,-3.3817,-3.3817,-3.3817,-3.3817,-3.3817,-3.3886,-3.3955,-3.3817,-3.3955,-3.4163,-3.437,-3.4508,-3.4646,-3.4853,-3.4921,-3.4921,-3.5059,-3.5059,-3.5196,-3.5606,-3.5675,-3.5743,-3.6016,-3.6016,-3.6016,-3.6016,-3.6016,-3.6016,-3.6016,-3.6016,-3.6016,-3.6016,-3.6328,-3.6543,-3.668,-3.6973,-3.7187,-2.7168,-2.7715,-2.8555,-2.9668,-3.0937,-3.2441,-3.4512,-3.5039,-3.5449,-3.666,-3.6113,-3.5351,-3.5254,-3.459,-3.4121,-3.4297,-3.4629,-3.5078,-3.5684,-3.5605,-3.5488,-3.5488,-3.5488,-3.5488,-3.5488,-3.5254,-3.5117,-3.5117,-3.4707,-3.4336,-3.4082,-3.3906,-3.3691,-3.3437,-3.3418,-3.3418,-3.3418,-3.3418,-3.3418,-3.3418,-3.3418,-3.3691,-3.418,-3.3926,-3.3945,-3.416,-3.3652,-3.3384,-3.338,-3.31,-3.2852,-3.2718,-3.26,-3.2588,-3.2625,-3.2881,-3.3083,-3.3248,-3.3505,-3.3578,-3.3578,-3.3578,-3.3468,-3.3285,-3.3046,-3.3266,-3.3523,-3.3303,-3.3505,-3.3817,-3.3817,-3.3817,-3.3817,-3.3817,-3.3817,-3.3817,-3.3817,-3.3817,-3.3817,-3.3817,-3.3817,-3.3817,-3.3817,-3.3817,-3.3886,-3.4094,-3.4163,-3.4232,-3.4439,-3.4439,-3.4508,-3.4715,-3.4853,-3.5059,-3.5489,-3.5606,-3.5889,-3.6269,-3.6289,-3.6348,-3.6523,-3.6191,-3.6094,-3.6269,-3.6289,-3.6367,-3.6523,-3.6797,-3.7012,-3.7168,-3.7422,-3.7637,-2.8066,-2.8301,-2.8906,-3.0996,-3.1719,-3.2539,-3.4902,-3.6074,-3.6797,-3.7207,-3.6309,-3.5566,-3.5957,-3.498,-3.4238,-3.4524,-3.4316,-3.4375,-3.5215,-3.4961,-3.4707,-3.4707,-3.4707,-3.4707,-3.4707,-3.4668,-3.4648,-3.4648,-3.4258,-3.4023,-3.4023,-3.3633,-3.3418,-3.3418,-3.3418,-3.3418,-3.3418,-3.3418,-3.3418,-3.3418,-3.3418,-3.3418,-3.3418,-3.3418,-3.3418,-3.3418,-3.3418,-3.3038,-3.2441,-3.2819,-3.2516,-3.1983,-3.2349,-3.2478,-3.2496,-3.2533,-3.279,-3.312,-3.3156,-3.3175,-3.3175,-3.3175,-3.2918,-3.2588,-3.2551,-3.2863,-3.3211,-3.3175,-3.3468,-3.3817,-3.3817,-3.3817,-3.3817,-3.3817,-3.3817,-3.3817,-3.3817,-3.3817,-3.3817,-3.3817,-3.3817,-3.3817,-3.3817,-3.3817,-3.3817,-3.3817,-3.3817,-3.3817,-3.3817,-3.3817,-3.3974,-3.4357,-3.4703,-3.5047,-3.5459,-3.5801,-3.6181,-3.6641,-3.668,-3.6855,-3.7285,-3.6543,-3.6328,-3.6719,-3.6719,-3.6914,-3.7305,-3.7344,-3.7539,-3.793,-3.7969,-3.8203,-2.7168,-2.8262,-2.9648,-3.1152,-3.3301,-3.5195,-3.5762,-3.6083,-3.6429,-3.7137,-3.6543,-3.5918,-3.5996,-3.5215,-3.4427,-3.3934,-3.4011,-3.4193,-3.4456,-3.4568,-3.4707,-3.4707,-3.4707,-3.4707,-3.4707,-3.4394,-3.4219,-3.4219,-3.3809,-3.3555,-3.3555,-3.3476,-3.3418,-3.3418,-3.3418,-3.3418,-3.3418,-3.3418,-3.3418,-3.3418,-3.3418,-3.3418,-3.3418,-3.3418,-3.3418,-3.3418,-3.3418,-3.3038,-3.2422,-3.2516,-3.215,-3.1524,-3.1598,-3.1634,-3.1671,-3.2001,-3.2184,-3.2313,-3.2625,-3.2735,-3.2735,-3.2735,-3.2661,-3.2533,-3.2221,-3.2643,-3.3156,-3.2826,-3.3248,-3.3817,-3.3817,-3.3817,-3.3817,-3.3817,-3.3817,-3.3817,-3.3817,-3.3817,-3.3817,-3.3817,-3.3817,-3.3817,-3.3817,-3.3817,-3.3817,-3.3817,-3.3817,-3.3817,-3.3817,-3.3817,-3.3927,-3.4379,-3.4766,-3.5116,-3.5464,-3.5881,-3.6286,-3.666,-3.668,-3.6855,-3.7285,-3.7129,-3.707,-3.7168,-3.7168,-3.7207,-3.7305,-3.7637,-3.7832,-3.793,-3.8281,-3.8476,-2.709,-2.8418,-3.0078,-3.2207,-3.4394,-3.5976,-3.5762,-3.5607,-3.5615,-3.6053,-3.5675,-3.5211,-3.5211,-3.4517,-3.3816,-3.3409,-3.3328,-3.3392,-3.3639,-3.3765,-3.3824,-3.3824,-3.3953,-3.4082,-3.4082,-3.3887,-3.375,-3.375,-3.3555,-3.3418,-3.3418,-3.3418,-3.3418,-3.3418,-3.3418,-3.3418,-3.3418,-3.3418,-3.3418,-3.3418,-3.3418,-3.3418,-3.3418,-3.3418,-3.3418,-3.3418,-3.3418,-3.3038,-3.2422,-3.2422,-3.2038,-3.1377,-3.1377,-3.1377,-3.1396,-3.1616,-3.1836,-3.2038,-3.2239,-3.2313,-3.2313,-3.2313,-3.2166,-3.1983,-3.1763,-3.2276,-3.2881,-3.2661,-3.3175,-3.3817,-3.3817,-3.3817,-3.3817,-3.3817,-3.3817,-3.3817,-3.3817,-3.3817,-3.3817,-3.3817,-3.3817,-3.3817,-3.3817,-3.3817,-3.3817,-3.3817,-3.3817,-3.3817,-3.3817,-3.3955,-3.4242,-3.4648,-3.5009,-3.5389,-3.5718,-3.6174,-3.6549,-3.6953,-3.7168,-3.7461,-3.7891,-3.791,-3.7812,-3.7598,-3.7598,-3.7695,-3.791,-3.8125,-3.8242,-3.8242,-3.8476,-3.8574,-2.7141,-2.8706,-3.0586,-3.3379,-3.4941,-3.5723,-3.5449,-3.5045,-3.4787,-3.4767,-3.4499,-3.4231,-3.4231,-3.3624,-3.3028,-3.2887,-3.2649,-3.2554,-3.283,-3.2886,-3.2912,-3.2912,-3.3165,-3.3418,-3.3418,-3.3418,-3.3418,-3.3418,-3.3418,-3.3418,-3.3418,-3.3418,-3.3418,-3.3418,-3.3418,-3.3418,-3.3418,-3.3418,-3.3418,-3.3418,-3.3418,-3.3418,-3.3418,-3.3418,-3.3418,-3.3418,-3.3418,-3.3038,-3.2485,-3.2422,-3.2038,-3.1506,-3.1442,-3.1377,-3.1377,-3.1377,-3.1598,-3.1891,-3.1891,-3.1891,-3.1891,-3.1891,-3.1653,-3.1377,-3.1377,-3.1946,-3.2588,-3.2588,-3.3175,-3.3817,-3.3817,-3.3817,-3.3817,-3.3817,-3.3817,-3.3817,-3.3817,-3.3817,-3.3817,-3.3817,-3.3817,-3.3817,-3.3817,-3.3817,-3.3817,-3.3817,-3.3817,-3.3817,-3.3817,-3.4163,-3.4519,-3.4929,-3.5313,-3.5689,-3.6042,-3.6429,-3.6813,-3.7171,-3.7592,-3.8053,-3.8482,-3.8574,-3.8398,-3.8047,-3.8027,-3.8223,-3.8574,-3.8574,-3.8574,-3.8574,-3.8574,-3.8574,-2.626,-2.8848,-3.1719,-3.3594,-3.4473,-3.4961,-3.5312,-3.4832,-3.4296,-3.4277,-3.4013,-3.3814,-3.3814,-3.3434,-3.2868,-3.2188,-3.2268,-3.2313,-3.2113,-3.2523,-3.2912,-3.2912,-3.3165,-3.3418,-3.3418,-3.3418,-3.3418,-3.3418,-3.3418,-3.3418,-3.3418,-3.3418,-3.3418,-3.3418,-3.3418,-3.3418,-3.3418,-3.3418,-3.3418,-3.3418,-3.3418,-3.3418,-3.3418,-3.3418,-3.3418,-3.3418,-3.3418,-3.3165,-3.2785,-3.2549,-3.2166,-3.1782,-3.1506,-3.1377,-3.1377,-3.1377,-3.1414,-3.1469,-3.1469,-3.1469,-3.1469,-3.1469,-3.1414,-3.1377,-3.1377,-3.1946,-3.2588,-3.2588,-3.3175,-3.3817,-3.3817,-3.3817,-3.3817,-3.3817,-3.3817,-3.3817,-3.3817,-3.3817,-3.3817,-3.3817,-3.3817,-3.3817,-3.3817,-3.3817,-3.3817,-3.3817,-3.3817,-3.3817,-3.3817,-3.4163,-3.4519,-3.4929,-3.535,-3.5711,-3.6058,-3.6218,-3.648,-3.6827,-3.7264,-3.762,-3.8063,-3.8428,-3.8555,-3.8496,-3.8496,-3.8516,-3.8574,-3.8574,-3.8574,-3.8574,-3.8574,-3.8574,-2.6584,-2.8906,-3.125,-3.3223,-3.4023,-3.4394,-3.4609,-3.4425,-3.4,-3.3325,-3.316,-3.3049,-3.3049,-3.2711,-3.2263,-3.1672,-3.1699,-3.1763,-3.1653,-3.2038,-3.2422,-3.2613,-3.2931,-3.3165,-3.3355,-3.3418,-3.3418,-3.3418,-3.3418,-3.3418,-3.3418,-3.3418,-3.3418,-3.3418,-3.3418,-3.3418,-3.3418,-3.3418,-3.3418,-3.3418,-3.3418,-3.3418,-3.3418,-3.3418,-3.3418,-3.3418,-3.3418,-3.3102,-3.2613,-3.2485,-3.2102,-3.1589,-3.1442,-3.1377,-3.1377,-3.1377,-3.1377,-3.1377,-3.1377,-3.1377,-3.1377,-3.1377,-3.1377,-3.1377,-3.1377,-3.1946,-3.2588,-3.2588,-3.3175,-3.3817,-3.3817,-3.3817,-3.3817,-3.3817,-3.3817,-3.3817,-3.3817,-3.3817,-3.3817,-3.3817,-3.3817,-3.3817,-3.3817,-3.3817,-3.3817,-3.3817,-3.3817,-3.3817,-3.3817,-3.4163,-3.4519,-3.4929,-3.5317,-3.5698,-3.6133,-3.638,-3.6607,-3.6796,-3.7387,-3.7817,-3.8009,-3.8355,-3.8574,-3.8574,-3.8574,-3.8574,-3.8574,-3.8574,-3.8574,-3.8574,-3.8574,-3.8574,-2.6182,-2.8008,-2.9746,-3.1894,-3.293,-3.3476,-3.3691,-3.3824,-3.3616,-3.2727,-3.2539,-3.2506,-3.2357,-3.205,-3.1717,-3.1442,-3.1377,-3.1377,-3.1377,-3.1717,-3.1974,-3.223,-3.2676,-3.2975,-3.3228,-3.3355,-3.3418,-3.3418,-3.3418,-3.3418,-3.3418,-3.3418,-3.3418,-3.3418,-3.332,-3.3262,-3.3262,-3.3262,-3.332,-3.3418,-3.3418,-3.3418,-3.3418,-3.3418,-3.3418,-3.3418,-3.3418,-3.3038,-3.2549,-3.2422,-3.2038,-3.1506,-3.1442,-3.1377,-3.1377,-3.1377,-3.1377,-3.1377,-3.1377,-3.1377,-3.1377,-3.1377,-3.1377,-3.1377,-3.1377,-3.1946,-3.2588,-3.2588,-3.3175,-3.3817,-3.3817,-3.3817,-3.3817,-3.3817,-3.3817,-3.3817,-3.3817,-3.3817,-3.3817,-3.3817,-3.3817,-3.3817,-3.3817,-3.3817,-3.3817,-3.3817,-3.3817,-3.3817,-3.3817,-3.4163,-3.4519,-3.4929,-3.5247,-3.5595,-3.6123,-3.6391,-3.6544,-3.6657,-3.7397,-3.7862,-3.7862,-3.8355,-3.8574,-3.8574,-3.8574,-3.8574,-3.8574,-3.8574,-3.8574,-3.8574,-3.8574,-3.8574,-2.4219,-2.5566,-2.709,-2.9238,-3.0723,-3.1855,-3.2676,-3.2932,-3.2969,-3.2867,-3.2632,-3.2332,-3.2011,-3.1653,-3.1442,-3.1377,-3.1377,-3.1377,-3.1377,-3.1717,-3.1929,-3.1929,-3.2485,-3.2931,-3.2931,-3.3228,-3.3418,-3.3418,-3.3418,-3.3418,-3.3418,-3.3418,-3.3418,-3.3418,-3.3027,-3.2832,-3.2832,-3.2832,-3.3027,-3.3418,-3.3418,-3.3418,-3.3418,-3.3418,-3.3418,-3.3418,-3.3418,-3.3165,-3.2867,-3.2549,-3.2166,-3.1846,-3.1506,-3.1377,-3.1377,-3.1377,-3.1377,-3.1377,-3.1377,-3.1377,-3.1377,-3.1377,-3.1377,-3.1377,-3.1377,-3.1946,-3.2588,-3.2588,-3.3175,-3.3817,-3.3817,-3.3817,-3.3817,-3.3817,-3.3817,-3.3817,-3.3817,-3.3817,-3.3817,-3.3817,-3.3817,-3.3817,-3.3817,-3.3817,-3.3817,-3.3817,-3.3817,-3.3817,-3.3817,-3.4163,-3.4519,-3.4929,-3.5037,-3.5373,-3.6104,-3.5906,-3.5852,-3.6238,-3.7015,-3.7402,-3.7402,-3.8209,-3.8574,-3.8574,-3.8574,-3.8574,-3.8574,-3.8574,-3.8574,-3.8574,-3.8574,-3.8574,-2.354,-2.4766,-2.6348,-2.7949,-2.9316,-3.0508,-3.1367,-3.2416,-3.3044,-3.2333,-3.2523,-3.2615,-3.1754,-3.1653,-3.1653,-3.1442,-3.1377,-3.1377,-3.1377,-3.1506,-3.1653,-3.1846,-3.2102,-3.2327,-3.2483,-3.2652,-3.2777,-3.3027,-3.2773,-3.2734,-3.3008,-3.2773,-3.2617,-3.2617,-3.248,-3.2383,-3.2383,-3.2383,-3.2598,-3.3008,-3.3008,-3.3164,-3.3418,-3.3418,-3.3418,-3.3418,-3.3418,-3.3228,-3.2867,-3.2804,-3.2549,-3.223,-3.2102,-3.191,-3.1717,-3.1717,-3.1589,-3.1377,-3.1377,-3.1377,-3.1414,-3.1689,-3.1781,-3.1836,-3.2074,-3.2551,-3.2991,-3.2991,-3.3395,-3.3817,-3.3817,-3.3817,-3.3817,-3.3817,-3.3817,-3.3817,-3.3817,-3.3817,-3.3817,-3.3817,-3.3817,-3.3817,-3.3817,-3.3817,-3.3817,-3.3817,-3.3817,-3.3817,-3.3817,-3.4176,-3.4467,-3.4596,-3.5095,-3.5519,-3.5814,-3.5926,-3.6054,-3.6201,-3.696,-3.7421,-3.7421,-3.8136,-3.8574,-3.8574,-3.8574,-3.8574,-3.8574,-3.8574,-3.8574,-3.8574,-3.8574,-3.8574,-2.2605,-2.3574,-2.5,-2.6476,-2.7708,-2.8848,-3.0156,-3.1483,-3.225,-3.1837,-3.222,-3.2464,-3.1672,-3.1717,-3.1782,-3.1442,-3.1377,-3.1377,-3.1377,-3.1377,-3.1506,-3.1717,-3.191,-3.2079,-3.2104,-3.2358,-3.2487,-3.2598,-3.2324,-3.2285,-3.2559,-3.2324,-3.2109,-3.1953,-3.1953,-3.1953,-3.1953,-3.1953,-3.2246,-3.2793,-3.2793,-3.3008,-3.3418,-3.3418,-3.3418,-3.3418,-3.3418,-3.3228,-3.2912,-3.2912,-3.2676,-3.2422,-3.2422,-3.2166,-3.1929,-3.1929,-3.1717,-3.1377,-3.1377,-3.1469,-3.1634,-3.1909,-3.2093,-3.2258,-3.2514,-3.2881,-3.323,-3.323,-3.3505,-3.3817,-3.3817,-3.3817,-3.3817,-3.3817,-3.3817,-3.3817,-3.3817,-3.3817,-3.3817,-3.3817,-3.3817,-3.3817,-3.3817,-3.3817,-3.3817,-3.3817,-3.3927,-3.4018,-3.4018,-3.4367,-3.466,-3.4807,-3.5302,-3.5669,-3.5797,-3.6054,-3.6275,-3.6349,-3.6886,-3.7329,-3.7568,-3.8136,-3.8428,-3.8574,-3.8574,-3.8574,-3.8574,-3.8574,-3.8574,-3.8574,-3.8574,-3.8574,0.0,0.0,0.0,-2.457,-2.5712,-2.6875,-2.8984,-2.9889,-3.0526,-3.137,-3.1641,-3.1766,-3.1881,-3.191,-3.1782,-3.1506,-3.1442,-3.1377,-3.1377,-3.1377,-3.1377,-3.1442,-3.1974,-3.2251,-3.1853,-3.242,-3.2617,-3.2207,-3.2209,-3.2148,-3.2148,-3.2148,-3.1934,-3.1504,-3.1504,-3.1504,-3.1504,-3.1504,-3.1914,-3.2754,-3.2773,-3.2988,-3.3398,-3.3418,-3.3418,-3.3418,-3.3418,-3.3228,-3.2912,-3.2912,-3.274,-3.2422,-3.2422,-3.223,-3.191,-3.191,-3.1717,-3.1377,-3.1396,-3.1671,-3.2019,-3.2038,-3.2294,-3.2625,-3.2625,-3.29,-3.323,-3.323,-3.3505,-3.3798,-3.3817,-3.3817,-3.3817,-3.3817,-3.3817,-3.3817,-3.3817,-3.3817,-3.3817,-3.3817,-3.3817,-3.3817,-3.3817,-3.3817,-3.3817,-3.3835,-3.4147,-3.4385,-3.4422,-3.477,-3.5174,-3.5577,-3.5632,-3.5797,-3.6182,-3.6201,-3.6367,-3.6738,-3.6812,-3.7181,-3.7936,-3.8009,-3.8228,-3.8574,-3.8574,-3.8574,-3.8574,-3.8574,-3.8574,-3.8574,-3.8574,-3.8574,-2.1487,0.0,0.0,0.0,0.0,0.0,-2.6523,-2.7357,-2.8377,-2.9911,-3.0504,-3.0997,-3.1671,-3.1851,-3.1974,-3.2102,-3.1699,-3.1377,-3.1377,-3.1377,-3.1506,-3.1717,-3.191,-3.2079,-3.2166,-3.2296,-3.237,-3.2207,-3.1875,-3.1699,-3.1699,-3.1406,-3.1191,-3.1074,-3.1055,-3.1055,-3.1055,-3.1055,-3.1328,-3.1875,-3.2187,-3.2559,-3.2988,-3.3281,-3.3418,-3.3418,-3.3418,-3.3355,-3.3228,-3.3228,-3.3228,-3.3102,-3.3102,-3.2804,-3.223,-3.223,-3.191,-3.1414,-3.1726,-3.1909,-3.2111,-3.2698,-3.2955,-3.3046,-3.3046,-3.3138,-3.323,-3.323,-3.3303,-3.345,-3.3743,-3.3817,-3.3817,-3.3817,-3.3817,-3.3817,-3.3817,-3.3817,-3.3817,-3.3817,-3.3817,-3.3817,-3.3817,-3.3817,-3.3908,-3.4202,-3.4092,-3.4183,-3.477,-3.4954,-3.5174,-3.5577,-3.587,-3.6091,-3.6201,-3.6201,-3.6293,-3.6349,-3.6886,-3.7329,-3.7568,-3.8136,-3.8501,-3.8574,-3.8574,-3.8574,-3.8574,-3.8574,-3.8574,-3.8574,-3.8574,-3.875,-2.1943,-2.221,-2.2867,-2.3008,0.0,0.0,-2.5644,-2.6387,-2.7312,-2.9269,-2.9987,-3.0567,-3.134,-3.1494,-3.1577,-3.181,-3.1664,-3.1577,-3.1616,-3.1506,-3.1506,-3.1846,-3.2038,-3.2143,-3.2291,-3.242,-3.2432,-3.2207,-3.1934,-3.1699,-3.1523,-3.1113,-3.0898,-3.0898,-3.0898,-3.0898,-3.0898,-3.0898,-3.1094,-3.1523,-3.1953,-3.2383,-3.2812,-3.3223,-3.3418,-3.3418,-3.3418,-3.3418,-3.3418,-3.3418,-3.3418,-3.3418,-3.3418,-3.3102,-3.2613,-3.2422,-3.2132,-3.1866,-3.1993,-3.2111,-3.2368,-3.301,-3.323,-3.323,-3.323,-3.323,-3.323,-3.323,-3.334,-3.3523,-3.3762,-3.3817,-3.3817,-3.3817,-3.3817,-3.3817,-3.3817,-3.3817,-3.3817,-3.3817,-3.3817,-3.3817,-3.3817,-3.3817,-3.3945,-3.4348,-3.4348,-3.455,-3.5192,-3.543,-3.5614,-3.5834,-3.6072,-3.6201,-3.6201,-3.6201,-3.6349,-3.6664,-3.696,-3.7402,-3.7843,-3.8209,-3.8428,-3.8574,-3.8574,-3.8652,-3.8828,-3.8652,-3.8672,-3.8828,-3.8828,-3.9062,-2.2725,-2.2571,0.0,-2.3555,-2.3184,0.0,-2.5449,-2.5996,-2.6621,-2.8711,-2.9473,-2.9964,-3.0643,-3.0796,-3.083,-3.091,-3.1304,-3.1671,-3.1899,-3.1717,-3.1635,-3.1974,-3.2294,-3.246,-3.2411,-3.2685,-3.2695,-3.2266,-3.2148,-3.1914,-3.1465,-3.1094,-3.0898,-3.0898,-3.0898,-3.0898,-3.0898,-3.0898,-3.1074,-3.1445,-3.1934,-3.2363,-3.2734,-3.3203,-3.3418,-3.3418,-3.3418,-3.3418,-3.3418,-3.3418,-3.3418,-3.3418,-3.3418,-3.3165,-3.2785,-3.2485,-3.2429,-3.2394,-3.2122,-3.2294,-3.2661,-3.3083,-3.323,-3.3211,-3.312,-3.312,-3.3156,-3.3156,-3.3468,-3.3817,-3.3817,-3.3817,-3.3817,-3.3817,-3.3817,-3.3817,-3.3817,-3.3817,-3.3817,-3.3817,-3.3817,-3.3817,-3.3817,-3.3853,-3.4018,-3.4403,-3.4788,-3.5192,-3.5632,-3.5944,-3.6164,-3.6201,-3.6201,-3.6201,-3.6201,-3.6201,-3.6516,-3.7274,-3.7034,-3.7402,-3.8501,-3.8228,-3.8228,-3.8574,-3.8613,-3.8828,-3.9199,-3.8828,-3.8867,-3.9277,-3.9277,-3.9531,-2.4062,-2.4088,-2.4151,-2.3506,-2.3418,0.0,-2.3301,-2.3535,-2.4316,-2.6113,-2.6836,-2.7598,-2.903,-2.937,-2.9583,-2.9831,-3.0082,-3.0653,-3.2086,-3.223,-3.2358,-3.2676,-3.274,-3.2892,-3.3175,-3.3238,-3.3125,-3.2695,-3.2031,-3.1465,-3.1035,-3.0937,-3.0898,-3.0898,-3.0898,-3.0898,-3.0898,-3.0898,-3.0937,-3.1016,-3.1797,-3.2207,-3.2324,-3.3066,-3.3418,-3.3418,-3.3418,-3.3418,-3.3418,-3.3418,-3.3418,-3.3418,-3.3418,-3.3038,-3.2485,-3.2422,-3.23,-3.2122,-3.2368,-3.2533,-3.2661,-3.3083,-3.323,-3.3101,-3.2441,-3.2459,-3.2716,-3.2716,-3.3248,-3.3817,-3.3817,-3.3817,-3.3817,-3.3817,-3.3817,-3.3817,-3.3817,-3.3817,-3.3817,-3.3817,-3.3817,-3.3817,-3.3817,-3.4073,-3.4422,-3.4844,-3.4972,-3.5284,-3.5999,-3.5889,-3.5852,-3.6182,-3.6201,-3.6201,-3.6201,-3.6201,-3.6442,-3.6886,-3.7107,-3.7568,-3.8082,-3.8355,-3.8501,-3.8574,-3.8906,-3.9121,-3.9199,-3.9121,-3.9316,-3.9766,-3.9766,-4.0,-2.5118,-2.4826,-2.4657,-2.4132,-2.3767,0.0,0.0,-2.3477,-2.3965,-2.5703,-2.5879,-2.6191,-2.7695,-2.7635,-2.7738,-2.8789,-2.9194,-2.9892,-3.1408,-3.1737,-3.1859,-3.2234,-3.2234,-3.2498,-3.3023,-3.3105,-3.3027,-3.2812,-3.2207,-3.166,-3.123,-3.1211,-3.1211,-3.1211,-3.1426,-3.1523,-3.1523,-3.1309,-3.1211,-3.1211,-3.1855,-3.2229,-3.2268,-3.3047,-3.3418,-3.3418,-3.3418,-3.3292,-3.3165,-3.3165,-3.3038,-3.2931,-3.3102,-3.2848,-3.2358,-3.223,-3.2301,-3.253,-3.26,-3.2588,-3.2661,-3.3083,-3.2955,-3.257,-3.2368,-3.2588,-3.2863,-3.2661,-3.3175,-3.3817,-3.3817,-3.3817,-3.3817,-3.3817,-3.3817,-3.3817,-3.3817,-3.3817,-3.3817,-3.3817,-3.3817,-3.3817,-3.3817,-3.4147,-3.455,-3.4972,-3.5192,-3.554,-3.6127,-3.6036,-3.5981,-3.6182,-3.6201,-3.6201,-3.6201,-3.6349,-3.6664,-3.7034,-3.7274,-3.7715,-3.8302,-3.8302,-3.8302,-3.8302,-3.8709,-3.8944,-3.8932,-3.937,-3.9754,-4.0215,-4.0215,-4.043,-2.6314,-2.5738,-2.5285,-2.498,-2.4283,-2.373,0.0,0.0,0.0,-2.5488,-2.5302,-2.5176,-2.6309,-2.5908,-2.5957,-2.7441,-2.8105,-2.8828,-2.998,-3.0411,-3.0765,-3.1392,-3.1549,-3.1864,-3.2519,-3.248,-3.2461,-3.2539,-3.207,-3.1699,-3.1523,-3.1523,-3.1523,-3.1523,-3.1855,-3.2012,-3.1934,-3.1582,-3.1406,-3.1406,-3.1914,-3.2229,-3.2268,-3.3047,-3.3418,-3.3418,-3.3355,-3.3165,-3.2912,-3.2867,-3.2613,-3.2358,-3.2676,-3.2613,-3.2294,-3.1974,-3.2367,-3.297,-3.2648,-3.2533,-3.2643,-3.29,-3.2496,-3.1983,-3.2441,-3.2826,-3.3046,-3.279,-3.3248,-3.3817,-3.3817,-3.3817,-3.3817,-3.3817,-3.3817,-3.3817,-3.3817,-3.3817,-3.3817,-3.3817,-3.3817,-3.3835,-3.3908,-3.4257,-3.466,-3.5082,-3.5485,-3.5852,-3.6164,-3.6201,-3.6201,-3.6201,-3.6201,-3.6201,-3.6201,-3.6516,-3.6886,-3.7255,-3.7255,-3.7623,-3.8355,-3.8082,-3.7901,-3.7977,-3.8399,-3.8651,-3.8861,-3.9644,-4.0164,-4.0491,-4.0568,-4.084,-2.802,-2.7702,-2.7142,-2.5769,-2.5425,-2.4914,-2.3144,0.0,-2.375,-2.3619,0.0,-2.4102,-2.4609,0.0,0.0,-2.5332,-2.6133,-2.6855,-2.7383,-2.813,-2.9186,-3.0801,-3.1308,-3.1542,-3.166,-3.1328,-3.1269,-3.1641,-3.0898,-3.0742,-3.1484,-3.1523,-3.1523,-3.1523,-3.1562,-3.1406,-3.1035,-3.0996,-3.0957,-3.0976,-3.1777,-3.2229,-3.2268,-3.3047,-3.3418,-3.3355,-3.3102,-3.2931,-3.2848,-3.2613,-3.223,-3.1993,-3.2358,-3.223,-3.191,-3.191,-3.2236,-3.2618,-3.2203,-3.2294,-3.2551,-3.2239,-3.1836,-3.1598,-3.2368,-3.2625,-3.2735,-3.3065,-3.3468,-3.3817,-3.3817,-3.3817,-3.3817,-3.3817,-3.3817,-3.3817,-3.3817,-3.3817,-3.3817,-3.3817,-3.3817,-3.3927,-3.4275,-3.4678,-3.51,-3.5485,-3.5889,-3.6164,-3.6201,-3.6201,-3.6201,-3.6201,-3.6201,-3.6201,-3.6201,-3.6201,-3.6442,-3.6812,-3.6886,-3.7034,-3.7476,-3.7495,-3.7666,-3.8026,-3.8444,-3.8861,-3.922,-4.0007,-4.0432,-4.051,-4.0938,-4.1133,-2.8519,-2.831,-2.7884,-2.646,-2.5875,-2.5245,-2.3633,-2.334,-2.3437,-2.3516,0.0,0.0,0.0,0.0,0.0,0.0,-2.5215,-2.5781,-2.6211,-2.6797,-2.7734,-2.9219,-2.9531,-2.9941,-3.0684,-3.084,-3.0957,-3.1133,-3.0566,-3.0488,-3.1113,-3.1621,-3.2012,-3.2246,-3.2266,-3.2168,-3.1992,-3.1504,-3.125,-3.1269,-3.1875,-3.2229,-3.2268,-3.3047,-3.3418,-3.3418,-3.3228,-3.3102,-3.2867,-3.2549,-3.2166,-3.191,-3.1846,-3.1699,-3.1607,-3.1866,-3.2243,-3.257,-3.2404,-3.2459,-3.2533,-3.2129,-3.2038,-3.2148,-3.2496,-3.2918,-3.3285,-3.3248,-3.3505,-3.3817,-3.3817,-3.3817,-3.3817,-3.3817,-3.3817,-3.3817,-3.3817,-3.3817,-3.389,-3.411,-3.4147,-3.4348,-3.5009,-3.5064,-3.5174,-3.5559,-3.5962,-3.6201,-3.6201,-3.6201,-3.6201,-3.6201,-3.6201,-3.6201,-3.6201,-3.6423,-3.659,-3.6812,-3.7034,-3.7107,-3.7034,-3.7481,-3.7689,-3.7634,-3.829,-3.8721,-3.8986,-3.9772,-4.0275,-4.0509,-4.0997,-4.1172,-2.8931,-2.8716,-2.8224,-2.6858,-2.611,-2.5323,-2.3926,-2.3555,-2.353,-2.3887,-2.3652,0.0,0.0,0.0,0.0,0.0,0.0,-2.5176,-2.5508,-2.5625,-2.6191,-2.7598,-2.7969,-2.8535,-2.957,-2.9766,-2.998,-3.0332,-2.9824,-2.9902,-3.084,-3.1582,-3.2187,-3.2617,-3.2617,-3.2559,-3.2441,-3.1719,-3.1348,-3.1348,-3.1894,-3.2229,-3.2268,-3.3047,-3.3418,-3.3418,-3.3292,-3.3102,-3.2867,-3.2549,-3.2166,-3.1864,-3.1653,-3.158,-3.1579,-3.1891,-3.2184,-3.2441,-3.2441,-3.2441,-3.2386,-3.2093,-3.2276,-3.2625,-3.2735,-3.3175,-3.3615,-3.3431,-3.3596,-3.3817,-3.3817,-3.3817,-3.3817,-3.3817,-3.3817,-3.3817,-3.3817,-3.3908,-3.4055,-3.4348,-3.4495,-3.4788,-3.5504,-3.5375,-3.532,-3.5724,-3.6017,-3.6201,-3.6201,-3.6201,-3.6201,-3.6201,-3.6201,-3.6201,-3.6201,-3.6442,-3.6664,-3.6664,-3.6886,-3.7016,-3.6831,-3.7334,-3.7671,-3.7592,-3.8109,-3.8539,-3.8825,-3.9534,-4.0137,-4.0509,-4.0997,-4.1172,-2.946,-2.9164,-2.8344,-2.6919,-2.6159,-2.5245,-2.351,-2.3744,-2.4375,-2.4394,-2.5011,-2.5596,-2.5615,0.0,0.0,0.0,0.0,0.0,0.0,-2.4394,-2.4512,-2.625,-2.7187,-2.7904,-2.832,-2.7617,-2.7656,-2.8887,-2.8223,-2.8672,-3.0781,-3.1309,-3.1738,-3.2168,-3.2187,-3.1992,-3.1562,-3.1133,-3.0918,-3.0918,-3.1758,-3.2229,-3.2268,-3.3047,-3.3418,-3.3355,-3.3058,-3.2912,-3.2867,-3.2549,-3.2166,-3.1929,-3.191,-3.1894,-3.1983,-3.2001,-3.2019,-3.2019,-3.2019,-3.2019,-3.2019,-3.2019,-3.2276,-3.268,-3.3083,-3.323,-3.3321,-3.3688,-3.3798,-3.3817,-3.3817,-3.3817,-3.3817,-3.3817,-3.3817,-3.3817,-3.3817,-3.411,-3.4385,-3.4403,-3.4733,-3.5137,-3.5559,-3.5614,-3.5742,-3.6127,-3.6201,-3.6201,-3.6201,-3.6201,-3.6201,-3.6201,-3.6201,-3.6201,-3.6201,-3.6201,-3.6201,-3.6201,-3.6201,-3.6384,-3.6806,-3.6824,-3.7191,-3.7961,-3.7998,-3.8453,-3.9254,-3.9666,-4.0137,-4.0509,-4.0997,-4.1172,-3.0106,-3.0053,-2.96,-2.799,-2.708,-2.6083,-2.4375,-2.4434,-2.4766,-2.4473,-2.5352,-2.6074,-2.5752,0.0,0.0,0.0,0.0,0.0,0.0,-2.332,-2.3379,-2.4531,-2.5684,-2.6562,-2.6992,-2.7031,-2.7305,-2.8027,-2.7832,-2.8413,-2.9941,-3.0703,-3.1426,-3.2209,-3.1894,-3.1816,-3.1953,-3.125,-3.0898,-3.0898,-3.1758,-3.2229,-3.2268,-3.3047,-3.3418,-3.3418,-3.3292,-3.3228,-3.3165,-3.2867,-3.2549,-3.223,-3.1993,-3.1912,-3.2038,-3.2294,-3.2404,-3.2404,-3.2404,-3.2404,-3.2441,-3.2716,-3.29,-3.3083,-3.3486,-3.3615,-3.3651,-3.378,-3.3817,-3.3817,-3.3817,-3.3817,-3.3817,-3.3817,-3.3817,-3.389,-3.4147,-3.4312,-3.4568,-3.51,-3.532,-3.554,-3.5944,-3.6017,-3.6054,-3.6182,-3.6201,-3.6201,-3.6201,-3.6201,-3.6201,-3.6201,-3.6201,-3.6201,-3.6201,-3.6201,-3.6201,-3.6201,-3.6476,-3.6567,-3.6421,-3.6934,-3.7356,-3.7613,-3.7888,-3.8531,-3.9666,-3.9823,-4.0294,-4.0997,-4.1094,-4.1172,-3.0238,-3.027,-2.9928,-2.8648,-2.7885,-2.7051,-2.5469,-2.5566,-2.6006,-2.582,-2.6465,-2.7109,-2.7285,0.0,0.0,0.0,0.0,0.0,0.0,-2.2852,-2.3125,-2.3516,-2.457,-2.5508,-2.6094,-2.6113,-2.6406,-2.7148,-2.707,-2.7598,-2.9043,-3.0098,-3.1035,-3.1914,-3.166,-3.1719,-3.2229,-3.1328,-3.0898,-3.0898,-3.1758,-3.2229,-3.2268,-3.3047,-3.3418,-3.3418,-3.3418,-3.3418,-3.3355,-3.3038,-3.2676,-3.2358,-3.2038,-3.2069,-3.2239,-3.2496,-3.2698,-3.279,-3.2643,-3.2698,-3.2863,-3.3138,-3.3321,-3.3486,-3.3743,-3.3817,-3.3817,-3.3817,-3.3817,-3.3817,-3.3817,-3.3817,-3.3817,-3.3817,-3.3927,-3.4092,-3.4348,-3.4623,-3.499,-3.5522,-3.5724,-3.5907,-3.6164,-3.6201,-3.6201,-3.6201,-3.6201,-3.6201,-3.6201,-3.6201,-3.6201,-3.6201,-3.6201,-3.6201,-3.6201,-3.6201,-3.6274,-3.6421,-3.6549,-3.6622,-3.6641,-3.7007,-3.7283,-3.7429,-3.7668,-3.8331,-3.9466,-3.9466,-4.0008,-4.0937,-4.0937,-4.1035]},{"header":{"parameterUnit":"m.s-1","parameterCategory":1,"la1":30.6,"la2":29.2853,"lo1":-89.7004,"lo2":-87.6739,"dy":0.0162,"dx":0.0183,"nx":112,"ny":82,"refTime":"2026-04-09T12:00:00:Z","depth":0,"parameterNumber":3,"parameterNumberName":"V-component_of_WINDS"},"data":[0.0,0.0,0.0,0.0,0.0,0.0,0.0,0.0,0.0,0.0,0.0,0.0,0.0,0.0,0.0,0.0,0.0,0.0,0.0,0.0,0.0,0.0,0.0,0.0,0.0,0.0,0.0,0.0,0.0,0.0,0.0,0.0,0.0,0.0,0.0,0.0,0.0,0.0,0.0,0.0,0.0,0.0,0.0,0.0,0.0,0.0,0.0,0.0,0.0,0.0,0.0,0.0,0.0,0.0,0.0,0.0,0.0,0.0,0.0,0.0,0.0,0.0,0.0,0.0,0.0,0.0,0.0,0.0,0.0,0.0,0.0,0.0,0.0,0.0,0.0,0.0,0.0,0.0,0.0,0.0,0.0,0.0,0.0,0.0,0.0,0.0,0.0,0.0,0.0,0.0,3.0321,3.2477,3.4928,3.6223,3.5823,3.5084,3.3083,2.9224,0.0,0.0,0.0,0.0,0.0,0.0,0.0,0.0,0.0,0.0,0.0,0.0,0.0,0.0,0.0,0.0,0.0,0.0,0.0,0.0,0.0,0.0,0.0,0.0,0.0,0.0,0.0,0.0,0.0,0.0,0.0,0.0,0.0,0.0,0.0,0.0,0.0,0.0,0.0,0.0,0.0,0.0,0.0,0.0,0.0,0.0,0.0,0.0,0.0,0.0,0.0,0.0,0.0,0.0,0.0,0.0,0.0,0.0,0.0,0.0,0.0,0.0,0.0,0.0,0.0,0.0,0.0,0.0,0.0,0.0,0.0,0.0,0.0,0.0,0.0,0.0,0.0,0.0,0.0,0.0,0.0,0.0,0.0,0.0,0.0,0.0,0.0,0.0,0.0,0.0,0.0,0.0,0.0,0.0,0.0,0.0,0.0,0.0,0.0,0.0,0.0,0.0,0.0,0.0,2.9825,3.3704,3.5119,3.5685,3.5264,3.4336,3.2671,3.0051,0.0,0.0,0.0,0.0,0.0,0.0,0.0,0.0,0.0,0.0,0.0,0.0,0.0,0.0,0.0,0.0,0.0,0.0,0.0,0.0,0.0,0.0,0.0,0.0,0.0,0.0,0.0,0.0,0.0,0.0,0.0,0.0,0.0,0.0,0.0,0.0,0.0,0.0,0.0,0.0,0.0,0.0,0.0,0.0,0.0,0.0,0.0,0.0,0.0,0.0,0.0,0.0,0.0,0.0,0.0,0.0,0.0,0.0,0.0,0.0,0.0,0.0,0.0,0.0,0.0,0.0,0.0,0.0,0.0,0.0,0.0,0.0,0.0,0.0,0.0,0.0,0.0,0.0,0.0,0.0,0.0,0.0,0.0,0.0,0.0,0.0,0.0,0.0,0.0,0.0,0.0,0.0,0.0,0.0,0.0,0.0,0.0,0.0,0.0,0.0,0.0,0.0,0.0,3.0904,3.2707,3.6417,3.7114,3.7298,3.7123,3.5903,3.3971,3.1247,2.9988,0.0,0.0,0.0,0.0,0.0,0.0,0.0,0.0,0.0,0.0,0.0,0.0,0.0,0.0,0.0,0.0,0.0,0.0,0.0,0.0,0.0,0.0,0.0,0.0,0.0,0.0,0.0,0.0,0.0,0.0,0.0,0.0,0.0,0.0,0.0,0.0,0.0,0.0,0.0,0.0,0.0,0.0,0.0,0.0,0.0,0.0,0.0,0.0,0.0,0.0,0.0,0.0,0.0,0.0,0.0,0.0,0.0,0.0,0.0,0.0,0.0,0.0,0.0,0.0,0.0,0.0,0.0,0.0,0.0,0.0,0.0,0.0,0.0,0.0,0.0,0.0,0.0,0.0,0.0,0.0,0.0,0.0,0.0,0.0,0.0,0.0,0.0,0.0,0.0,0.0,0.0,0.0,0.0,0.0,0.0,0.0,0.0,0.0,0.0,0.0,0.0,0.0,3.4293,3.579,3.8495,3.8785,3.8785,3.8785,3.707,3.4941,3.2488,3.062,0.0,0.0,0.0,0.0,0.0,0.0,0.0,0.0,0.0,0.0,0.0,0.0,0.0,0.0,0.0,0.0,0.0,0.0,0.0,0.0,0.0,0.0,0.0,0.0,0.0,0.0,0.0,0.0,0.0,0.0,0.0,0.0,0.0,0.0,0.0,0.0,0.0,0.0,0.0,0.0,0.0,0.0,0.0,0.0,0.0,0.0,0.0,0.0,0.0,0.0,0.0,0.0,0.0,0.0,0.0,0.0,0.0,0.0,0.0,0.0,0.0,0.0,0.0,0.0,0.0,0.0,0.0,0.0,0.0,0.0,0.0,0.0,0.0,0.0,0.0,0.0,0.0,0.0,0.0,0.0,0.0,0.0,0.0,0.0,0.0,0.0,0.0,0.0,0.0,0.0,0.0,0.0,0.0,0.0,0.0,0.0,0.0,0.0,0.0,0.0,0.0,0.0,3.4988,3.7437,3.8662,3.8785,3.8785,3.8785,3.6358,3.4475,3.3608,3.016,0.0,0.0,0.0,0.0,0.0,0.0,0.0,0.0,0.0,0.0,0.0,0.0,0.0,0.0,0.0,0.0,0.0,0.0,0.0,0.0,0.0,0.0,0.0,0.0,0.0,0.0,0.0,0.0,0.0,0.0,0.0,0.0,0.0,0.0,0.0,0.0,0.0,0.0,0.0,0.0,0.0,0.0,0.0,0.0,0.0,0.0,0.0,0.0,0.0,0.0,0.0,0.0,0.0,0.0,0.0,0.0,0.0,0.0,0.0,0.0,0.0,0.0,0.0,0.0,0.0,0.0,0.0,0.0,0.0,0.0,0.0,0.0,0.0,0.0,0.0,0.0,0.0,0.0,0.0,0.0,0.0,0.0,0.0,0.0,0.0,0.0,0.0,0.0,0.0,0.0,0.0,0.0,0.0,0.0,0.0,0.0,0.0,0.0,0.0,0.0,0.0,0.0,3.4342,3.6579,3.8567,3.8788,3.8641,3.8322,3.6726,3.4887,3.2955,0.0,0.0,0.0,0.0,0.0,0.0,0.0,0.0,0.0,0.0,0.0,0.0,0.0,0.0,0.0,0.0,0.0,0.0,0.0,0.0,0.0,0.0,0.0,0.0,0.0,0.0,0.0,0.0,0.0,0.0,0.0,0.0,0.0,0.0,0.0,0.0,0.0,0.0,0.0,0.0,0.0,0.0,0.0,0.0,0.0,0.0,0.0,0.0,0.0,0.0,0.0,0.0,0.0,0.0,0.0,0.0,0.0,0.0,0.0,0.0,0.0,0.0,0.0,0.0,0.0,0.0,0.0,0.0,0.0,0.0,0.0,0.0,0.0,0.0,0.0,0.0,0.0,0.0,0.0,0.0,0.0,0.0,0.0,0.0,0.0,0.0,0.0,0.0,0.0,0.0,0.0,0.0,0.0,0.0,0.0,0.0,0.0,0.0,0.0,0.0,0.0,0.0,3.2235,3.4474,3.6701,3.8879,3.9102,3.8953,3.8582,3.7023,3.5145,3.2832,0.0,0.0,0.0,0.0,0.0,0.0,0.0,0.0,0.0,0.0,0.0,0.0,0.0,0.0,0.0,0.0,0.0,0.0,0.0,0.0,0.0,0.0,0.0,0.0,0.0,0.0,0.0,0.0,0.0,0.0,0.0,0.0,0.0,0.0,0.0,0.0,0.0,0.0,0.0,0.0,0.0,0.0,0.0,0.0,0.0,0.0,0.0,0.0,0.0,0.0,0.0,0.0,0.0,0.0,0.0,0.0,0.0,0.0,0.0,0.0,0.0,0.0,0.0,0.0,0.0,0.0,0.0,0.0,0.0,0.0,0.0,0.0,0.0,0.0,0.0,0.0,0.0,0.0,0.0,0.0,0.0,0.0,0.0,0.0,0.0,0.0,0.0,0.0,0.0,0.0,0.0,0.0,0.0,0.0,0.0,0.0,0.0,0.0,0.0,0.0,0.0,0.0,3.266,3.5862,3.8442,3.9572,3.9697,3.9697,3.9697,3.7113,3.4986,0.0,0.0,0.0,0.0,0.0,0.0,0.0,0.0,0.0,0.0,0.0,0.0,0.0,0.0,0.0,0.0,0.0,0.0,0.0,0.0,0.0,0.0,0.0,0.0,0.0,0.0,0.0,0.0,0.0,0.0,0.0,0.0,0.0,0.0,0.0,0.0,0.0,0.0,0.0,0.0,0.0,0.0,0.0,0.0,0.0,0.0,0.0,0.0,0.0,0.0,0.0,0.0,0.0,0.0,0.0,0.0,0.0,0.0,0.0,0.0,0.0,0.0,0.0,0.0,0.0,0.0,0.0,0.0,0.0,0.0,0.0,0.0,0.0,0.0,0.0,0.0,0.0,0.0,0.0,0.0,0.0,0.0,0.0,0.0,0.0,0.0,0.0,0.0,0.0,0.0,0.0,0.0,0.0,0.0,0.0,0.0,0.0,0.0,0.0,0.0,0.0,0.0,0.0,3.291,3.6509,3.9184,3.9674,3.9697,3.9546,3.9145,3.7638,3.5357,3.2231,0.0,0.0,0.0,0.0,0.0,0.0,0.0,0.0,0.0,0.0,0.0,0.0,0.0,0.0,0.0,0.0,0.0,0.0,0.0,0.0,0.0,0.0,0.0,0.0,0.0,0.0,0.0,0.0,0.0,0.0,0.0,0.0,0.0,0.0,0.0,0.0,0.0,0.0,0.0,0.0,0.0,0.0,0.0,0.0,0.0,0.0,0.0,0.0,0.0,0.0,0.0,0.0,0.0,0.0,0.0,0.0,0.0,0.0,0.0,0.0,0.0,0.0,0.0,0.0,0.0,0.0,0.0,0.0,0.0,0.0,0.0,0.0,0.0,0.0,0.0,0.0,0.0,0.0,0.0,0.0,0.0,0.0,0.0,0.0,0.0,0.0,0.0,0.0,0.0,0.0,0.0,0.0,0.0,0.0,0.0,0.0,0.0,0.0,0.0,0.0,0.0,0.0,3.3929,3.7577,4.0276,4.0891,4.0945,4.0711,4.0091,3.9258,3.7105,3.329,0.0,0.0,0.0,0.0,0.0,0.0,0.0,0.0,0.0,0.0,0.0,0.0,0.0,0.0,0.0,0.0,0.0,0.0,0.0,0.0,0.0,0.0,0.0,0.0,0.0,0.0,0.0,0.0,0.0,0.0,0.0,0.0,0.0,0.0,0.0,0.0,0.0,0.0,0.0,0.0,0.0,0.0,0.0,0.0,0.0,0.0,0.0,0.0,0.0,0.0,0.0,0.0,0.0,0.0,0.0,0.0,0.0,0.0,0.0,0.0,0.0,0.0,0.0,0.0,0.0,0.0,0.0,0.0,0.0,0.0,0.0,0.0,0.0,0.0,0.0,0.0,0.0,0.0,0.0,0.0,0.0,0.0,0.0,0.0,0.0,0.0,0.0,0.0,0.0,0.0,0.0,0.0,0.0,0.0,0.0,0.0,0.0,0.0,0.0,0.0,0.0,0.0,3.5384,3.8863,4.1556,4.2656,4.2792,4.2548,4.1876,4.1354,3.9526,3.5886,0.0,0.0,0.0,0.0,0.0,0.0,0.0,0.0,0.0,0.0,0.0,0.0,0.0,0.0,0.0,0.0,0.0,0.0,0.0,0.0,0.0,0.0,0.0,0.0,0.0,0.0,0.0,0.0,0.0,0.0,0.0,0.0,0.0,0.0,0.0,0.0,0.0,0.0,0.0,0.0,0.0,0.0,0.0,0.0,0.0,0.0,0.0,0.0,0.0,0.0,0.0,0.0,0.0,0.0,0.0,0.0,0.0,0.0,0.0,0.0,4.1912,3.9929,0.0,0.0,0.0,0.0,0.0,0.0,0.0,0.0,0.0,0.0,0.0,0.0,0.0,0.0,0.0,0.0,0.0,0.0,0.0,0.0,0.0,0.0,0.0,0.0,0.0,0.0,0.0,0.0,0.0,0.0,0.0,0.0,0.0,0.0,0.0,0.0,0.0,0.0,0.0,0.0,3.5449,3.9529,4.2453,4.2753,4.2792,4.2569,4.2085,4.1532,3.9782,3.6448,3.4376,0.0,0.0,0.0,0.0,0.0,0.0,0.0,0.0,0.0,0.0,0.0,0.0,0.0,0.0,0.0,0.0,0.0,0.0,0.0,0.0,0.0,0.0,0.0,0.0,0.0,0.0,0.0,0.0,0.0,0.0,0.0,0.0,0.0,0.0,0.0,0.0,0.0,0.0,0.0,0.0,0.0,0.0,0.0,0.0,0.0,0.0,0.0,0.0,0.0,0.0,0.0,0.0,0.0,0.0,0.0,0.0,0.0,0.0,0.0,4.5035,4.3016,0.0,0.0,0.0,0.0,0.0,0.0,0.0,0.0,0.0,0.0,0.0,0.0,0.0,0.0,0.0,0.0,0.0,0.0,0.0,0.0,0.0,0.0,0.0,0.0,0.0,0.0,0.0,0.0,0.0,0.0,0.0,0.0,0.0,0.0,0.0,0.0,0.0,0.0,0.0,0.0,3.7317,4.1149,4.3874,4.4542,4.4638,4.427,4.3397,4.3073,4.1625,3.8703,3.6466,0.0,0.0,0.0,0.0,0.0,0.0,0.0,0.0,0.0,0.0,0.0,0.0,0.0,0.0,0.0,0.0,0.0,0.0,0.0,0.0,0.0,0.0,0.0,0.0,0.0,0.0,0.0,0.0,0.0,0.0,0.0,0.0,0.0,0.0,0.0,0.0,0.0,0.0,0.0,0.0,0.0,0.0,0.0,0.0,0.0,0.0,0.0,0.0,0.0,0.0,0.0,0.0,0.0,5.0707,5.1439,5.2576,5.2336,5.2306,5.2199,4.8967,4.7155,4.6423,4.4531,0.0,0.0,0.0,0.0,0.0,0.0,0.0,0.0,0.0,0.0,0.0,0.0,0.0,0.0,0.0,0.0,0.0,0.0,0.0,0.0,0.0,0.0,4.0576,4.1115,4.1983,4.1765,3.8192,0.0,0.0,0.0,0.0,0.0,0.0,0.0,0.0,0.0,0.0,0.0,3.9239,4.2581,4.5089,4.6137,4.6373,4.5902,4.4617,4.4499,4.3537,4.1222,3.8889,3.6758,0.0,0.0,0.0,0.0,0.0,0.0,0.0,0.0,0.0,0.0,0.0,0.0,0.0,0.0,0.0,0.0,0.0,0.0,0.0,0.0,0.0,0.0,0.0,0.0,0.0,0.0,0.0,0.0,0.0,0.0,0.0,0.0,4.3632,4.4322,0.0,0.0,0.0,0.0,0.0,0.0,0.0,0.0,0.0,0.0,0.0,0.0,0.0,4.9269,5.0524,5.2318,5.3634,5.4431,5.6137,5.7334,5.8022,5.6855,5.6645,5.7124,5.5487,0.0,4.8805,4.7924,0.0,0.0,0.0,0.0,0.0,0.0,0.0,0.0,0.0,0.0,0.0,0.0,0.0,0.0,0.0,0.0,0.0,0.0,0.0,0.0,0.0,0.0,4.4526,4.4616,4.4347,4.3858,4.331,4.0054,3.6735,3.5175,3.4012,3.2763,0.0,0.0,0.0,0.0,0.0,0.0,3.8686,4.2475,4.4904,4.487,4.54,4.5266,4.4146,4.4098,4.3556,4.2273,4.0793,3.9281,3.7712,3.5218,0.0,0.0,0.0,0.0,0.0,0.0,0.0,0.0,0.0,0.0,0.0,0.0,0.0,0.0,0.0,0.0,0.0,0.0,0.0,0.0,0.0,0.0,0.0,0.0,0.0,0.0,0.0,0.0,0.0,4.3991,4.556,4.5084,4.5769,4.556,0.0,0.0,0.0,0.0,0.0,0.0,0.0,0.0,0.0,5.1947,5.2396,5.3331,5.4769,5.6062,5.6895,5.7372,5.8195,5.913,6.018,5.9161,5.907,5.9643,5.8708,5.6768,5.402,5.152,4.9314,4.7339,0.0,0.0,0.0,0.0,4.4018,4.3826,4.618,4.6357,4.5603,4.5884,0.0,0.0,0.0,0.0,0.0,0.0,0.0,4.2532,4.4346,4.5618,4.6659,4.7835,4.7513,4.6864,4.6471,4.4087,4.1295,3.8686,3.7361,3.5929,3.345,3.2377,0.0,0.0,0.0,3.758,3.9966,4.2803,4.4721,4.4953,4.528,4.5114,4.4244,4.4154,4.3807,4.297,4.2013,4.1085,4.0054,3.7814,3.5627,0.0,0.0,0.0,0.0,0.0,0.0,0.0,0.0,0.0,0.0,0.0,0.0,0.0,0.0,0.0,0.0,0.0,0.0,0.0,0.0,0.0,0.0,0.0,0.0,0.0,0.0,0.0,0.0,4.6147,4.7818,4.6471,4.8471,4.8752,0.0,0.0,0.0,0.0,0.0,0.0,5.2429,5.2826,5.4202,5.669,5.7239,5.8165,5.9512,5.9753,6.0067,6.0429,6.0144,6.0555,6.1497,6.1096,6.1049,6.1378,6.0936,6.0229,5.8978,5.4861,5.2124,5.029,4.8263,4.7232,4.691,4.7593,4.7904,4.8337,5.0849,5.1263,5.0658,5.066,4.9571,4.7773,4.5074,0.0,0.0,0.0,0.0,4.5522,4.7934,4.8445,4.8718,5.0203,5.0226,4.9608,4.8487,4.738,4.5606,4.2174,4.0643,3.908,3.6447,3.5215,0.0,3.54,3.6943,3.8817,4.1115,4.309,4.4436,4.4766,4.4945,4.4766,4.4107,4.4037,4.3828,4.3319,4.288,4.2351,4.1692,4.0038,3.8153,3.6028,0.0,0.0,0.0,0.0,0.0,0.0,0.0,0.0,0.0,0.0,0.0,0.0,0.0,0.0,0.0,0.0,0.0,0.0,0.0,0.0,0.0,0.0,0.0,0.0,0.0,0.0,0.0,0.0,0.0,4.9269,5.2246,0.0,0.0,0.0,0.0,5.3195,5.5154,5.7032,5.8683,5.9987,6.1673,6.3644,6.374,6.4075,6.481,6.3846,6.3651,6.4306,6.3268,6.2809,6.2809,6.3185,6.3007,6.2467,6.2738,6.2796,6.2396,5.7752,5.5007,5.358,5.1547,5.0874,5.0996,5.1069,5.1218,5.1545,5.23,5.2155,5.1816,5.3014,5.2059,5.0311,4.948,4.8361,0.0,0.0,4.8808,4.9603,5.1045,5.1385,5.1374,5.1267,5.1837,5.1769,4.9457,4.9057,4.8199,4.5092,4.2767,4.1025,4.0247,0.0,3.8153,3.8182,3.9379,4.0516,4.1294,4.309,4.4077,4.3469,4.3947,4.4107,4.3409,4.3349,4.3319,4.329,4.326,4.3,4.2381,4.1662,4.0008,3.7375,3.537,0.0,0.0,0.0,0.0,0.0,0.0,0.0,0.0,0.0,0.0,0.0,0.0,0.0,0.0,0.0,0.0,0.0,0.0,0.0,0.0,0.0,0.0,0.0,0.0,0.0,0.0,0.0,0.0,5.2902,5.5097,0.0,5.4926,5.4775,5.5172,5.621,5.871,6.0661,6.167,6.3051,6.4351,6.544,6.5472,6.565,6.6088,6.5738,6.5541,6.55,6.5097,6.4894,6.4811,6.4516,6.4267,6.393,6.3661,6.2924,6.1789,6.0313,5.8953,5.7633,5.6041,5.5189,5.4857,5.5027,5.5409,5.5956,5.6449,5.6421,5.6146,5.5786,5.4546,5.3119,5.2888,5.2157,5.1592,5.2326,5.2657,5.3154,5.4582,5.4543,5.4213,5.4619,5.4179,5.3343,5.1995,5.1296,5.0444,4.8842,4.5951,4.318,4.152,4.0828,4.019,3.917,4.0187,4.1265,4.1961,4.3,4.3559,4.3319,4.3499,4.3559,4.3319,4.294,4.2701,4.2701,4.2701,4.2402,4.1782,4.1542,4.0546,3.8721,3.7165,3.4741,0.0,0.0,0.0,0.0,0.0,0.0,0.0,0.0,0.0,0.0,0.0,0.0,0.0,0.0,0.0,0.0,0.0,0.0,0.0,0.0,0.0,0.0,0.0,0.0,0.0,5.2471,5.5453,5.6013,5.8546,5.9744,5.8542,5.9332,6.009,6.0619,6.3166,6.491,6.5493,6.6591,6.7474,6.7883,6.7915,6.8012,6.819,6.7851,6.7492,6.7229,6.6891,6.6436,6.5902,6.5831,6.5484,6.4994,6.4859,6.4185,6.3145,6.2802,6.2202,6.1273,5.897,5.799,5.7868,5.7776,5.8377,5.9234,5.9232,5.9031,5.8608,5.753,5.6494,5.5683,5.5683,5.5378,5.5074,5.5581,5.5683,5.5919,5.69,5.6774,5.6358,5.652,5.6024,5.5089,5.3519,5.2941,5.2362,5.1081,4.8471,4.6044,4.4538,4.4136,4.3427,4.1808,4.2416,4.3008,4.2866,4.3208,4.3438,4.3438,4.3329,4.329,4.329,4.2731,4.241,4.241,4.1991,4.1542,4.1055,4.0846,4.0187,3.908,3.7315,3.5011,3.2138,0.0,0.0,0.0,0.0,0.0,0.0,0.0,0.0,0.0,0.0,0.0,0.0,0.0,0.0,0.0,0.0,0.0,0.0,0.0,0.0,0.0,0.0,0.0,5.1192,5.5363,5.8363,5.861,6.2561,6.4496,6.2635,6.5393,6.7097,6.6608,6.856,6.9939,7.0195,7.0906,7.1312,7.1312,7.1312,7.1312,7.1312,7.0296,6.9713,6.9713,6.8699,6.7426,6.6031,6.7062,6.6763,6.5382,6.6397,6.677,6.6669,6.5222,6.4613,6.4139,6.0252,5.9222,5.986,5.9172,5.9962,6.1197,6.0385,5.9641,5.8896,5.8118,5.7881,5.7881,5.7881,5.7881,5.7881,5.7881,5.7881,5.7881,5.7881,5.7881,5.7698,5.6844,5.7293,5.704,5.3928,5.394,5.3886,5.1592,5.0268,4.9491,4.9422,4.8844,4.7877,4.6233,4.614,0.0,4.3992,4.3784,4.3784,4.3714,4.3518,4.3329,4.3329,4.277,4.2351,4.2351,4.1123,4.0367,4.0337,3.9738,3.911,3.8427,3.5851,3.3575,3.1629,0.0,0.0,0.0,0.0,0.0,0.0,0.0,0.0,0.0,0.0,0.0,0.0,0.0,0.0,0.0,0.0,0.0,0.0,0.0,0.0,0.0,5.3071,5.5856,5.5176,5.8183,6.1244,6.3473,6.5302,6.664,6.7409,6.7285,6.7433,6.8045,6.9343,7.0151,7.0195,7.0906,7.1312,7.1312,7.1312,7.1312,7.1312,7.1007,7.087,7.087,7.0561,6.9654,6.8216,6.8517,6.7843,6.6397,6.6686,6.6397,6.5701,6.5514,6.4648,6.3391,6.1922,6.1528,6.1688,6.1492,6.134,6.1197,6.0385,5.9641,5.8896,5.8118,5.7881,5.7881,5.7881,5.7881,5.7881,5.7881,5.7881,5.7881,5.7881,5.7881,5.7845,5.7591,5.7735,5.7367,5.5451,5.5188,5.4892,5.3171,5.2598,5.1777,4.9928,4.9447,4.8983,4.7872,4.7776,4.7225,4.5694,4.5978,4.5641,4.3892,4.4082,4.4159,4.3636,4.2543,4.1776,4.1442,4.0529,3.9833,3.938,3.9622,3.9471,3.8836,3.6209,3.4575,0.0,0.0,0.0,0.0,0.0,0.0,0.0,0.0,0.0,0.0,0.0,0.0,0.0,0.0,0.0,0.0,0.0,0.0,0.0,0.0,0.0,0.0,5.6756,5.9671,6.065,6.2255,6.4244,6.6573,6.7558,6.8498,6.9546,6.9185,6.8997,6.9299,7.0185,7.0669,7.0669,7.1075,7.1312,7.1312,7.1312,7.1312,7.1312,7.1312,7.1312,7.1312,7.1007,7.0229,6.9079,6.8741,6.7963,6.6812,6.6812,6.6482,6.5908,6.5758,6.4933,6.3668,0.0,0.0,0.0,0.0,6.211,6.1637,6.0858,6.0114,5.9336,5.8592,5.8152,5.7881,5.7881,5.7881,5.7881,5.7881,5.7881,5.7881,5.7881,5.7881,5.7881,5.7881,5.7881,5.7476,5.6021,5.5681,5.5277,5.3788,5.3518,0.0,5.1536,5.1295,5.0854,4.9603,4.9538,4.9026,4.7442,4.7349,4.6884,4.5503,4.5346,4.5227,4.4774,4.3499,0.0,0.0,0.0,3.9409,3.8223,3.8493,0.0,0.0,0.0,0.0,0.0,0.0,0.0,0.0,3.3425,3.3365,0.0,0.0,0.0,0.0,0.0,0.0,0.0,0.0,0.0,0.0,0.0,0.0,0.0,0.0,0.0,0.0,5.9825,6.2575,6.6044,6.6623,6.7087,6.835,6.9379,6.9985,6.9985,7.0771,7.1041,7.0364,7.0939,7.1312,7.1312,7.1312,0.0,0.0,0.0,7.1312,7.1312,7.1312,7.1278,7.1176,7.05,6.9755,6.8944,6.8233,6.7489,6.6812,6.6812,6.6812,6.6779,6.6102,6.5324,6.4512,6.37,6.299,6.2381,6.2381,6.2381,6.2279,6.1569,0.0,0.0,5.9268,5.8626,5.8118,5.8051,5.8017,5.8017,5.8017,5.7949,5.7881,5.7881,5.7881,5.7881,5.7881,5.7881,5.7476,5.6021,5.5681,5.5277,5.3788,5.3518,5.3518,5.3518,5.3518,5.2977,5.1451,5.135,5.0843,4.9073,4.845,4.7961,4.7523,4.6901,0.0,4.6276,4.5024,4.3984,4.3333,4.1415,3.9492,3.7732,3.748,3.7416,3.7416,3.7319,3.7623,3.8302,3.8293,3.8485,3.8719,3.5339,3.4729,0.0,0.0,0.0,0.0,0.0,0.0,0.0,0.0,0.0,0.0,0.0,0.0,0.0,0.0,0.0,5.9873,6.3283,6.5875,6.6627,6.8316,6.9522,6.9792,7.0546,7.0985,7.0985,7.1199,7.1244,7.1109,7.1244,7.1312,7.1312,7.1312,7.1312,7.1312,7.1312,7.1312,7.1312,7.1312,7.1007,7.0398,7.0263,0.0,6.8132,6.7963,6.7489,6.6812,6.6812,6.6812,6.6812,6.6643,6.5797,6.4478,6.3125,6.2516,6.2381,6.2381,6.2381,6.2279,6.1569,6.1197,6.0858,5.9471,5.9302,5.9573,5.8964,5.8795,0.0,5.8795,5.8355,5.7881,5.7881,5.7881,5.7881,5.7881,5.7881,5.7476,5.6021,5.5681,5.5277,5.3788,5.3518,5.3518,5.3518,5.3518,5.3382,5.3078,5.3045,5.2269,5.0117,5.0759,5.0191,4.7044,4.7621,4.7756,4.655,4.5711,4.5005,4.4491,4.2977,4.1914,4.1531,4.042,3.9815,3.9815,3.9292,3.9387,4.0101,4.0034,4.0625,4.1801,3.9287,3.8305,0.0,0.0,0.0,0.0,0.0,0.0,0.0,0.0,0.0,0.0,0.0,5.4316,5.6587,0.0,6.0644,6.2959,6.5317,6.7083,6.7861,6.9248,7.0195,7.0195,7.0838,7.1312,7.1312,7.1312,7.1312,7.1312,7.1312,7.1312,7.1312,7.1312,7.1312,7.1312,7.1312,7.1142,7.0737,7.0737,7.0364,6.962,6.9248,6.8639,6.7895,6.7523,6.7151,6.6812,6.6812,6.6812,6.6745,6.6,6.5256,6.4444,6.2956,6.2381,6.2381,6.2381,6.2381,6.2347,6.1975,6.1603,6.1129,5.9945,5.9573,5.9471,5.9133,5.8761,5.8524,5.8896,5.8457,5.7881,5.7881,5.7881,5.7881,5.7881,5.7881,5.7476,5.6021,5.5681,5.5277,5.3788,5.3518,5.3518,5.3518,5.3518,5.3518,5.3518,5.3179,5.2471,5.133,5.1225,5.0453,4.8498,4.8628,4.856,4.7836,4.6783,4.593,4.5339,4.4299,4.3555,4.3197,4.2526,4.2142,4.2142,4.1458,4.1615,4.2687,4.2309,4.2687,4.3745,4.2927,4.2,0.0,0.0,0.0,0.0,0.0,0.0,0.0,5.294,5.3327,5.602,5.7275,5.8694,6.1234,6.2318,6.3505,6.5595,6.6677,6.7624,6.8707,6.962,7.0128,6.9992,7.0635,7.1109,7.1109,7.1109,7.1142,7.1312,7.1312,7.1312,7.1312,7.1312,7.1244,7.1109,7.1109,7.0737,6.9992,6.9992,6.9586,6.8876,6.8199,6.7827,6.7658,6.7083,6.6812,6.6812,6.6812,6.6745,6.6474,6.5155,6.4512,6.4241,6.2922,6.2381,6.2381,6.2381,6.2381,6.2381,6.2381,6.2009,6.1366,6.0588,5.9945,5.9438,5.9268,5.8693,5.822,5.8829,5.8457,5.7881,5.7881,5.7881,5.7881,5.7881,5.7881,5.7476,5.6021,5.5681,5.5277,5.3788,5.3518,5.3518,5.3518,5.3518,5.3518,5.3518,5.2807,5.2266,5.2097,5.1048,5.0202,4.9898,4.9492,4.9154,4.9018,4.7977,4.7028,4.6462,4.576,4.5177,4.4619,4.4329,4.42,4.42,4.3619,4.3939,4.5212,4.4611,4.4675,4.5408,4.5958,4.5147,4.6578,4.7126,4.8851,5.0462,5.2043,5.4301,0.0,5.9678,6.0141,6.1356,6.2713,6.3795,6.4133,6.4776,6.5628,6.6542,6.7895,6.8639,6.8098,6.9282,6.9958,6.9316,6.9857,7.0297,7.0297,7.0297,7.0601,7.1278,7.1312,7.1312,7.1312,7.1312,7.1007,7.0331,7.0297,6.9958,6.9214,6.9214,6.8808,6.803,6.7929,6.7557,6.6948,6.6846,6.6812,6.6812,6.6812,6.644,6.5764,6.4952,6.4208,6.3565,6.2719,6.2381,6.2381,6.2381,6.2381,6.2381,6.2381,6.2347,6.2144,6.14,6.1129,6.0926,6.0182,5.9471,5.8896,5.8998,5.8457,5.7881,5.7881,5.7881,5.7881,5.7881,5.7881,5.7476,5.6021,5.5681,5.5277,5.3788,5.3518,5.3518,5.3518,5.3518,5.3518,5.3518,5.2807,5.2063,5.142,5.1183,5.0608,4.9255,4.9627,4.9695,4.9052,4.8855,4.8757,4.8655,4.7956,4.7521,4.7454,4.6229,4.5584,4.5584,4.5506,4.5832,4.6644,4.6548,4.6841,4.7572,4.7626,4.689,5.0697,5.1339,5.2618,5.5515,5.7558,5.961,6.249,6.3389,6.3971,6.5317,6.6102,6.6508,6.6508,6.6779,6.6948,6.6846,6.7692,6.8267,6.7963,6.8842,6.9282,6.8504,6.8673,6.9045,6.9519,6.9553,6.9688,6.9992,7.0026,7.0026,7.0026,7.0026,6.9891,6.9553,6.9553,6.918,6.8402,6.8402,6.803,6.7252,6.7252,6.7117,6.6812,6.6812,6.6812,6.6812,6.6812,6.6373,6.5628,6.4884,6.4174,6.3429,6.2685,6.2381,6.2381,6.2381,6.2381,6.2381,6.2381,6.2381,6.2279,6.1535,6.0994,6.0554,6.0216,5.9302,5.8457,5.8896,5.8457,5.7881,5.7881,5.7881,5.7881,5.7881,5.7881,5.7476,5.6021,5.5681,5.5277,5.3788,5.3518,5.3518,5.3518,5.3518,5.3518,5.3518,5.2807,5.2198,5.1894,5.1488,5.0811,4.9763,4.9526,4.9323,4.9018,4.9018,4.9018,4.9018,4.8714,4.8545,4.8545,4.7962,4.767,4.767,4.724,4.7373,4.814,4.8068,4.8464,4.9182,4.9626,4.9493,5.233,5.3627,5.5284,5.8303,6.0859,6.3001,6.4387,6.5213,6.599,6.7194,6.7554,6.759,6.759,6.759,6.7489,6.7151,6.776,6.8166,6.7929,6.8605,6.8639,6.7421,6.7286,6.7523,6.8098,6.8538,6.8876,6.9079,6.9113,6.9113,6.9113,6.9113,6.9011,6.8774,6.8774,6.8402,6.759,6.759,6.7354,6.6812,6.6812,6.6812,6.6812,6.6812,6.6812,6.6812,6.6576,6.6068,6.5324,6.4613,6.3869,6.3159,6.2618,6.2381,6.2381,6.2381,6.2381,6.2381,6.2381,6.2381,6.2313,6.1772,6.1061,6.0385,6.0182,5.9201,5.8254,5.8592,5.8321,5.7881,5.7881,5.7881,5.7881,5.7881,5.7881,5.7476,5.6021,5.5681,5.5277,5.3788,5.3518,5.3518,5.3518,5.3518,5.3518,5.3518,5.301,5.257,5.2334,5.1488,5.071,5.0135,4.9424,4.9018,4.9018,4.9018,4.9018,4.9018,4.9018,4.9018,4.9018,4.9018,4.9086,4.9289,4.8783,4.8884,4.9627,4.9588,4.9889,5.0405,5.1183,5.1358,4.9764,5.2459,5.5745,5.6519,5.9804,6.3068,6.3851,6.518,6.6275,6.6341,6.6598,6.6846,6.6846,6.6846,6.7083,6.776,6.8538,6.8808,6.7996,6.8605,6.8267,6.6034,6.5764,6.5764,6.5797,6.7083,6.8267,6.9045,6.9113,6.9113,6.9113,6.9113,6.8741,6.7963,6.7929,6.759,6.6846,6.6846,6.6846,6.6812,6.6812,6.6812,6.6812,6.6812,6.6812,6.6779,6.6034,6.529,6.458,6.3835,6.3091,6.2415,6.2415,6.2381,6.2381,6.2381,6.2381,6.2381,6.2381,6.2381,6.2381,6.2347,6.1873,6.1129,6.0351,5.9573,5.8829,5.8118,5.7915,5.7881,5.7881,5.7881,5.7881,5.7881,5.7881,5.7476,5.6021,5.5681,5.5277,5.3788,5.3518,5.3518,5.3518,5.3518,5.3518,5.3518,5.3484,5.3179,5.2401,5.1014,5.0101,5.0101,4.9424,4.9018,4.9018,4.9018,4.9018,4.9018,4.9018,4.9018,4.9018,4.9018,4.9323,5.0033,5.0033,5.0373,5.1117,5.1151,5.1151,5.1151,5.1928,5.1833,5.305,5.549,5.8171,6.0397,6.3594,6.6371,6.7086,6.8115,6.873,6.8259,6.7444,6.6508,6.5527,6.5358,6.5425,6.5662,6.6779,6.7489,6.7218,6.8301,6.8233,6.5967,6.6542,6.6779,6.5764,6.6136,6.6745,6.7523,6.759,6.759,6.759,6.759,6.7455,6.7184,6.7184,6.7049,6.6812,6.6812,6.6812,6.6812,6.6812,6.6542,6.6068,6.6068,6.5797,6.5324,6.5087,6.4546,6.3869,6.3632,6.3057,6.2381,6.2381,6.2381,6.2381,6.2381,6.2381,6.2381,6.2381,6.2381,6.2381,6.2381,6.1907,6.1163,6.0351,5.9573,5.8863,5.8084,5.7881,5.7881,5.7881,5.7881,5.7881,5.7881,5.7881,5.7476,5.6021,5.5681,5.5277,5.3788,5.3518,5.3518,5.3518,5.3518,5.3518,5.3518,5.3518,5.3416,5.3145,5.1758,5.0845,5.0845,4.9729,4.9018,4.9018,4.9018,4.9018,4.9018,4.9018,4.9221,4.9695,4.9729,5.0067,5.0845,5.0845,5.0947,5.1185,5.1691,5.1928,5.1961,5.2739,5.2944,5.5523,5.7638,5.9796,6.231,6.4704,6.662,6.7318,6.7859,6.808,6.7422,6.6188,6.485,6.3632,6.3193,6.3328,6.441,6.5628,6.6711,6.7523,6.847,6.8335,6.6339,6.6711,6.6643,6.5425,6.529,6.573,6.6745,6.6576,6.6542,6.6812,6.6812,6.6812,6.6812,6.6812,6.6812,6.6812,6.6812,6.6677,6.6406,6.6406,6.6034,6.529,6.529,6.5053,6.458,6.4343,6.3937,6.3497,6.3226,6.2821,6.2381,6.2381,6.2381,6.2381,6.2381,6.2381,6.2381,6.2381,6.2381,6.2381,6.2381,6.2076,6.1501,6.0419,5.9776,5.9201,5.8186,5.7881,5.7881,5.7881,5.7881,5.7881,5.7881,5.7881,5.7476,5.6021,5.5681,5.5277,5.3788,5.3518,5.3518,5.3518,5.3518,5.3518,5.3518,5.3518,5.3518,5.3518,5.2401,5.1488,5.1219,5.0135,4.9289,4.9018,4.9255,4.939,4.939,4.9661,4.9999,5.0473,5.0473,5.0845,5.1589,5.1589,5.1758,5.2029,5.2503,5.2739,5.2739,5.3281,5.3518,5.6885,5.868,6.0616,6.2156,6.3308,6.4223,6.4777,6.4771,6.4536,6.4023,6.3015,6.1941,6.1124,6.0414,6.096,6.3903,6.5155,6.6508,6.8741,6.9113,6.8571,6.7015,6.6203,6.5493,6.4715,6.4613,6.5222,6.6711,6.6102,6.6,6.6779,6.6812,6.6812,6.6812,6.6779,6.6745,6.6745,6.6711,6.6339,6.5628,6.5628,6.5256,6.4546,6.4546,6.4512,6.4444,6.3768,6.3463,6.3396,6.2685,6.2381,6.2381,6.2381,6.2381,6.2381,6.2381,6.2381,6.2381,6.2381,6.2381,6.2381,6.2381,6.2381,6.211,6.0622,6.0148,5.981,5.8355,5.7915,5.7881,5.7881,5.7881,5.7881,5.7881,5.7881,5.7476,5.6021,5.5681,5.5277,5.3788,5.3518,5.3518,5.3518,5.3518,5.3518,5.3518,5.3518,5.3518,5.3518,5.2807,5.2029,5.1352,5.0608,4.9864,4.9187,4.9763,5.0135,5.0135,5.0811,5.1219,5.1219,5.1285,5.1623,5.2367,5.2367,5.2739,5.3518,5.3518,5.3518,5.3518,5.3518,5.3518,5.883,6.0581,6.2126,6.2999,6.3997,6.483,6.5212,6.4766,6.3847,6.2255,6.0382,5.8477,5.6575,5.7446,5.9066,6.0926,6.4208,6.6914,6.8064,6.918,6.9147,6.7049,6.7117,6.6812,6.5527,6.4918,6.5222,6.6711,6.6102,6.6,6.6779,6.6812,6.6812,6.6812,6.6271,6.5967,6.5967,6.5425,6.5087,6.4884,6.4884,6.4478,6.3802,6.3802,6.3497,6.2956,6.2753,6.2685,6.2651,6.2482,6.2381,6.2381,6.2381,6.2381,6.2381,6.2381,6.2381,6.2381,6.2381,6.2381,6.2381,6.2381,6.2381,6.2212,6.1264,6.0588,5.9911,5.8998,5.8321,5.7881,5.7881,5.7881,5.7881,5.7881,5.7881,5.7476,5.6021,5.5681,5.5277,5.3788,5.3518,5.3518,5.3518,5.3518,5.3518,5.3518,5.3518,5.3518,5.3518,5.2807,5.2232,5.2063,5.1352,5.0845,5.0676,5.0811,5.0913,5.0913,5.1116,5.1454,5.1995,5.2029,5.2401,5.3179,5.3179,5.3315,5.3518,5.3518,5.3518,5.3518,5.3518,5.3518,6.0595,6.1928,6.3026,6.3619,6.4327,6.4819,6.4271,6.3166,6.1554,5.9245,5.7043,5.4979,5.3346,5.4919,5.7036,5.8829,6.2651,6.5967,6.7658,6.8639,6.8842,6.7929,6.759,6.6948,6.5797,6.5324,6.5425,6.6271,6.5628,6.5696,6.6745,6.6812,6.6677,6.6339,6.5899,6.5527,6.5222,6.4816,6.4444,6.414,6.414,6.3734,6.3024,6.3024,6.2787,6.2381,6.2381,6.2381,6.2381,6.2381,6.2381,6.2381,6.2381,6.2381,6.2381,6.2381,6.2381,6.2381,6.2381,6.2381,6.2381,6.2381,6.2381,6.2245,6.1535,6.0994,6.0419,5.9336,5.8693,5.8321,5.7983,5.7881,5.7881,5.7881,5.7881,5.7577,5.6427,5.5953,5.5277,5.3788,5.3518,5.3518,5.3518,5.3518,5.3518,5.3518,5.3518,5.3518,5.3518,5.3112,5.2706,5.2334,5.1928,5.1555,5.1219,5.1522,5.1691,5.1691,5.2029,5.2401,5.2807,5.2841,5.3044,5.3484,5.3518,5.3518,5.3518,5.3518,5.3518,5.3518,5.3518,5.3518,6.2238,6.3036,6.3773,6.4114,6.449,6.4346,6.2491,6.0683,5.86,5.5699,5.344,5.1715,5.1017,5.2738,5.504,5.7374,6.0892,6.4343,6.7218,6.7692,6.7996,6.8707,6.7624,6.6542,6.5899,6.5764,6.573,6.5831,6.5155,6.5358,6.6745,6.6711,6.6271,6.5425,6.5392,6.5053,6.4309,6.4309,6.4005,6.3362,6.3362,6.3024,6.2381,6.2381,6.2381,6.2381,6.2381,6.2381,6.2381,6.2381,6.2381,6.2381,6.2381,6.2381,6.2381,6.2381,6.2381,6.2381,6.2381,6.2381,6.2381,6.2381,6.2381,6.2279,6.1637,6.1366,6.0994,5.9573,5.9099,5.8829,5.8084,5.7881,5.7881,5.7881,5.7881,5.7679,5.6968,5.6224,5.531,5.3923,5.3653,5.3619,5.3518,5.3518,5.3518,5.3518,5.3518,5.3518,5.3518,5.3518,5.3247,5.2536,5.2469,5.2198,5.1589,5.2097,5.2469,5.2469,5.3112,5.3518,5.3518,5.3518,5.3518,5.3518,5.3518,5.3518,5.3518,5.3518,5.3518,5.3518,5.3585,5.3653,6.3845,6.4374,6.4752,6.5037,6.4816,6.3577,6.0503,5.8787,5.6732,5.2802,5.0695,4.9525,4.9325,5.1162,5.3653,5.6528,6.0148,6.3396,6.573,6.6609,6.7049,6.7184,6.6981,6.6779,6.6643,6.6068,6.5933,6.6576,6.5933,6.5899,6.6779,6.6203,6.5256,6.3937,6.3903,6.3531,6.2787,6.2787,6.2719,6.2584,6.2584,6.2516,6.2381,6.2381,6.2381,6.2381,6.2381,6.2381,6.2381,6.2381,6.2381,6.2381,6.2381,6.2381,6.2381,6.2381,6.2381,6.2381,6.2381,6.2381,6.2381,6.2381,6.2381,6.2381,6.2245,6.1772,6.1129,6.0182,5.9471,5.8829,5.8084,5.7881,5.7881,5.7881,5.7881,5.7679,5.6968,5.6224,5.5446,5.4566,5.4397,5.4228,5.3619,5.3518,5.3518,5.3518,5.3518,5.3518,5.3518,5.3518,5.345,5.3315,5.3281,5.3247,5.3112,5.3213,5.3281,5.3281,5.3416,5.3518,5.3518,5.3518,5.3518,5.3518,5.3518,5.3518,5.3518,5.3518,5.3518,5.3518,5.4126,5.4397,6.4002,6.4558,6.4934,6.5106,6.4452,6.2906,5.9387,5.6863,5.4057,4.9852,4.8062,4.7143,4.6782,4.9458,5.2198,5.3653,5.7036,6.052,6.3565,6.4275,6.5222,6.7151,6.7049,6.6812,6.6812,6.6136,6.5831,6.6203,6.5527,6.5628,6.6745,6.573,6.4783,6.4106,6.3328,6.2753,6.2381,6.2381,6.2381,6.2381,6.2381,6.2381,6.2381,6.2381,6.2381,6.2381,6.2381,6.2381,6.2381,6.2381,6.2381,6.2381,6.2381,6.2381,6.2381,6.2381,6.2381,6.242,6.2498,6.2537,6.2537,6.2537,6.2459,6.2381,6.2381,6.2144,6.1704,6.0926,6.0486,5.9945,5.8761,5.8457,5.8389,5.7983,5.7881,5.7679,5.6968,5.6528,5.6055,5.531,5.4871,5.4465,5.4126,5.3754,5.3518,5.3518,5.3518,5.3518,5.3518,5.3518,5.3518,5.3518,5.3518,5.3518,5.3518,5.3518,5.3518,5.3518,5.3518,5.3518,5.3518,5.3518,5.3518,5.3518,5.3518,5.3518,5.3518,5.389,5.4059,5.4093,5.4837,5.5175,6.3914,6.4674,6.5185,6.4866,6.4186,6.2553,5.8275,5.5178,5.1982,4.7753,4.6093,4.5425,4.5177,4.7925,5.0441,5.1083,5.3957,5.7408,6.1129,6.2076,6.3565,6.6812,6.6981,6.6812,6.6812,6.6136,6.5696,6.5696,6.5019,6.5053,6.6068,6.4986,6.4309,6.414,6.299,6.2381,6.2381,6.2381,6.2381,6.2381,6.2381,6.2381,6.2381,6.2381,6.2381,6.2381,6.2381,6.2381,6.2381,6.2381,6.2381,6.2381,6.2381,6.2381,6.2381,6.2381,6.242,6.2459,6.2649,6.2727,6.2727,6.2727,6.2576,6.2459,6.242,6.2381,6.2245,6.1501,6.1298,6.096,5.9404,5.9032,5.8829,5.8084,5.7881,5.7712,5.7171,5.7036,5.6833,5.6089,5.548,5.5006,5.4871,5.4228,5.3754,5.3754,5.3619,5.3518,5.3518,5.3518,5.3518,5.3518,5.3518,5.3518,5.3518,5.3518,5.3518,5.3518,5.3518,5.3518,5.3518,5.3518,5.3518,5.3518,5.3653,5.3754,5.3754,5.4465,5.4837,5.4837,5.5615,5.5953,6.4026,6.5412,6.6065,6.4763,6.4601,6.308,5.6575,5.4131,5.2005,4.7704,4.5654,4.5075,4.6384,4.6929,4.8071,5.0777,5.2672,5.5108,5.8795,6.1095,6.3024,6.4715,6.6034,6.6812,6.6812,6.6136,6.5696,6.5696,6.5019,6.4377,6.3835,6.37,6.3294,6.2618,6.2448,6.2381,6.2381,6.2381,6.2381,6.2381,6.2381,6.2381,6.2381,6.2381,6.2381,6.2381,6.2381,6.2381,6.2381,6.2381,6.2381,6.2381,6.2381,6.2381,6.2381,6.2381,6.2498,6.2688,6.2693,6.2727,6.2727,6.2727,6.2688,6.2615,6.2459,6.2381,6.2245,6.1501,6.1298,6.096,5.9404,5.9032,5.8829,5.8084,5.7881,5.7881,5.7814,5.778,5.7577,5.6833,5.663,5.6393,5.5716,5.5006,5.4499,5.4499,5.3923,5.3518,5.3518,5.3518,5.3518,5.3518,5.3518,5.3518,5.3518,5.3518,5.3518,5.3518,5.3518,5.3518,5.3518,5.3518,5.3518,5.3518,5.416,5.4499,5.4499,5.5243,5.5615,5.5649,5.6359,5.6697,6.3042,6.5049,6.6277,6.5273,6.3857,6.1658,5.7355,5.3607,5.0103,4.6879,4.5357,4.4658,4.4808,4.5509,4.6684,4.8274,4.9458,5.1589,5.575,5.7137,5.9066,6.2821,6.3802,6.4512,6.5392,6.4816,6.4174,6.3734,6.3429,6.3159,6.2854,6.326,6.3396,6.3091,6.2618,6.2381,6.2381,6.2381,6.2381,6.2381,6.2381,6.2381,6.2381,6.2381,6.2381,6.2381,6.2381,6.2381,6.2381,6.2381,6.2459,6.2576,6.2576,6.2576,6.2576,6.2576,6.2537,6.2537,6.2808,6.2885,6.2885,6.3,6.3038,6.3,6.2654,6.2576,6.2542,6.2237,6.2053,6.1704,6.0655,5.9708,5.8829,5.8084,5.7881,5.7881,5.7881,5.7881,5.7814,5.7509,5.7103,5.6697,5.6427,5.575,5.5277,5.5277,5.4634,5.416,5.416,5.3788,5.3518,5.3518,5.3518,5.3518,5.3518,5.3518,5.3518,5.3518,5.3518,5.3518,5.3518,5.3518,5.3518,5.3518,5.4228,5.46,5.46,5.5784,5.6359,5.6393,5.7103,5.7442,6.1515,6.4101,6.5731,6.4858,6.3054,6.0697,5.7806,5.3384,4.9316,4.6902,4.5614,4.4778,4.4248,4.5009,4.594,4.6684,4.7767,4.9898,5.3721,5.4837,5.6765,6.0892,6.1569,6.2313,6.3802,6.37,6.3193,6.2448,6.2381,6.2381,6.2381,6.2888,6.3193,6.3193,6.2651,6.2381,6.2381,6.2381,6.2381,6.2381,6.2381,6.2381,6.2381,6.2381,6.2381,6.2381,6.2381,6.2381,6.2381,6.2381,6.2459,6.2576,6.2576,6.2576,6.2649,6.2688,6.2654,6.2615,6.2962,6.3076,6.3114,6.3227,6.3302,6.3227,6.2962,6.2808,6.277,6.277,6.2518,6.1985,6.1129,5.9979,5.8829,5.8084,5.7881,5.7881,5.7881,5.7881,5.7881,5.7881,5.7476,5.7137,5.7137,5.6528,5.6055,5.6055,5.5412,5.4938,5.4938,5.4296,5.3822,5.3822,5.3619,5.3518,5.3518,5.3518,5.3518,5.3518,5.3518,5.3518,5.3518,5.3518,5.3619,5.3822,5.4532,5.504,5.5243,5.6494,5.7137,5.7137,5.7645,5.7881,5.9543,6.2518,6.4371,6.3201,6.2268,6.068,5.7211,5.3544,5.032,4.8296,4.6688,4.5703,4.5674,4.5703,4.594,4.6684,4.8646,5.0879,5.3179,5.5412,5.734,5.8863,5.9674,6.0723,6.2245,6.3091,6.3193,6.2448,6.2381,6.2381,6.2381,6.2381,6.2415,6.2415,6.2381,6.2381,6.2381,6.2381,6.2381,6.2381,6.2381,6.2381,6.2381,6.2381,6.2381,6.2381,6.2381,6.2381,6.2381,6.2381,6.2381,6.2381,6.2381,6.2381,6.242,6.2615,6.2808,6.3038,6.3227,6.3302,6.3302,6.3302,6.3302,6.3302,6.3302,6.3152,6.3,6.3,6.234,6.1363,6.0355,5.9573,5.8829,5.8084,5.7881,5.7881,5.7881,5.7881,5.7881,5.7881,5.7881,5.7881,5.7881,5.7273,5.6799,5.6799,5.6156,5.5716,5.5716,5.504,5.4566,5.4566,5.3923,5.3518,5.3518,5.3518,5.3518,5.3518,5.3518,5.3518,5.3518,5.3518,5.3856,5.4566,5.531,5.6055,5.6799,5.7509,5.7881,5.7881,5.7881,5.7881,5.6666,5.938,6.1316,5.9972,5.8502,5.6902,5.4873,5.1856,4.9028,4.745,4.638,4.5534,4.5026,4.4925,4.55,4.7293,4.8139,4.956,5.23,5.3754,5.5277,5.7273,5.9539,6.1298,6.2279,6.2618,6.2651,6.2415,6.2381,6.2381,6.2381,6.2381,6.2381,6.2381,6.2381,6.2381,6.2381,6.2381,6.2381,6.2381,6.2381,6.2381,6.2381,6.2381,6.2381,6.2381,6.2381,6.2381,6.2381,6.2381,6.2459,6.261,6.261,6.2693,6.2808,6.2885,6.2962,6.3038,6.3227,6.3302,6.3302,6.3452,6.3526,6.3526,6.3526,6.3377,6.3189,6.3038,6.2676,6.2047,6.068,6.0058,5.9438,5.8186,5.7881,5.7881,5.7881,5.7881,5.7881,5.7881,5.7881,5.7881,5.7881,5.7712,5.7543,5.7543,5.6934,5.6461,5.6461,5.5818,5.5344,5.5344,5.5141,5.46,5.3585,5.3518,5.3518,5.3518,5.3518,5.3721,5.4228,5.4262,5.46,5.5344,5.6089,5.6562,5.6799,5.7543,5.7881,5.7881,5.7881,5.7881,5.4786,5.6878,5.833,5.7642,5.6204,5.4738,5.3719,5.1094,4.8555,4.744,4.6413,4.5568,4.5094,4.4993,4.5466,4.6853,4.7767,4.9052,5.1183,5.2638,5.4329,5.6528,5.9201,6.1028,6.1501,6.2042,6.2381,6.2381,6.2381,6.2381,6.2381,6.2381,6.2381,6.2381,6.2381,6.2381,6.2381,6.2381,6.2381,6.2381,6.2381,6.2381,6.2381,6.2381,6.2381,6.2381,6.2381,6.2381,0.0,6.2381,6.2498,6.2727,6.2727,6.2808,6.3038,6.3076,6.3114,6.3152,6.334,6.3414,6.3414,6.3563,6.36,6.36,6.36,6.3526,6.334,6.3076,6.2923,6.2429,6.0748,6.019,5.9742,5.8254,5.7881,5.7881,5.7881,5.7881,5.7881,5.7881,5.7881,5.7881,5.7881,5.7881,5.7881,5.7881,5.7509,5.7205,5.7205,5.6562,5.6122,5.6122,5.5886,5.5344,5.4431,5.4329,5.4329,5.4329,5.4329,5.4532,5.5006,5.5006,5.5378,5.6122,5.6562,5.6934,5.7205,5.7679,5.7881,5.7881,5.7881,5.8051,0.0,5.4713,5.5306,5.583,5.484,5.3669,5.328,5.098,0.0,4.797,4.6684,4.5703,4.5703,4.5669,4.5669,4.5838,4.7631,4.9289,5.0067,5.2232,5.46,5.6867,5.893,6.0216,6.025,6.1535,6.2381,6.2381,6.2381,6.2381,6.2381,6.2381,6.2381,6.2381,6.2381,6.2381,6.2381,6.2381,6.2381,6.2381,6.2381,6.2381,6.2381,6.2381,6.2381,6.2381,6.2381,6.2381,6.2381,6.242,6.2537,6.2727,6.2727,6.2847,6.3038,6.3227,6.3302,6.334,6.3526,6.36,6.36,6.36,6.36,6.36,6.36,6.36,6.3526,6.3152,6.3038,6.2548,6.06,6.0114,5.9742,5.8254,5.7881,5.7881,5.7881,5.7881,5.7881,5.7881,5.7881,5.7881,5.7881,5.7881,5.7881,5.7881,5.7881,5.7881,5.7881,5.7306,5.6867,5.6867,5.6292,5.5886,5.5886,5.5784,5.5681,5.5681,5.5681,5.575,5.5784,5.5784,5.6156,5.6867,5.6867,5.7205,5.7881,5.7949,5.7983,5.7983,5.8017,5.8423,5.076,0.0,5.2129,5.1665,5.0892,5.0151,0.0,4.9086,4.797,4.7225,4.6346,4.5703,4.5703,4.5229,4.5399,4.7124,4.8308,4.9458,5.0777,5.389,5.707,5.9911,6.0689,6.1231,6.1806,6.2178,6.2381,6.2381,6.2381,6.2381,6.2381,6.2381,6.2381,6.2381,6.2381,6.2381,6.2381,6.2381,6.2381,6.2381,6.2381,6.2381,6.2381,6.2381,6.2381,6.2381,6.2381,6.2381,6.242,6.2537,6.2688,6.2727,6.2885,6.3038,6.3227,6.3265,6.3377,6.3526,6.36,6.36,6.36,6.36,6.36,6.36,6.36,6.36,6.3563,6.3302,6.3114,6.2586,6.0789,6.0227,5.9742,5.8254,5.7881,5.7881,5.7881,5.7881,5.7881,5.7881,5.7881,5.7881,5.7881,5.7881,5.7881,5.7881,5.7881,5.7881,5.7881,5.7746,5.7645,5.7645,5.7476,5.7374,5.7374,5.6359,5.5681,5.5681,5.5681,5.5953,5.6528,5.6562,5.69,5.7611,5.7645,5.7712,5.7881,5.8457,5.8761,5.8761,5.9336,5.9674,4.9429,5.0135,5.0608,5.0202,4.9796,4.9424,4.9086,4.8173,4.7192,4.6447,4.5703,4.5196,4.5196,4.5128,4.5602,4.7158,4.8308,4.9999,5.2841,5.5615,5.8287,6.0994,6.1603,6.1941,6.2347,6.2381,6.2381,6.2381,6.2381,6.2381,6.2381,6.2381,6.2381,6.2381,6.2381,6.2381,6.2381,6.2381,6.2381,6.2381,6.2381,6.2381,6.2381,6.2381,6.2381,6.2381,6.2381,6.2381,6.2381,6.2498,6.2654,6.2847,6.2962,6.3189,6.3452,6.3452,6.3526,6.36,6.36,6.36,6.36,6.36,6.36,6.36,6.36,6.36,6.3563,6.334,6.3227,6.2802,6.134,6.0883,6.0401,5.8909,5.8569,5.8468,5.8237,5.8205,5.8169,5.8063,5.8027,5.8126,5.8355,5.8118,5.8017,5.8355,5.8118,5.7881,5.7881,5.7881,5.7881,5.7881,5.7881,5.7881,5.7881,5.7171,5.6697,5.6697,5.6697,5.69,5.7273,5.7306,5.7476,5.7881,5.7881,5.8051,5.8423,5.8829,5.9167,5.9505,5.9911,6.0317,4.9123,4.9695,5.0202,4.9965,4.9999,4.9898,4.9187,4.7936,4.6752,4.6007,4.5263,4.4818,4.4919,4.5432,4.6177,4.7124,4.8646,5.1217,5.5615,5.7273,5.8896,6.1197,6.2009,6.2381,6.2381,6.2381,6.2381,6.2381,6.2381,6.2381,6.2381,6.2381,6.2381,6.2381,6.2381,6.2381,6.2381,6.2381,6.2381,6.2381,6.2381,6.2381,6.2381,6.2381,6.2381,6.2381,6.2381,6.2381,6.2381,6.242,6.2654,6.3,6.3038,6.3265,6.36,6.36,6.36,6.36,6.36,6.36,6.36,6.36,6.36,6.36,6.36,6.36,6.3563,6.3377,6.3302,6.3056,6.1927,6.1609,6.1268,5.9874,5.9497,5.9363,5.8933,5.8832,5.8796,5.8581,5.8545,5.8642,5.9103,5.866,5.8457,5.9066,5.8626,5.822,5.822,5.822,5.822,5.822,5.822,5.822,5.822,5.822,5.822,5.822,5.8017,5.7881,5.7881,5.7881,5.7949,5.8051,5.8051,5.8423,5.9167,5.9302,5.9674,6.0283,6.0385,6.0825,4.9731,5.0473,5.0744,4.9492,4.9627,4.9898,4.9187,4.8342,4.753,4.6786,4.6041,4.5737,4.6346,4.6549,4.7259,4.9255,5.1386,5.416,5.7983,5.8693,5.9674,6.1941,6.2313,6.2381,6.2381,6.2381,6.2381,6.2381,6.2381,6.2381,6.2381,6.2381,6.2381,6.2381,6.2381,6.2381,6.2381,6.2381,6.2381,6.2381,6.2381,6.2381,6.2381,6.2381,6.2381,6.2381,6.2381,6.2381,6.242,6.2576,6.277,6.3038,6.3189,6.3377,6.36,6.36,6.36,6.36,6.36,6.36,6.36,6.36,6.36,6.36,6.36,6.36,6.36,6.3563,6.3414,6.3056,6.2115,6.1722,6.1442,6.0742,6.0427,6.0248,6.0437,6.044,6.0367,6.0217,6.0109,6.0034,5.9949,5.9844,5.981,5.9911,5.9844,5.9742,5.9742,5.9742,5.9742,5.9742,5.9742,5.9742,5.9742,5.9742,5.9742,5.9742,5.8592,5.7881,5.7881,5.7881,5.8186,5.8829,5.8829,5.9201,5.9945,6.0622,6.1028,6.1129,6.1738,6.211,4.8785,4.9458,4.9932,4.9661,5.0439,5.1082,5.0371,4.9627,4.8781,4.7631,4.7124,4.6989,4.7327,4.8037,4.956,5.2638,5.4668,5.6731,5.9235,5.9607,6.0283,6.2178,6.2381,6.2381,6.2381,6.2381,6.2381,6.2381,6.2381,6.2381,6.2381,6.2381,6.2381,6.2381,6.2381,6.2381,6.2381,6.2381,6.2381,6.2381,6.2381,6.2381,6.2381,6.2381,6.2381,6.2381,6.2381,6.2381,6.2381,6.2498,6.2731,6.3038,6.3114,6.334,6.36,6.36,6.36,6.36,6.36,6.36,6.36,6.36,6.36,6.36,6.36,6.36,6.36,6.36,6.3526,6.3346,6.2816,6.26,6.2354,6.1713,6.1434,6.1331,6.1105,6.1073,6.1,6.0818,6.0637,6.0625,6.0846,6.0461,6.025,6.0689,6.0385,6.0114,6.0114,6.0114,6.0114,6.0114,6.0114,6.0114,6.0114,6.0114,6.0114,6.0114,5.9471,5.9099,5.9099,5.9099,5.9235,5.9607,5.9607,5.9979,6.0757,6.1129,6.1501,6.1907,6.2245,6.2381,4.8139,4.8578,4.9154,4.9695,5.0676,5.1623,5.1928,5.115,5.0202,4.9593,4.9156,4.892,4.892,5.0304,5.2401,5.548,5.734,5.8863,6.0182,6.0385,6.0892,6.2245,6.2381,6.2381,6.2381,6.2381,6.2381,6.2381,6.2381,6.2381,6.2381,6.2381,6.2381,6.2381,6.2381,6.2381,6.2381,6.2381,6.2381,6.2381,6.2381,6.2381,6.2381,6.2381,6.2381,6.2381,6.2381,6.2381,6.2381,6.2381,6.2654,6.3,6.3,6.3265,6.36,6.36,6.36,6.36,6.36,6.36,6.36,6.36,6.36,6.36,6.36,6.36,6.36,6.36,6.36,6.3563,6.3414,6.334,6.3165,6.2653,6.2515,6.2343,6.1943,6.1841,6.1769,6.1588,6.1368,6.1425,6.1855,6.1219,6.0858,6.1545,6.1066,6.0622,6.0622,6.0622,6.0622,6.0622,6.0622,6.0622,6.0622,6.0622,6.0622,6.0622,6.0283,6.0114,6.0114,6.0114,6.0182,6.0385,6.0385,6.0757,6.1569,6.1569,6.1839,6.2381,6.2381,6.2381,4.8748,4.8951,4.9018,4.9086,4.9154,5.0135,5.3551,5.2672,5.1691,5.3687,5.2976,5.1995,5.1995,5.3822,5.5615,5.6562,5.8524,6.025,6.1095,6.1231,6.1501,6.2313,6.2381,6.2381,6.2381,6.2381,6.2381,6.2381,6.2381,6.2381,6.2381,6.2381,6.2381,6.2381,6.2381,6.2381,6.2381,6.2381,6.2381,6.2381,6.2381,6.2381,6.2381,6.2381,6.2381,6.2381,6.2381,6.2381,6.2381,6.2381,6.2654,6.3,6.3,6.3265,6.36,6.36,6.36,6.36,6.36,6.36,6.36,6.36,6.36,6.36,6.36,6.36,6.36,6.36,6.36,6.36,6.36,6.3452,6.334,6.3457,6.3346,6.3237,6.339,6.3427,6.3353,6.3168,6.298,6.2863,6.2897,6.2518,6.2324,6.2547,6.2397,6.2212,6.2212,6.2212,6.2212,6.2212,6.2212,6.2212,6.2212,6.2212,6.2212,6.2212,6.0892,6.0114,6.0114,6.0114,6.0452,6.1197,6.1231,6.1569,6.2313,6.2313,6.2347,6.2381,6.2381,6.2381,4.7564,4.797,4.8545,4.9458,4.9661,5.0439,5.3281,5.3957,5.4499,5.6292,5.5818,5.4972,5.4499,5.5886,5.7306,5.8051,6.0047,6.1637,6.1941,6.1975,6.2076,6.2347,6.2381,6.2381,6.2381,6.2381,6.2381,6.2381,6.2381,6.2178,6.1738,6.1704,6.1501,6.0994,6.096,6.096,6.096,6.096,6.096,6.0994,6.1941,6.2381,6.2381,6.1907,6.1975,6.2347,6.14,6.1264,6.1704,6.1704,6.1936,6.2388,6.3131,6.3489,6.36,6.36,6.36,6.36,6.36,6.36,6.36,6.36,6.36,6.36,6.36,6.36,6.36,6.36,6.36,6.36,6.36,6.3563,6.3526,6.36,6.3526,6.3526,6.36,6.36,6.36,6.3489,6.334,6.3189,6.3189,6.2962,6.277,6.2727,6.2649,6.2537,6.242,6.2381,6.2381,6.2381,6.2381,6.2381,6.2381,6.2381,6.2381,6.2381,6.1839,6.1535,6.1535,6.1535,6.167,6.1975,6.1975,6.211,6.2381,6.2381,6.2381,6.2381,6.2381,6.2381,4.6853,4.7158,4.7868,4.9086,4.9932,5.1116,5.3619,5.5006,5.6393,5.8795,5.8355,5.7273,5.6528,5.7205,5.8118,5.8896,6.0723,6.211,6.2347,6.2381,6.2381,6.2381,6.2381,6.2381,6.2381,6.2381,6.2381,6.2381,6.2178,6.1839,6.1332,6.1061,6.0655,6.0114,6.0114,6.0114,6.0114,6.0114,6.0114,6.0114,6.1163,6.167,6.1637,6.1163,6.1197,6.1603,6.0554,6.0419,6.0926,6.1003,6.1405,6.2087,6.3179,6.36,6.36,6.36,6.36,6.36,6.36,6.36,6.36,6.36,6.36,6.36,6.36,6.36,6.36,6.36,6.36,6.36,6.36,6.36,6.36,6.36,6.36,6.36,6.36,6.36,6.36,6.36,6.3452,6.3302,6.3377,6.3189,6.2962,6.2885,6.2808,6.2731,6.2615,6.2576,6.2576,6.2498,6.2498,6.2459,6.2381,6.2381,6.2381,6.2381,6.2381,6.2381,6.2381,6.2381,6.2381,6.2381,6.2381,6.2381,6.2381,6.2381,6.2516,6.2753,6.2753,6.2854,4.6989,4.6786,4.6989,4.7767,4.9596,5.203,5.5039,5.575,5.7002,6.1467,6.0622,5.8795,5.8051,5.7915,5.8152,5.8896,6.0283,6.1569,6.2279,6.2381,6.2381,6.2381,6.2381,6.2381,6.2381,6.2381,6.2381,6.2381,6.1704,6.1298,6.1298,6.052,6.008,6.008,6.008,6.008,6.008,6.008,6.008,6.008,6.008,6.008,6.0114,6.008,6.008,6.0114,6.008,6.008,6.008,6.034,6.1081,6.2272,6.3216,6.3565,6.3565,6.3565,6.3565,6.3565,6.36,6.36,6.36,6.36,6.36,6.36,6.36,6.36,6.36,6.36,6.36,6.36,6.36,6.36,6.36,6.36,6.36,6.36,6.36,6.36,6.36,6.36,6.3452,6.3377,6.3563,6.3265,6.3076,6.3265,6.3114,6.3,6.3,6.3,6.2923,6.2693,6.2693,6.2615,6.242,6.2381,6.2381,6.2381,6.2381,6.2381,6.2381,6.2381,6.2381,6.2381,6.2381,6.2381,6.2381,6.2381,6.2787,6.3531,6.3531,6.3903,4.6244,4.7158,4.8511,4.9255,5.1928,5.5141,5.8118,5.8389,5.9032,6.2482,6.1806,6.0385,5.9573,5.9032,5.8761,5.8964,6.0283,6.1569,6.2279,6.2381,6.2381,6.2381,6.2381,6.2381,6.2381,6.1907,6.1637,6.1637,6.0892,6.0216,5.9708,5.9471,5.9099,5.8558,5.8558,5.8558,5.8558,5.8558,5.8558,5.8558,5.8558,5.9099,6.008,5.9573,5.9607,6.0047,5.8998,5.8863,5.9336,5.9706,6.0442,6.1414,6.1838,6.1979,6.2048,6.2599,6.2806,6.2875,6.3427,6.36,6.36,6.36,6.36,6.3496,6.2979,6.3186,6.3496,6.2944,6.3186,6.36,6.36,6.36,6.36,6.36,6.36,6.36,6.36,6.36,6.36,6.36,6.3563,6.3526,6.36,6.3526,6.3414,6.3302,6.3227,6.3152,6.3038,6.3,6.3,6.2923,6.2923,6.2847,6.2615,6.2576,6.2537,6.2381,6.2381,6.2381,6.2381,6.2381,6.2381,6.2381,6.2381,6.2381,6.2381,6.2922,6.3294,6.3531,6.4038,6.441,4.7056,4.8003,4.9458,5.1386,5.3585,5.619,5.9776,6.0689,6.14,6.3497,6.255,6.1231,6.1061,5.9911,5.9099,5.9404,5.9979,6.0757,6.1806,6.167,6.1467,6.1467,6.1467,6.1467,6.1467,6.1061,6.0825,6.0825,6.0114,5.9471,5.9032,5.8727,5.8355,5.7915,5.7881,5.7881,5.7881,5.7881,5.7881,5.7881,5.7881,5.8355,5.9201,5.8761,5.8795,5.9167,5.8287,5.8262,5.8848,5.9409,6.0037,6.0732,6.115,6.1289,6.1358,6.1841,6.222,6.253,6.3013,6.3151,6.3151,6.3151,6.2944,6.2599,6.2151,6.2565,6.3048,6.2634,6.3013,6.36,6.36,6.36,6.36,6.36,6.36,6.36,6.36,6.36,6.36,6.36,6.36,6.36,6.36,6.36,6.3563,6.3452,6.3414,6.3377,6.3265,6.3265,6.3227,6.3114,6.3038,6.2923,6.2727,6.2615,6.2634,6.2821,6.2854,6.2956,6.326,6.2685,6.2516,6.2821,6.2854,6.299,6.326,6.3734,6.4106,6.4377,6.4816,6.5189,4.8612,4.9018,5.0067,5.3687,5.4938,5.6359,6.0452,6.2482,6.3734,6.4444,6.2888,6.1603,6.2279,6.0588,5.9302,5.9949,5.9438,5.9539,6.0994,6.0554,6.0114,6.0114,6.0114,6.0114,6.0114,6.0047,6.0013,6.0013,5.9336,5.893,5.893,5.8254,5.7881,5.7881,5.7881,5.7881,5.7881,5.7881,5.7881,5.7881,5.7881,5.7881,5.7881,5.7881,5.7881,5.7881,5.7881,5.8099,5.8524,5.9208,5.9731,6.0151,6.084,6.1082,6.1116,6.1185,6.1668,6.2289,6.2358,6.2393,6.2393,6.2393,6.191,6.1289,6.122,6.1806,6.2461,6.2393,6.2944,6.36,6.36,6.36,6.36,6.36,6.36,6.36,6.36,6.36,6.36,6.36,6.36,6.36,6.36,6.36,6.36,6.36,6.36,6.36,6.36,6.36,6.356,6.3443,6.3254,6.3064,6.2833,6.2639,6.2826,6.3463,6.3531,6.3835,6.458,6.3294,6.2922,6.3599,6.3599,6.3937,6.4613,6.4681,6.5019,6.5696,6.5764,6.617,4.7056,4.8951,5.1352,5.3957,5.7679,6.096,6.1941,6.2973,6.39,6.4485,6.3294,6.2212,6.2347,6.0994,5.978,5.9522,5.9208,5.9373,6.0438,6.0329,6.0114,6.0114,6.0114,6.0114,6.0114,5.9573,5.9268,5.9268,5.8558,5.8118,5.8118,5.7983,5.7881,5.7881,5.7881,5.7881,5.7881,5.7881,5.7881,5.7881,5.7881,5.7881,5.7881,5.7881,5.7881,5.7881,5.7881,5.8099,5.849,5.8661,5.8907,5.9288,5.9426,5.9495,5.9564,6.0185,6.053,6.0771,6.1358,6.1565,6.1565,6.1565,6.1427,6.1185,6.0599,6.1392,6.2358,6.1737,6.253,6.36,6.36,6.36,6.36,6.36,6.36,6.36,6.36,6.36,6.36,6.36,6.36,6.36,6.36,6.36,6.36,6.36,6.36,6.36,6.36,6.36,6.3807,6.4318,6.4198,6.4008,6.3815,6.3582,6.3487,6.3497,6.3531,6.3835,6.458,6.4309,6.4208,6.4377,6.4377,6.4444,6.4613,6.5189,6.5527,6.5696,6.6305,6.6643,4.6921,4.9221,5.2097,5.5784,5.9573,6.2313,6.1941,6.23,6.279,6.308,6.2576,6.2076,6.2076,6.0853,5.9769,5.9504,5.9057,5.9021,5.9913,5.9528,5.918,5.918,5.9106,5.9032,5.9032,5.8693,5.8457,5.8457,5.8118,5.7881,5.7881,5.7881,5.7881,5.7881,5.7881,5.7881,5.7881,5.7881,5.7881,5.7881,5.7881,5.7881,5.7881,5.7881,5.7881,5.7881,5.7881,5.8099,5.849,5.849,5.8701,5.9012,5.9012,5.9012,5.9047,5.9461,5.9875,6.0254,6.0634,6.0771,6.0771,6.0771,6.0496,6.0151,5.9737,6.0703,6.1841,6.1427,6.2393,6.36,6.36,6.36,6.36,6.36,6.36,6.36,6.36,6.36,6.36,6.36,6.36,6.36,6.36,6.36,6.36,6.36,6.36,6.36,6.36,6.3526,6.3727,6.4484,6.3977,6.3679,6.3942,6.3775,6.3786,6.4005,6.4377,6.4884,6.5628,6.5662,6.5493,6.5121,6.5121,6.529,6.5662,6.6034,6.6237,6.6237,6.6643,6.6812,4.6891,4.9596,5.2976,5.7814,6.052,6.1873,6.14,6.1316,6.1329,6.1295,6.1446,6.1596,6.1596,6.0503,5.9583,5.9483,5.89,5.8729,5.938,5.8723,5.8171,5.8171,5.8027,5.7881,5.7881,5.7881,5.7881,5.7881,5.7881,5.7881,5.7881,5.7881,5.7881,5.7881,5.7881,5.7881,5.7881,5.7881,5.7881,5.7881,5.7881,5.7881,5.7881,5.7881,5.7881,5.7881,5.7881,5.8099,5.8455,5.849,5.8701,5.8944,5.8978,5.9012,5.9012,5.9012,5.9426,5.9978,5.9978,5.9978,5.9978,5.9978,5.953,5.9012,5.9012,6.0082,6.1289,6.1289,6.2393,6.36,6.36,6.36,6.36,6.36,6.36,6.36,6.36,6.36,6.36,6.36,6.36,6.36,6.36,6.36,6.36,6.36,6.36,6.36,6.36,6.3414,6.3577,6.4332,6.3542,6.3242,6.4029,6.39,6.4085,6.4871,6.544,6.6076,6.6821,6.6812,6.6508,6.5899,6.5865,6.6203,6.6812,6.6812,6.6812,6.6812,6.6812,6.6812,4.537,4.9965,5.4938,5.8186,5.9708,6.0554,6.1163,6.0943,6.0619,6.0585,6.0734,6.0845,6.0845,6.0162,5.9448,5.8975,5.8664,5.8595,5.8838,5.8523,5.8171,5.8171,5.8027,5.7881,5.7881,5.7881,5.7881,5.7881,5.7881,5.7881,5.7881,5.7881,5.7881,5.7881,5.7881,5.7881,5.7881,5.7881,5.7881,5.7881,5.7881,5.7881,5.7881,5.7881,5.7881,5.7881,5.7881,5.8027,5.8243,5.8419,5.8631,5.884,5.8944,5.9012,5.9012,5.9012,5.9081,5.9185,5.9185,5.9185,5.9185,5.9185,5.9081,5.9012,5.9012,6.0082,6.1289,6.1289,6.2393,6.36,6.36,6.36,6.36,6.36,6.36,6.36,6.36,6.36,6.36,6.36,6.36,6.36,6.36,6.36,6.36,6.36,6.36,6.36,6.36,6.3414,6.3577,6.4332,6.4102,6.4259,6.505,6.5005,6.5306,6.6097,6.6031,6.6323,6.7105,6.6896,6.6779,6.6677,6.6677,6.6711,6.6812,6.6812,6.6812,6.6812,6.6812,6.6812,4.5814,5.0067,5.4126,5.7543,5.893,5.9573,5.9945,6.0231,6.0248,5.9507,5.9822,6.0241,6.0241,5.9624,5.9112,5.8944,5.884,5.8806,5.8909,5.8701,5.849,5.8384,5.8205,5.8027,5.7918,5.7881,5.7881,5.7881,5.7881,5.7881,5.7881,5.7881,5.7881,5.7881,5.7881,5.7881,5.7881,5.7881,5.7881,5.7881,5.7881,5.7881,5.7881,5.7881,5.7881,5.7881,5.7881,5.8063,5.8384,5.8455,5.8666,5.8944,5.8978,5.9012,5.9012,5.9012,5.9012,5.9012,5.9012,5.9012,5.9012,5.9012,5.9012,5.9012,5.9012,6.0082,6.1289,6.1289,6.2393,6.36,6.36,6.36,6.36,6.36,6.36,6.36,6.36,6.36,6.36,6.36,6.36,6.36,6.36,6.36,6.36,6.36,6.36,6.36,6.36,6.3414,6.3577,6.4332,6.4209,6.4401,6.5186,6.563,6.604,6.6382,6.6589,6.684,6.718,6.6938,6.6812,6.6812,6.6812,6.6812,6.6812,6.6812,6.6812,6.6812,6.6812,6.6812,4.5235,4.8511,5.1522,5.5243,5.7036,5.7983,5.8355,5.918,5.9568,5.8588,5.9005,5.9558,5.9595,5.9183,5.8875,5.8978,5.9012,5.9012,5.9012,5.8875,5.8736,5.8596,5.8348,5.8135,5.7991,5.7918,5.7881,5.7881,5.7881,5.7881,5.7881,5.7881,5.7881,5.7881,5.7712,5.7611,5.7611,5.7611,5.7712,5.7881,5.7881,5.7881,5.7881,5.7881,5.7881,5.7881,5.7881,5.8099,5.8419,5.849,5.8701,5.8944,5.8978,5.9012,5.9012,5.9012,5.9012,5.9012,5.9012,5.9012,5.9012,5.9012,5.9012,5.9012,5.9012,6.0082,6.1289,6.1289,6.2393,6.36,6.36,6.36,6.36,6.36,6.36,6.36,6.36,6.36,6.36,6.36,6.36,6.36,6.36,6.36,6.36,6.36,6.36,6.36,6.36,6.3414,6.3577,6.4332,6.4247,6.4547,6.5504,6.616,6.6611,6.6816,6.7121,6.7263,6.7263,6.6938,6.6812,6.6812,6.6812,6.6812,6.6812,6.6812,6.6812,6.6812,6.6812,6.6812,4.1948,4.4282,4.6921,5.0642,5.3213,5.5175,5.6596,5.762,5.8273,5.8241,5.8418,5.8629,5.8805,5.8909,5.8978,5.9012,5.9012,5.9012,5.9012,5.8875,5.8805,5.8805,5.8455,5.8205,5.8205,5.7991,5.7881,5.7881,5.7881,5.7881,5.7881,5.7881,5.7881,5.7881,5.7205,5.6867,5.6867,5.6867,5.7205,5.7881,5.7881,5.7881,5.7881,5.7881,5.7881,5.7881,5.7881,5.8027,5.8241,5.8419,5.8631,5.8806,5.8944,5.9012,5.9012,5.9012,5.9012,5.9012,5.9012,5.9012,5.9012,5.9012,5.9012,5.9012,5.9012,6.0082,6.1289,6.1289,6.2393,6.36,6.36,6.36,6.36,6.36,6.36,6.36,6.36,6.36,6.36,6.36,6.36,6.36,6.36,6.36,6.36,6.36,6.36,6.36,6.36,6.3414,6.3577,6.4332,6.4362,6.498,6.6495,6.6824,6.7251,6.7975,6.7644,6.7475,6.7475,6.7022,6.6812,6.6812,6.6812,6.6812,6.6812,6.6812,6.6812,6.6812,6.6812,6.6812,4.0671,4.2895,4.5635,4.8409,5.0777,5.2841,5.4329,5.643,5.7961,5.7735,5.8523,5.9142,5.8944,5.8909,5.8909,5.8978,5.9012,5.9012,5.9012,5.8944,5.8909,5.8806,5.8666,5.8319,5.756,5.742,5.7348,5.7205,5.6765,5.6697,5.7171,5.6765,5.6494,5.6494,5.6258,5.6089,5.6089,5.6089,5.6461,5.7171,5.7171,5.7442,5.7881,5.7881,5.7881,5.7881,5.7881,5.7991,5.8241,5.8277,5.8419,5.8596,5.8666,5.8771,5.8875,5.8875,5.8944,5.9012,5.9012,5.9012,5.9081,5.9599,5.9771,5.9875,6.0323,6.122,6.2048,6.2048,6.2806,6.36,6.36,6.36,6.36,6.36,6.36,6.36,6.36,6.36,6.36,6.36,6.36,6.36,6.36,6.36,6.36,6.36,6.36,6.36,6.36,6.3939,6.4315,6.4556,6.5486,6.6277,6.6828,6.7389,6.7807,6.8083,6.7719,6.751,6.751,6.7063,6.6812,6.6812,6.6812,6.6812,6.6812,6.6812,6.6812,6.6812,6.6812,6.6812,3.8956,4.0832,4.3301,4.5742,4.7872,4.9965,5.2232,5.4668,5.657,5.6848,5.7977,5.8869,5.8944,5.8875,5.884,5.8978,5.9012,5.9012,5.9012,5.9012,5.8944,5.8875,5.8771,5.8322,5.7326,5.7048,5.684,5.6461,5.5987,5.5919,5.6393,5.5987,5.5615,5.5344,5.5344,5.5344,5.5344,5.5344,5.5852,5.6799,5.6799,5.7171,5.7881,5.7881,5.7881,5.7881,5.7881,5.7991,5.8171,5.8171,5.8348,5.849,5.849,5.8631,5.8805,5.8805,5.8875,5.9012,5.9012,5.9185,5.9495,6.0013,6.0358,6.0668,6.1151,6.1841,6.2496,6.2496,6.3013,6.36,6.36,6.36,6.36,6.36,6.36,6.36,6.36,6.36,6.36,6.36,6.36,6.36,6.36,6.36,6.36,6.36,6.3807,6.3979,6.3979,6.4634,6.5186,6.5462,6.6393,6.7083,6.7325,6.7807,6.8044,6.8004,6.7759,6.7516,6.7428,6.7063,6.6896,6.6812,6.6812,6.6812,6.6812,6.6812,6.6812,6.6812,6.6812,6.6812,0.0,0.0,0.0,4.2557,4.4423,4.6549,5.0202,5.2295,5.3955,5.5587,5.6644,5.7603,5.8564,5.8771,5.884,5.8944,5.8978,5.9012,5.9012,5.9012,5.9012,5.8978,5.8736,5.8183,5.7465,5.7012,5.6494,5.5784,5.5647,5.5683,5.5683,5.5683,5.531,5.4566,5.4566,5.4566,5.4566,5.4566,5.5277,5.6731,5.6765,5.7137,5.7848,5.7881,5.7881,5.7881,5.7881,5.7991,5.8171,5.8171,5.8312,5.849,5.849,5.8596,5.8771,5.8771,5.8875,5.9012,5.9047,5.9564,6.022,6.0254,6.0737,6.1358,6.1358,6.1875,6.2496,6.2496,6.3013,6.3565,6.36,6.36,6.36,6.36,6.36,6.36,6.36,6.36,6.36,6.36,6.36,6.36,6.36,6.36,6.36,6.3634,6.422,6.4669,6.4738,6.5393,6.6152,6.6911,6.7014,6.7325,6.8049,6.8083,6.8039,6.7839,6.7799,6.7597,6.7222,6.718,6.7056,6.6812,6.6812,6.6812,6.6812,6.6812,6.6812,6.6812,6.6812,6.6812,3.703,0.0,0.0,0.0,0.0,0.0,4.594,4.7623,4.965,5.2867,5.4192,5.5349,5.7432,5.8358,5.8736,5.8666,5.884,5.9012,5.9012,5.9012,5.8944,5.8875,5.8771,5.8322,5.7291,5.7083,5.6636,5.5784,5.5209,5.4905,5.4905,5.4397,5.4025,5.3822,5.3788,5.3788,5.3788,5.3788,5.4262,5.5209,5.575,5.6393,5.7137,5.7645,5.7881,5.7881,5.7881,5.7918,5.7991,5.7991,5.7991,5.8063,5.8063,5.8277,5.8596,5.8596,5.8771,5.9081,5.9668,6.0013,6.0392,6.1496,6.1979,6.2151,6.2151,6.2324,6.2496,6.2496,6.2634,6.291,6.3462,6.36,6.36,6.36,6.36,6.36,6.36,6.36,6.36,6.36,6.36,6.36,6.36,6.36,6.3772,6.4324,6.4117,6.4289,6.5393,6.5738,6.6152,6.6911,6.7463,6.7876,6.8083,6.8083,6.8078,6.8004,6.7759,6.7516,6.7428,6.7063,6.6854,6.6812,6.6812,6.6812,6.6812,6.6812,6.6812,6.6812,6.6812,6.7117,3.7533,3.8372,3.9706,3.9851,0.0,0.0,4.4418,4.5703,4.7424,5.121,5.2599,5.3753,5.5962,5.6816,5.7261,5.7534,5.8015,5.8462,5.8841,5.8944,5.8944,5.8806,5.8701,5.8287,5.722,5.7012,5.6601,5.5784,5.531,5.4905,5.46,5.389,5.3518,5.3518,5.3518,5.3518,5.3518,5.3518,5.3856,5.46,5.5344,5.6089,5.6833,5.7543,5.7881,5.7881,5.7881,5.7881,5.7881,5.7881,5.7881,5.7881,5.7881,5.8063,5.8384,5.849,5.8872,5.946,6.0012,6.0392,6.0875,6.2082,6.2496,6.2496,6.2496,6.2496,6.2496,6.2496,6.2703,6.3048,6.3496,6.36,6.36,6.36,6.36,6.36,6.36,6.36,6.36,6.36,6.36,6.36,6.36,6.36,6.3841,6.46,6.46,6.4979,6.6186,6.6635,6.698,6.7394,6.7842,6.8083,6.8083,6.8083,6.8004,6.7879,6.7719,6.7475,6.7229,6.7022,6.6896,6.6812,6.6812,6.6948,6.7252,6.6948,6.6981,6.7252,6.7252,6.7658,3.8387,3.8704,0.0,4.0798,4.0155,0.0,4.4079,4.5026,4.6109,4.9729,5.1048,5.2162,5.4024,5.4431,5.477,5.5621,5.6474,5.7432,5.8599,5.8875,5.8875,5.8736,5.8561,5.8111,5.7287,5.7042,5.663,5.5886,5.5683,5.5277,5.4499,5.3856,5.3518,5.3518,5.3518,5.3518,5.3518,5.3518,5.3822,5.4465,5.531,5.6055,5.6697,5.7509,5.7881,5.7881,5.7881,5.7881,5.7881,5.7881,5.7881,5.7881,5.7881,5.8027,5.8243,5.8455,5.911,5.9974,6.0254,6.0737,6.1427,6.222,6.2496,6.2461,6.2289,6.2289,6.2358,6.2358,6.2944,6.36,6.36,6.36,6.36,6.36,6.36,6.36,6.36,6.36,6.36,6.36,6.36,6.36,6.36,6.3669,6.3979,6.4703,6.5428,6.6186,6.7014,6.7601,6.8014,6.8083,6.8083,6.8083,6.8083,6.8083,6.7959,6.7591,6.7678,6.7475,6.6854,6.7056,6.7056,6.6812,6.688,6.7252,6.7895,6.7252,6.732,6.803,6.803,6.847,4.0546,4.0894,4.1309,4.051,4.0561,0.0,4.0358,4.0764,4.2117,4.5229,4.6481,4.78,5.0536,5.1647,5.2155,5.2194,5.3578,5.5585,5.8184,5.8596,5.8525,5.8348,5.8312,5.8137,5.7751,5.7715,5.7374,5.663,5.548,5.4499,5.3754,5.3585,5.3518,5.3518,5.3518,5.3518,5.3518,5.3518,5.3585,5.3721,5.5074,5.5784,5.5987,5.7273,5.7881,5.7881,5.7881,5.7881,5.7881,5.7881,5.7881,5.7881,5.7881,5.8099,5.8455,5.849,5.9181,6.0254,6.0875,6.1185,6.1427,6.222,6.2496,6.2255,6.1013,6.1047,6.153,6.153,6.253,6.36,6.36,6.36,6.36,6.36,6.36,6.36,6.36,6.36,6.36,6.36,6.36,6.36,6.36,6.4083,6.4738,6.5531,6.5773,6.6359,6.7704,6.7497,6.7428,6.8049,6.8083,6.8083,6.8083,6.8083,6.7999,6.7759,6.7638,6.7428,6.7139,6.6938,6.6854,6.6812,6.7387,6.776,6.7895,6.776,6.8098,6.8876,6.8876,6.9282,4.1598,4.1728,4.1964,4.1276,4.0856,0.0,0.0,4.0663,4.1508,4.4519,4.4823,4.5365,4.797,4.8229,4.8531,4.9864,5.1208,5.2968,5.5655,5.6815,5.7328,5.7118,5.7118,5.7148,5.7342,5.734,5.7205,5.6833,5.5784,5.4837,5.4093,5.4059,5.4059,5.4059,5.4431,5.46,5.46,5.4228,5.4059,5.4059,5.5175,5.5681,5.5749,5.7239,5.7881,5.7881,5.7881,5.7954,5.8027,5.8027,5.8099,5.8205,5.8063,5.8207,5.8525,5.8596,5.9492,6.07,6.115,6.1289,6.1427,6.222,6.1979,6.1254,6.0875,6.1289,6.1806,6.1427,6.2393,6.36,6.36,6.36,6.36,6.36,6.36,6.36,6.36,6.36,6.36,6.36,6.36,6.36,6.36,6.422,6.4979,6.5773,6.6186,6.6842,6.7945,6.7773,6.7669,6.8049,6.8083,6.8083,6.8083,6.8004,6.7879,6.7678,6.7591,6.7346,6.7014,6.7014,6.7014,6.7014,6.7726,6.8311,6.8812,6.9058,6.9379,6.9654,6.9654,7.0026,4.2836,4.273,4.2818,4.2408,4.1639,4.1102,0.0,0.0,0.0,4.4147,4.3713,4.3606,4.5568,4.4987,4.4959,4.753,4.868,4.9932,5.1928,5.3751,5.5076,5.5485,5.5621,5.5891,5.6325,5.6258,5.6224,5.6359,5.5547,5.4905,5.46,5.46,5.46,5.46,5.5175,5.5446,5.531,5.4702,5.4397,5.4397,5.5277,5.5681,5.5749,5.7239,5.7881,5.7881,5.7918,5.8027,5.8171,5.8241,5.8384,5.8525,5.8348,5.8384,5.8561,5.8736,5.9767,6.104,6.108,6.1185,6.1392,6.1875,6.1116,6.0151,6.1013,6.1737,6.2151,6.1668,6.253,6.36,6.36,6.36,6.36,6.36,6.36,6.36,6.36,6.36,6.36,6.36,6.36,6.3634,6.3772,6.4427,6.5186,6.5979,6.6738,6.7428,6.8014,6.8083,6.8083,6.8083,6.8083,6.8083,6.8083,6.7959,6.7759,6.7557,6.7557,6.7353,6.6938,6.7139,6.7331,6.7467,6.8216,6.9016,6.9927,7.0429,7.0629,7.0487,7.0443,7.0737,4.5502,4.5651,4.5395,4.353,4.3597,4.3261,4.0087,0.0,4.1136,4.0806,0.0,4.1745,4.2625,0.0,0.0,4.3876,4.5263,4.6515,4.7428,4.8846,5.0807,5.3484,5.4364,5.477,5.4837,5.4262,5.416,5.4803,5.3518,5.3247,5.4532,5.46,5.46,5.46,5.4668,5.4397,5.3754,5.3687,5.3619,5.3653,5.504,5.5681,5.5749,5.7239,5.7881,5.7918,5.8063,5.8205,5.8207,5.8384,5.8596,5.877,5.8525,5.8596,5.8771,5.8771,5.9838,6.1184,6.0565,6.0737,6.122,6.0634,5.9875,5.9426,6.0875,6.1358,6.1565,6.2186,6.2944,6.36,6.36,6.36,6.36,6.36,6.36,6.36,6.36,6.36,6.36,6.36,6.36,6.3807,6.4462,6.5221,6.6014,6.6738,6.7497,6.8014,6.8083,6.8083,6.8083,6.8083,6.8083,6.8083,6.8083,6.8083,6.7999,6.7799,6.7759,6.7678,6.7435,6.7469,6.7776,6.8425,6.9176,6.9927,7.0755,7.1256,7.1464,7.142,7.1266,7.1244,4.5974,4.6424,4.6407,4.4255,4.4148,4.3836,4.0933,4.0426,4.0595,4.073,0.0,0.0,0.0,0.0,0.0,0.0,4.3673,4.4654,4.5399,4.6413,4.8037,5.0608,5.115,5.186,5.3145,5.3416,5.3619,5.3923,5.2942,5.2807,5.389,5.4769,5.5446,5.5852,5.5886,5.5716,5.5412,5.4566,5.4126,5.416,5.5209,5.5681,5.5749,5.7239,5.7881,5.7881,5.7991,5.8063,5.8241,5.8419,5.8631,5.8771,5.8806,5.884,5.8978,5.946,6.0322,6.1254,6.0944,6.1047,6.1185,6.0427,6.0254,6.0461,6.1116,6.191,6.2599,6.253,6.3013,6.36,6.36,6.36,6.36,6.36,6.36,6.36,6.36,6.36,6.3738,6.4152,6.422,6.46,6.5842,6.5945,6.6152,6.6876,6.7635,6.8083,6.8083,6.8083,6.8083,6.8083,6.8083,6.8083,6.8083,6.7965,6.7919,6.7799,6.7678,6.7638,6.7678,6.7967,6.8344,6.8775,6.9974,7.0762,7.1063,7.1566,7.1732,7.16,7.1367,7.1312,4.6638,4.7091,4.7206,4.47,4.4327,4.3972,4.1441,4.0798,4.0857,4.1373,4.0967,0.0,0.0,0.0,0.0,0.0,0.0,4.3606,4.4181,4.4384,4.5365,4.78,4.8443,4.9424,5.1217,5.1555,5.1928,5.2536,5.1657,5.1792,5.3416,5.4702,5.575,5.6494,5.6494,5.6393,5.619,5.4938,5.4296,5.4296,5.5243,5.5681,5.5749,5.7239,5.7881,5.7881,5.7954,5.8063,5.8241,5.8419,5.8631,5.884,5.8909,5.9082,5.9392,5.9978,6.053,6.1013,6.1013,6.1013,6.0909,6.0358,6.0703,6.1358,6.1565,6.2393,6.322,6.2875,6.3186,6.36,6.36,6.36,6.36,6.36,6.36,6.36,6.36,6.3772,6.4048,6.46,6.4876,6.5428,6.6773,6.6531,6.6428,6.7187,6.7738,6.8083,6.8083,6.8083,6.8083,6.8083,6.8083,6.8083,6.8083,6.7999,6.7879,6.7879,6.7759,6.7822,6.8189,6.8582,6.9022,6.9598,7.0739,7.1351,7.1507,7.1876,7.1854,7.16,7.1367,7.1312,4.8193,4.8418,4.7998,4.48,4.4298,4.3836,4.0823,4.123,4.2219,4.2252,4.343,4.4445,4.4479,0.0,0.0,0.0,0.0,0.0,0.0,4.2252,4.2455,4.5466,4.709,4.821,4.9052,4.7834,4.7902,5.0033,4.8883,4.9661,5.3315,5.4228,5.4972,5.5716,5.575,5.5412,5.4668,5.3923,5.3551,5.3551,5.5006,5.5681,5.5749,5.7239,5.7881,5.7918,5.8133,5.8171,5.8241,5.8419,5.8631,5.8805,5.8771,5.9357,6.0151,6.0185,6.022,6.022,6.022,6.022,6.022,6.022,6.0703,6.1461,6.222,6.2496,6.2668,6.3358,6.3565,6.36,6.36,6.36,6.36,6.36,6.36,6.36,6.36,6.4152,6.4669,6.4703,6.5324,6.6083,6.6876,6.698,6.7221,6.7945,6.8083,6.8083,6.8083,6.8083,6.8083,6.8083,6.8083,6.8083,6.8083,6.8083,6.8083,6.8083,6.8083,6.8428,6.9222,6.9256,6.9946,7.1394,7.1463,7.1752,7.2296,7.2115,7.1854,7.16,7.1367,7.1312,4.9858,5.039,5.025,4.7164,4.6203,4.5292,4.2219,4.232,4.2895,4.2388,4.391,4.5162,4.4716,0.0,0.0,0.0,0.0,0.0,0.0,4.0392,4.0493,4.2489,4.4485,4.6007,4.6752,4.6819,4.7293,4.8545,4.8206,4.9089,5.186,5.3179,5.4431,5.5647,5.5243,5.5108,5.5344,5.4126,5.3518,5.3518,5.5006,5.5681,5.5749,5.7239,5.7881,5.7881,5.7954,5.7991,5.8027,5.8241,5.8419,5.8596,5.877,5.9391,6.0254,6.0737,6.0944,6.0944,6.0944,6.0944,6.1013,6.153,6.1875,6.222,6.2979,6.322,6.3289,6.3531,6.36,6.36,6.36,6.36,6.36,6.36,6.36,6.3738,6.422,6.4531,6.5014,6.6014,6.6428,6.6842,6.7601,6.7738,6.7807,6.8049,6.8083,6.8083,6.8083,6.8083,6.8083,6.8083,6.8083,6.8083,6.8083,6.8083,6.8083,6.8083,6.8601,6.8773,6.8497,6.9463,7.0256,7.0739,7.1256,7.171,7.2115,7.2029,7.1766,7.1367,7.1356,7.1312,5.0826,5.1261,5.119,4.8635,4.7815,4.6853,4.4113,4.4282,4.493,4.4722,4.5838,4.6955,4.7259,0.0,0.0,0.0,0.0,0.0,0.0,3.958,4.0054,4.073,4.2557,4.4181,4.5196,4.5229,4.5737,4.7022,4.6887,4.78,5.0304,5.2131,5.3754,5.5277,5.4837,5.4938,5.5681,5.4262,5.3518,5.3518,5.5006,5.5681,5.5749,5.7239,5.7881,5.7881,5.7881,5.7881,5.7918,5.8099,5.8348,5.8525,5.8701,5.9528,6.0634,6.1116,6.1496,6.1668,6.1392,6.1496,6.1806,6.2324,6.2668,6.2979,6.3462,6.36,6.36,6.36,6.36,6.36,6.36,6.36,6.36,6.36,6.3807,6.4117,6.46,6.5117,6.5807,6.6807,6.7187,6.7532,6.8014,6.8083,6.8083,6.8083,6.8083,6.8083,6.8083,6.8083,6.8083,6.8083,6.8083,6.8083,6.8083,6.8083,6.8221,6.8497,6.8739,6.8877,6.8911,6.9601,7.0118,7.0394,7.0843,7.1152,7.1199,7.1199,7.1076,7.0906,7.0906,7.1075]}]]